<?xml version="1.0" encoding="UTF-8" standalone="no" ?>
<gpx xmlns="http://www.topografix.com/GPX/1/1" creator="www.cicloide.com" version="1.1" xmlns:xsi="http://www.w3.org/2001/XMLSchema-instance" xsi:schemaLocation="http://www.topografix.com/GPX/1/1 http://www.topografix.com/GPX/1/1/gpx.xsd">
  <trk>
    <name>www.cicloide.com 11586</name>
    <desc>www.cicloide.com 11586</desc>
    <trkseg>
      <trkpt lat="41.605732600" lon="2.540345900">
        <ele>108.80</ele>
        <time>2012-12-16T07:50:39Z</time>
      </trkpt>
      <trkpt lat="41.605727300" lon="2.540374000">
        <ele>108.80</ele>
        <time>2012-12-16T07:50:57Z</time>
      </trkpt>
      <trkpt lat="41.605749500" lon="2.540404000">
        <ele>108.80</ele>
        <time>2012-12-16T07:51:04Z</time>
      </trkpt>
      <trkpt lat="41.605881300" lon="2.540416300">
        <ele>109.20</ele>
        <time>2012-12-16T07:51:11Z</time>
      </trkpt>
      <trkpt lat="41.605936300" lon="2.540402200">
        <ele>109.20</ele>
        <time>2012-12-16T07:51:12Z</time>
      </trkpt>
      <trkpt lat="41.606168100" lon="2.540415800">
        <ele>108.80</ele>
        <time>2012-12-16T07:51:19Z</time>
      </trkpt>
      <trkpt lat="41.606339400" lon="2.540499600">
        <ele>109.20</ele>
        <time>2012-12-16T07:51:26Z</time>
      </trkpt>
      <trkpt lat="41.606518900" lon="2.540587900">
        <ele>110.20</ele>
        <time>2012-12-16T07:51:33Z</time>
      </trkpt>
      <trkpt lat="41.606697200" lon="2.540676900">
        <ele>110.70</ele>
        <time>2012-12-16T07:51:42Z</time>
      </trkpt>
      <trkpt lat="41.606889200" lon="2.540754200">
        <ele>111.20</ele>
        <time>2012-12-16T07:51:49Z</time>
      </trkpt>
      <trkpt lat="41.607100700" lon="2.540803000">
        <ele>112.10</ele>
        <time>2012-12-16T07:51:58Z</time>
      </trkpt>
      <trkpt lat="41.607272500" lon="2.540843100">
        <ele>113.10</ele>
        <time>2012-12-16T07:52:05Z</time>
      </trkpt>
      <trkpt lat="41.607405500" lon="2.540834000">
        <ele>113.10</ele>
        <time>2012-12-16T07:52:10Z</time>
      </trkpt>
      <trkpt lat="41.607587800" lon="2.540836300">
        <ele>114.10</ele>
        <time>2012-12-16T07:52:18Z</time>
      </trkpt>
      <trkpt lat="41.607759600" lon="2.540820000">
        <ele>114.50</ele>
        <time>2012-12-16T07:52:27Z</time>
      </trkpt>
      <trkpt lat="41.607940300" lon="2.540829200">
        <ele>115.00</ele>
        <time>2012-12-16T07:52:34Z</time>
      </trkpt>
      <trkpt lat="41.608095000" lon="2.540820500">
        <ele>115.50</ele>
        <time>2012-12-16T07:52:41Z</time>
      </trkpt>
      <trkpt lat="41.608279000" lon="2.540767900">
        <ele>116.50</ele>
        <time>2012-12-16T07:52:48Z</time>
      </trkpt>
      <trkpt lat="41.608478300" lon="2.540733600">
        <ele>116.90</ele>
        <time>2012-12-16T07:52:57Z</time>
      </trkpt>
      <trkpt lat="41.608645600" lon="2.540690900">
        <ele>117.40</ele>
        <time>2012-12-16T07:53:04Z</time>
      </trkpt>
      <trkpt lat="41.608831700" lon="2.540653600">
        <ele>118.40</ele>
        <time>2012-12-16T07:53:11Z</time>
      </trkpt>
      <trkpt lat="41.609065200" lon="2.540613000">
        <ele>119.30</ele>
        <time>2012-12-16T07:53:19Z</time>
      </trkpt>
      <trkpt lat="41.609200200" lon="2.540600300">
        <ele>119.80</ele>
        <time>2012-12-16T07:53:25Z</time>
      </trkpt>
      <trkpt lat="41.609355500" lon="2.540588500">
        <ele>120.30</ele>
        <time>2012-12-16T07:53:33Z</time>
      </trkpt>
      <trkpt lat="41.609467200" lon="2.540589700">
        <ele>120.80</ele>
        <time>2012-12-16T07:53:39Z</time>
      </trkpt>
      <trkpt lat="41.609542700" lon="2.540606300">
        <ele>120.80</ele>
        <time>2012-12-16T07:53:46Z</time>
      </trkpt>
      <trkpt lat="41.609630100" lon="2.540587600">
        <ele>121.70</ele>
        <time>2012-12-16T07:53:51Z</time>
      </trkpt>
      <trkpt lat="41.609854900" lon="2.540531200">
        <ele>122.70</ele>
        <time>2012-12-16T07:53:58Z</time>
      </trkpt>
      <trkpt lat="41.610058300" lon="2.540437500">
        <ele>123.20</ele>
        <time>2012-12-16T07:54:05Z</time>
      </trkpt>
      <trkpt lat="41.610281700" lon="2.540327800">
        <ele>124.20</ele>
        <time>2012-12-16T07:54:13Z</time>
      </trkpt>
      <trkpt lat="41.610500100" lon="2.540208700">
        <ele>124.60</ele>
        <time>2012-12-16T07:54:22Z</time>
      </trkpt>
      <trkpt lat="41.610731800" lon="2.540087400">
        <ele>126.10</ele>
        <time>2012-12-16T07:54:29Z</time>
      </trkpt>
      <trkpt lat="41.610941500" lon="2.539956300">
        <ele>126.60</ele>
        <time>2012-12-16T07:54:36Z</time>
      </trkpt>
      <trkpt lat="41.611147900" lon="2.539848400">
        <ele>127.50</ele>
        <time>2012-12-16T07:54:45Z</time>
      </trkpt>
      <trkpt lat="41.611344800" lon="2.539741700">
        <ele>128.50</ele>
        <time>2012-12-16T07:54:52Z</time>
      </trkpt>
      <trkpt lat="41.611549800" lon="2.539557600">
        <ele>129.40</ele>
        <time>2012-12-16T07:55:02Z</time>
      </trkpt>
      <trkpt lat="41.611711700" lon="2.539376700">
        <ele>130.40</ele>
        <time>2012-12-16T07:55:09Z</time>
      </trkpt>
      <trkpt lat="41.611915400" lon="2.539102800">
        <ele>131.40</ele>
        <time>2012-12-16T07:55:18Z</time>
      </trkpt>
      <trkpt lat="41.612096300" lon="2.538850700">
        <ele>132.30</ele>
        <time>2012-12-16T07:55:28Z</time>
      </trkpt>
      <trkpt lat="41.612215900" lon="2.538606800">
        <ele>133.30</ele>
        <time>2012-12-16T07:55:35Z</time>
      </trkpt>
      <trkpt lat="41.612335400" lon="2.538396800">
        <ele>134.20</ele>
        <time>2012-12-16T07:55:42Z</time>
      </trkpt>
      <trkpt lat="41.612469900" lon="2.538213200">
        <ele>134.70</ele>
        <time>2012-12-16T07:55:49Z</time>
      </trkpt>
      <trkpt lat="41.612626300" lon="2.538020400">
        <ele>135.70</ele>
        <time>2012-12-16T07:55:58Z</time>
      </trkpt>
      <trkpt lat="41.612739200" lon="2.537898100">
        <ele>136.60</ele>
        <time>2012-12-16T07:56:03Z</time>
      </trkpt>
      <trkpt lat="41.612894900" lon="2.537735500">
        <ele>137.10</ele>
        <time>2012-12-16T07:56:10Z</time>
      </trkpt>
      <trkpt lat="41.613123400" lon="2.537482000">
        <ele>138.10</ele>
        <time>2012-12-16T07:56:21Z</time>
      </trkpt>
      <trkpt lat="41.613303800" lon="2.537308300">
        <ele>139.10</ele>
        <time>2012-12-16T07:56:29Z</time>
      </trkpt>
      <trkpt lat="41.613433100" lon="2.537131300">
        <ele>139.50</ele>
        <time>2012-12-16T07:56:36Z</time>
      </trkpt>
      <trkpt lat="41.613568000" lon="2.536924500">
        <ele>140.00</ele>
        <time>2012-12-16T07:56:43Z</time>
      </trkpt>
      <trkpt lat="41.613644000" lon="2.536626700">
        <ele>141.00</ele>
        <time>2012-12-16T07:56:52Z</time>
      </trkpt>
      <trkpt lat="41.613713900" lon="2.536393700">
        <ele>141.90</ele>
        <time>2012-12-16T07:56:59Z</time>
      </trkpt>
      <trkpt lat="41.613835300" lon="2.536110800">
        <ele>142.40</ele>
        <time>2012-12-16T07:57:09Z</time>
      </trkpt>
      <trkpt lat="41.613920600" lon="2.535892200">
        <ele>143.40</ele>
        <time>2012-12-16T07:57:16Z</time>
      </trkpt>
      <trkpt lat="41.614019000" lon="2.535588200">
        <ele>144.30</ele>
        <time>2012-12-16T07:57:25Z</time>
      </trkpt>
      <trkpt lat="41.614129100" lon="2.535249500">
        <ele>145.30</ele>
        <time>2012-12-16T07:57:34Z</time>
      </trkpt>
      <trkpt lat="41.614211100" lon="2.534949100">
        <ele>146.70</ele>
        <time>2012-12-16T07:57:44Z</time>
      </trkpt>
      <trkpt lat="41.614316300" lon="2.534617600">
        <ele>147.70</ele>
        <time>2012-12-16T07:57:53Z</time>
      </trkpt>
      <trkpt lat="41.614399100" lon="2.534349000">
        <ele>149.10</ele>
        <time>2012-12-16T07:58:02Z</time>
      </trkpt>
      <trkpt lat="41.614492800" lon="2.534009100">
        <ele>150.10</ele>
        <time>2012-12-16T07:58:12Z</time>
      </trkpt>
      <trkpt lat="41.614572100" lon="2.533737800">
        <ele>151.10</ele>
        <time>2012-12-16T07:58:19Z</time>
      </trkpt>
      <trkpt lat="41.614671700" lon="2.533431100">
        <ele>151.50</ele>
        <time>2012-12-16T07:58:28Z</time>
      </trkpt>
      <trkpt lat="41.614754600" lon="2.533199500">
        <ele>152.50</ele>
        <time>2012-12-16T07:58:35Z</time>
      </trkpt>
      <trkpt lat="41.614838200" lon="2.532883400">
        <ele>153.50</ele>
        <time>2012-12-16T07:58:45Z</time>
      </trkpt>
      <trkpt lat="41.614930400" lon="2.532581100">
        <ele>153.90</ele>
        <time>2012-12-16T07:58:54Z</time>
      </trkpt>
      <trkpt lat="41.615025300" lon="2.532237000">
        <ele>155.40</ele>
        <time>2012-12-16T07:59:04Z</time>
      </trkpt>
      <trkpt lat="41.615088700" lon="2.531859700">
        <ele>155.90</ele>
        <time>2012-12-16T07:59:15Z</time>
      </trkpt>
      <trkpt lat="41.615116700" lon="2.531495600">
        <ele>157.30</ele>
        <time>2012-12-16T07:59:25Z</time>
      </trkpt>
      <trkpt lat="41.615124100" lon="2.531168200">
        <ele>157.80</ele>
        <time>2012-12-16T07:59:34Z</time>
      </trkpt>
      <trkpt lat="41.615156200" lon="2.530789900">
        <ele>158.80</ele>
        <time>2012-12-16T07:59:43Z</time>
      </trkpt>
      <trkpt lat="41.615173800" lon="2.530499600">
        <ele>159.70</ele>
        <time>2012-12-16T07:59:51Z</time>
      </trkpt>
      <trkpt lat="41.615175500" lon="2.530068900">
        <ele>161.20</ele>
        <time>2012-12-16T08:00:04Z</time>
      </trkpt>
      <trkpt lat="41.615188200" lon="2.529672300">
        <ele>162.10</ele>
        <time>2012-12-16T08:00:14Z</time>
      </trkpt>
      <trkpt lat="41.615195100" lon="2.529338500">
        <ele>163.10</ele>
        <time>2012-12-16T08:00:23Z</time>
      </trkpt>
      <trkpt lat="41.615211700" lon="2.529025400">
        <ele>164.50</ele>
        <time>2012-12-16T08:00:33Z</time>
      </trkpt>
      <trkpt lat="41.615269200" lon="2.528649300">
        <ele>165.00</ele>
        <time>2012-12-16T08:00:42Z</time>
      </trkpt>
      <trkpt lat="41.615348800" lon="2.528278000">
        <ele>166.00</ele>
        <time>2012-12-16T08:00:52Z</time>
      </trkpt>
      <trkpt lat="41.615422000" lon="2.527910800">
        <ele>166.90</ele>
        <time>2012-12-16T08:01:03Z</time>
      </trkpt>
      <trkpt lat="41.615494000" lon="2.527555900">
        <ele>168.40</ele>
        <time>2012-12-16T08:01:13Z</time>
      </trkpt>
      <trkpt lat="41.615555400" lon="2.527290600">
        <ele>168.90</ele>
        <time>2012-12-16T08:01:20Z</time>
      </trkpt>
      <trkpt lat="41.615597200" lon="2.526954500">
        <ele>170.30</ele>
        <time>2012-12-16T08:01:31Z</time>
      </trkpt>
      <trkpt lat="41.615591400" lon="2.526662100">
        <ele>172.20</ele>
        <time>2012-12-16T08:01:39Z</time>
      </trkpt>
      <trkpt lat="41.615565700" lon="2.526370100">
        <ele>173.20</ele>
        <time>2012-12-16T08:01:48Z</time>
      </trkpt>
      <trkpt lat="41.615535200" lon="2.526074600">
        <ele>173.70</ele>
        <time>2012-12-16T08:01:55Z</time>
      </trkpt>
      <trkpt lat="41.615536500" lon="2.525788600">
        <ele>174.60</ele>
        <time>2012-12-16T08:02:04Z</time>
      </trkpt>
      <trkpt lat="41.615532800" lon="2.525427800">
        <ele>175.60</ele>
        <time>2012-12-16T08:02:14Z</time>
      </trkpt>
      <trkpt lat="41.615542100" lon="2.525086700">
        <ele>177.00</ele>
        <time>2012-12-16T08:02:23Z</time>
      </trkpt>
      <trkpt lat="41.615557500" lon="2.524841200">
        <ele>178.00</ele>
        <time>2012-12-16T08:02:30Z</time>
      </trkpt>
      <trkpt lat="41.615599000" lon="2.524492400">
        <ele>178.90</ele>
        <time>2012-12-16T08:02:40Z</time>
      </trkpt>
      <trkpt lat="41.615625000" lon="2.524207300">
        <ele>180.40</ele>
        <time>2012-12-16T08:02:47Z</time>
      </trkpt>
      <trkpt lat="41.615635400" lon="2.523993100">
        <ele>181.80</ele>
        <time>2012-12-16T08:02:54Z</time>
      </trkpt>
      <trkpt lat="41.615648200" lon="2.523791200">
        <ele>182.80</ele>
        <time>2012-12-16T08:03:01Z</time>
      </trkpt>
      <trkpt lat="41.615681700" lon="2.523476700">
        <ele>183.30</ele>
        <time>2012-12-16T08:03:08Z</time>
      </trkpt>
      <trkpt lat="41.615707100" lon="2.523143100">
        <ele>184.20</ele>
        <time>2012-12-16T08:03:17Z</time>
      </trkpt>
      <trkpt lat="41.615735600" lon="2.522889300">
        <ele>185.20</ele>
        <time>2012-12-16T08:03:24Z</time>
      </trkpt>
      <trkpt lat="41.615769600" lon="2.522559300">
        <ele>186.60</ele>
        <time>2012-12-16T08:03:34Z</time>
      </trkpt>
      <trkpt lat="41.615820800" lon="2.522229600">
        <ele>188.10</ele>
        <time>2012-12-16T08:03:43Z</time>
      </trkpt>
      <trkpt lat="41.615865800" lon="2.521975800">
        <ele>189.00</ele>
        <time>2012-12-16T08:03:52Z</time>
      </trkpt>
      <trkpt lat="41.615908400" lon="2.521656900">
        <ele>189.50</ele>
        <time>2012-12-16T08:04:00Z</time>
      </trkpt>
      <trkpt lat="41.615951900" lon="2.521380800">
        <ele>190.00</ele>
        <time>2012-12-16T08:04:07Z</time>
      </trkpt>
      <trkpt lat="41.615980100" lon="2.521077700">
        <ele>190.50</ele>
        <time>2012-12-16T08:04:16Z</time>
      </trkpt>
      <trkpt lat="41.616038800" lon="2.520794900">
        <ele>191.00</ele>
        <time>2012-12-16T08:04:23Z</time>
      </trkpt>
      <trkpt lat="41.616110100" lon="2.520545300">
        <ele>191.90</ele>
        <time>2012-12-16T08:04:30Z</time>
      </trkpt>
      <trkpt lat="41.616211900" lon="2.520268500">
        <ele>192.40</ele>
        <time>2012-12-16T08:04:39Z</time>
      </trkpt>
      <trkpt lat="41.616325300" lon="2.520057400">
        <ele>192.40</ele>
        <time>2012-12-16T08:04:46Z</time>
      </trkpt>
      <trkpt lat="41.616491900" lon="2.519910600">
        <ele>191.40</ele>
        <time>2012-12-16T08:04:53Z</time>
      </trkpt>
      <trkpt lat="41.616700600" lon="2.519789900">
        <ele>192.40</ele>
        <time>2012-12-16T08:05:00Z</time>
      </trkpt>
      <trkpt lat="41.616874800" lon="2.519733100">
        <ele>193.80</ele>
        <time>2012-12-16T08:05:08Z</time>
      </trkpt>
      <trkpt lat="41.617095500" lon="2.519696800">
        <ele>194.80</ele>
        <time>2012-12-16T08:05:17Z</time>
      </trkpt>
      <trkpt lat="41.617318800" lon="2.519657100">
        <ele>195.80</ele>
        <time>2012-12-16T08:05:26Z</time>
      </trkpt>
      <trkpt lat="41.617593000" lon="2.519627200">
        <ele>197.20</ele>
        <time>2012-12-16T08:05:38Z</time>
      </trkpt>
      <trkpt lat="41.617774600" lon="2.519610700">
        <ele>197.70</ele>
        <time>2012-12-16T08:05:47Z</time>
      </trkpt>
      <trkpt lat="41.617794400" lon="2.519618200">
        <ele>198.20</ele>
        <time>2012-12-16T08:05:52Z</time>
      </trkpt>
      <trkpt lat="41.617794200" lon="2.519630500">
        <ele>198.60</ele>
        <time>2012-12-16T08:05:59Z</time>
      </trkpt>
      <trkpt lat="41.617805300" lon="2.519669600">
        <ele>199.10</ele>
        <time>2012-12-16T08:06:09Z</time>
      </trkpt>
      <trkpt lat="41.617806300" lon="2.519675100">
        <ele>199.10</ele>
        <time>2012-12-16T08:06:11Z</time>
      </trkpt>
      <trkpt lat="41.617826100" lon="2.519723800">
        <ele>199.10</ele>
        <time>2012-12-16T08:06:13Z</time>
      </trkpt>
      <trkpt lat="41.617903900" lon="2.519838900">
        <ele>200.10</ele>
        <time>2012-12-16T08:06:20Z</time>
      </trkpt>
      <trkpt lat="41.617881000" lon="2.519996100">
        <ele>201.10</ele>
        <time>2012-12-16T08:06:27Z</time>
      </trkpt>
      <trkpt lat="41.617752900" lon="2.520111000">
        <ele>203.00</ele>
        <time>2012-12-16T08:06:37Z</time>
      </trkpt>
      <trkpt lat="41.617698800" lon="2.520264600">
        <ele>205.40</ele>
        <time>2012-12-16T08:06:44Z</time>
      </trkpt>
      <trkpt lat="41.617699200" lon="2.520496000">
        <ele>207.30</ele>
        <time>2012-12-16T08:06:53Z</time>
      </trkpt>
      <trkpt lat="41.617676300" lon="2.520713100">
        <ele>207.80</ele>
        <time>2012-12-16T08:07:02Z</time>
      </trkpt>
      <trkpt lat="41.617710800" lon="2.520883100">
        <ele>208.30</ele>
        <time>2012-12-16T08:07:10Z</time>
      </trkpt>
      <trkpt lat="41.617779000" lon="2.521104600">
        <ele>209.70</ele>
        <time>2012-12-16T08:07:19Z</time>
      </trkpt>
      <trkpt lat="41.617848800" lon="2.521338400">
        <ele>210.70</ele>
        <time>2012-12-16T08:07:30Z</time>
      </trkpt>
      <trkpt lat="41.617893400" lon="2.521569000">
        <ele>212.60</ele>
        <time>2012-12-16T08:07:38Z</time>
      </trkpt>
      <trkpt lat="41.617918400" lon="2.521634300">
        <ele>213.10</ele>
        <time>2012-12-16T08:07:42Z</time>
      </trkpt>
      <trkpt lat="41.617992300" lon="2.521624500">
        <ele>214.50</ele>
        <time>2012-12-16T08:07:47Z</time>
      </trkpt>
      <trkpt lat="41.618085000" lon="2.521408300">
        <ele>217.40</ele>
        <time>2012-12-16T08:07:59Z</time>
      </trkpt>
      <trkpt lat="41.618167400" lon="2.521227800">
        <ele>219.30</ele>
        <time>2012-12-16T08:08:08Z</time>
      </trkpt>
      <trkpt lat="41.618241400" lon="2.521068800">
        <ele>221.20</ele>
        <time>2012-12-16T08:08:18Z</time>
      </trkpt>
      <trkpt lat="41.618309400" lon="2.520862700">
        <ele>223.60</ele>
        <time>2012-12-16T08:08:29Z</time>
      </trkpt>
      <trkpt lat="41.618372100" lon="2.520692700">
        <ele>225.60</ele>
        <time>2012-12-16T08:08:37Z</time>
      </trkpt>
      <trkpt lat="41.618453500" lon="2.520610700">
        <ele>226.50</ele>
        <time>2012-12-16T08:08:46Z</time>
      </trkpt>
      <trkpt lat="41.618600500" lon="2.520576400">
        <ele>228.40</ele>
        <time>2012-12-16T08:08:55Z</time>
      </trkpt>
      <trkpt lat="41.618754900" lon="2.520547700">
        <ele>229.90</ele>
        <time>2012-12-16T08:09:05Z</time>
      </trkpt>
      <trkpt lat="41.618884300" lon="2.520485200">
        <ele>231.80</ele>
        <time>2012-12-16T08:09:14Z</time>
      </trkpt>
      <trkpt lat="41.619013900" lon="2.520417000">
        <ele>234.20</ele>
        <time>2012-12-16T08:09:24Z</time>
      </trkpt>
      <trkpt lat="41.619039200" lon="2.520399800">
        <ele>234.70</ele>
        <time>2012-12-16T08:09:26Z</time>
      </trkpt>
      <trkpt lat="41.619164400" lon="2.520351400">
        <ele>236.10</ele>
        <time>2012-12-16T08:09:35Z</time>
      </trkpt>
      <trkpt lat="41.619192800" lon="2.520338600">
        <ele>236.60</ele>
        <time>2012-12-16T08:09:37Z</time>
      </trkpt>
      <trkpt lat="41.619324300" lon="2.520325000">
        <ele>238.50</ele>
        <time>2012-12-16T08:09:47Z</time>
      </trkpt>
      <trkpt lat="41.619440200" lon="2.520359400">
        <ele>240.90</ele>
        <time>2012-12-16T08:09:56Z</time>
      </trkpt>
      <trkpt lat="41.619552200" lon="2.520363700">
        <ele>242.40</ele>
        <time>2012-12-16T08:10:06Z</time>
      </trkpt>
      <trkpt lat="41.619656700" lon="2.520345000">
        <ele>243.80</ele>
        <time>2012-12-16T08:10:13Z</time>
      </trkpt>
      <trkpt lat="41.619753100" lon="2.520321600">
        <ele>245.80</ele>
        <time>2012-12-16T08:10:22Z</time>
      </trkpt>
      <trkpt lat="41.619761400" lon="2.520320900">
        <ele>246.20</ele>
        <time>2012-12-16T08:10:24Z</time>
      </trkpt>
      <trkpt lat="41.619857600" lon="2.520272400">
        <ele>247.70</ele>
        <time>2012-12-16T08:10:31Z</time>
      </trkpt>
      <trkpt lat="41.619983400" lon="2.520202300">
        <ele>249.60</ele>
        <time>2012-12-16T08:10:41Z</time>
      </trkpt>
      <trkpt lat="41.620119400" lon="2.520136800">
        <ele>251.00</ele>
        <time>2012-12-16T08:10:50Z</time>
      </trkpt>
      <trkpt lat="41.620244600" lon="2.520150300">
        <ele>253.00</ele>
        <time>2012-12-16T08:11:00Z</time>
      </trkpt>
      <trkpt lat="41.620355000" lon="2.520181200">
        <ele>254.40</ele>
        <time>2012-12-16T08:11:09Z</time>
      </trkpt>
      <trkpt lat="41.620435900" lon="2.520187800">
        <ele>254.90</ele>
        <time>2012-12-16T08:11:16Z</time>
      </trkpt>
      <trkpt lat="41.620592400" lon="2.520217600">
        <ele>257.30</ele>
        <time>2012-12-16T08:11:25Z</time>
      </trkpt>
      <trkpt lat="41.620714300" lon="2.520236600">
        <ele>258.70</ele>
        <time>2012-12-16T08:11:33Z</time>
      </trkpt>
      <trkpt lat="41.620806300" lon="2.520265600">
        <ele>260.20</ele>
        <time>2012-12-16T08:11:40Z</time>
      </trkpt>
      <trkpt lat="41.621068900" lon="2.520340800">
        <ele>263.10</ele>
        <time>2012-12-16T08:11:58Z</time>
      </trkpt>
      <trkpt lat="41.621184000" lon="2.520359900">
        <ele>264.50</ele>
        <time>2012-12-16T08:12:05Z</time>
      </trkpt>
      <trkpt lat="41.621287300" lon="2.520362200">
        <ele>265.90</ele>
        <time>2012-12-16T08:12:13Z</time>
      </trkpt>
      <trkpt lat="41.621383500" lon="2.520384900">
        <ele>267.40</ele>
        <time>2012-12-16T08:12:20Z</time>
      </trkpt>
      <trkpt lat="41.621519400" lon="2.520433400">
        <ele>268.80</ele>
        <time>2012-12-16T08:12:29Z</time>
      </trkpt>
      <trkpt lat="41.621653100" lon="2.520476800">
        <ele>271.70</ele>
        <time>2012-12-16T08:12:40Z</time>
      </trkpt>
      <trkpt lat="41.621705500" lon="2.520488000">
        <ele>272.70</ele>
        <time>2012-12-16T08:12:43Z</time>
      </trkpt>
      <trkpt lat="41.621847400" lon="2.520536300">
        <ele>275.10</ele>
        <time>2012-12-16T08:12:54Z</time>
      </trkpt>
      <trkpt lat="41.621926100" lon="2.520543200">
        <ele>277.00</ele>
        <time>2012-12-16T08:12:59Z</time>
      </trkpt>
      <trkpt lat="41.622039100" lon="2.520529100">
        <ele>278.90</ele>
        <time>2012-12-16T08:13:07Z</time>
      </trkpt>
      <trkpt lat="41.622207000" lon="2.520471200">
        <ele>280.80</ele>
        <time>2012-12-16T08:13:18Z</time>
      </trkpt>
      <trkpt lat="41.622321200" lon="2.520437500">
        <ele>281.80</ele>
        <time>2012-12-16T08:13:25Z</time>
      </trkpt>
      <trkpt lat="41.622415500" lon="2.520417400">
        <ele>283.20</ele>
        <time>2012-12-16T08:13:32Z</time>
      </trkpt>
      <trkpt lat="41.622467400" lon="2.520494400">
        <ele>283.70</ele>
        <time>2012-12-16T08:13:37Z</time>
      </trkpt>
      <trkpt lat="41.622423400" lon="2.520550200">
        <ele>284.70</ele>
        <time>2012-12-16T08:13:44Z</time>
      </trkpt>
      <trkpt lat="41.622275600" lon="2.520583400">
        <ele>287.10</ele>
        <time>2012-12-16T08:13:54Z</time>
      </trkpt>
      <trkpt lat="41.622228200" lon="2.520623800">
        <ele>288.00</ele>
        <time>2012-12-16T08:14:00Z</time>
      </trkpt>
      <trkpt lat="41.622206800" lon="2.520633900">
        <ele>288.00</ele>
        <time>2012-12-16T08:14:01Z</time>
      </trkpt>
      <trkpt lat="41.622132400" lon="2.520693000">
        <ele>290.00</ele>
        <time>2012-12-16T08:14:08Z</time>
      </trkpt>
      <trkpt lat="41.622045800" lon="2.520776100">
        <ele>291.40</ele>
        <time>2012-12-16T08:14:17Z</time>
      </trkpt>
      <trkpt lat="41.621947200" lon="2.520850500">
        <ele>292.90</ele>
        <time>2012-12-16T08:14:24Z</time>
      </trkpt>
      <trkpt lat="41.621830300" lon="2.520954600">
        <ele>293.80</ele>
        <time>2012-12-16T08:14:33Z</time>
      </trkpt>
      <trkpt lat="41.621718700" lon="2.520998300">
        <ele>294.80</ele>
        <time>2012-12-16T08:14:41Z</time>
      </trkpt>
      <trkpt lat="41.621552900" lon="2.520956900">
        <ele>295.70</ele>
        <time>2012-12-16T08:14:52Z</time>
      </trkpt>
      <trkpt lat="41.621430500" lon="2.520944300">
        <ele>296.20</ele>
        <time>2012-12-16T08:14:59Z</time>
      </trkpt>
      <trkpt lat="41.621302700" lon="2.520975300">
        <ele>296.70</ele>
        <time>2012-12-16T08:15:06Z</time>
      </trkpt>
      <trkpt lat="41.621275800" lon="2.520990200">
        <ele>296.70</ele>
        <time>2012-12-16T08:15:08Z</time>
      </trkpt>
      <trkpt lat="41.621198700" lon="2.521002100">
        <ele>297.20</ele>
        <time>2012-12-16T08:15:13Z</time>
      </trkpt>
      <trkpt lat="41.621154300" lon="2.521028600">
        <ele>298.10</ele>
        <time>2012-12-16T08:15:16Z</time>
      </trkpt>
      <trkpt lat="41.621194900" lon="2.521119000">
        <ele>299.10</ele>
        <time>2012-12-16T08:15:23Z</time>
      </trkpt>
      <trkpt lat="41.621205500" lon="2.521112600">
        <ele>299.10</ele>
        <time>2012-12-16T08:15:25Z</time>
      </trkpt>
      <trkpt lat="41.621254700" lon="2.521093300">
        <ele>300.10</ele>
        <time>2012-12-16T08:15:29Z</time>
      </trkpt>
      <trkpt lat="41.621357400" lon="2.521194900">
        <ele>302.50</ele>
        <time>2012-12-16T08:15:39Z</time>
      </trkpt>
      <trkpt lat="41.621380700" lon="2.521253500">
        <ele>303.00</ele>
        <time>2012-12-16T08:15:41Z</time>
      </trkpt>
      <trkpt lat="41.621464600" lon="2.521391600">
        <ele>305.40</ele>
        <time>2012-12-16T08:15:51Z</time>
      </trkpt>
      <trkpt lat="41.621560800" lon="2.521522000">
        <ele>306.80</ele>
        <time>2012-12-16T08:16:00Z</time>
      </trkpt>
      <trkpt lat="41.621630500" lon="2.521631700">
        <ele>308.20</ele>
        <time>2012-12-16T08:16:07Z</time>
      </trkpt>
      <trkpt lat="41.621713900" lon="2.521777100">
        <ele>309.70</ele>
        <time>2012-12-16T08:16:16Z</time>
      </trkpt>
      <trkpt lat="41.621752800" lon="2.521898200">
        <ele>310.60</ele>
        <time>2012-12-16T08:16:23Z</time>
      </trkpt>
      <trkpt lat="41.621798300" lon="2.522006300">
        <ele>312.10</ele>
        <time>2012-12-16T08:16:29Z</time>
      </trkpt>
      <trkpt lat="41.621860800" lon="2.522152500">
        <ele>314.00</ele>
        <time>2012-12-16T08:16:38Z</time>
      </trkpt>
      <trkpt lat="41.621906500" lon="2.522260900">
        <ele>315.00</ele>
        <time>2012-12-16T08:16:43Z</time>
      </trkpt>
      <trkpt lat="41.621963200" lon="2.522291500">
        <ele>315.50</ele>
        <time>2012-12-16T08:16:47Z</time>
      </trkpt>
      <trkpt lat="41.621984200" lon="2.522156800">
        <ele>316.90</ele>
        <time>2012-12-16T08:16:56Z</time>
      </trkpt>
      <trkpt lat="41.621976100" lon="2.522139200">
        <ele>316.90</ele>
        <time>2012-12-16T08:16:57Z</time>
      </trkpt>
      <trkpt lat="41.621966600" lon="2.522077000">
        <ele>317.90</ele>
        <time>2012-12-16T08:17:01Z</time>
      </trkpt>
      <trkpt lat="41.621988500" lon="2.521927800">
        <ele>319.30</ele>
        <time>2012-12-16T08:17:08Z</time>
      </trkpt>
      <trkpt lat="41.621990700" lon="2.521909200">
        <ele>319.30</ele>
        <time>2012-12-16T08:17:10Z</time>
      </trkpt>
      <trkpt lat="41.622007700" lon="2.521796700">
        <ele>319.80</ele>
        <time>2012-12-16T08:17:15Z</time>
      </trkpt>
      <trkpt lat="41.622065600" lon="2.521598800">
        <ele>321.20</ele>
        <time>2012-12-16T08:17:25Z</time>
      </trkpt>
      <trkpt lat="41.622161200" lon="2.521535600">
        <ele>322.70</ele>
        <time>2012-12-16T08:17:34Z</time>
      </trkpt>
      <trkpt lat="41.622274700" lon="2.521592500">
        <ele>323.60</ele>
        <time>2012-12-16T08:17:43Z</time>
      </trkpt>
      <trkpt lat="41.622391600" lon="2.521701600">
        <ele>325.10</ele>
        <time>2012-12-16T08:17:51Z</time>
      </trkpt>
      <trkpt lat="41.622523200" lon="2.521801500">
        <ele>327.00</ele>
        <time>2012-12-16T08:18:00Z</time>
      </trkpt>
      <trkpt lat="41.622676400" lon="2.521905800">
        <ele>328.90</ele>
        <time>2012-12-16T08:18:11Z</time>
      </trkpt>
      <trkpt lat="41.622816900" lon="2.521908000">
        <ele>329.90</ele>
        <time>2012-12-16T08:18:19Z</time>
      </trkpt>
      <trkpt lat="41.622956400" lon="2.521879300">
        <ele>331.30</ele>
        <time>2012-12-16T08:18:26Z</time>
      </trkpt>
      <trkpt lat="41.623091600" lon="2.521832500">
        <ele>332.30</ele>
        <time>2012-12-16T08:18:35Z</time>
      </trkpt>
      <trkpt lat="41.623212900" lon="2.521844600">
        <ele>333.70</ele>
        <time>2012-12-16T08:18:42Z</time>
      </trkpt>
      <trkpt lat="41.623269800" lon="2.521899300">
        <ele>333.70</ele>
        <time>2012-12-16T08:18:47Z</time>
      </trkpt>
      <trkpt lat="41.623345800" lon="2.521990500">
        <ele>334.20</ele>
        <time>2012-12-16T08:18:52Z</time>
      </trkpt>
      <trkpt lat="41.623462000" lon="2.522140000">
        <ele>335.20</ele>
        <time>2012-12-16T08:19:01Z</time>
      </trkpt>
      <trkpt lat="41.623588800" lon="2.522244900">
        <ele>336.10</ele>
        <time>2012-12-16T08:19:10Z</time>
      </trkpt>
      <trkpt lat="41.623738900" lon="2.522352100">
        <ele>336.60</ele>
        <time>2012-12-16T08:19:17Z</time>
      </trkpt>
      <trkpt lat="41.623893900" lon="2.522483900">
        <ele>337.60</ele>
        <time>2012-12-16T08:19:25Z</time>
      </trkpt>
      <trkpt lat="41.624015100" lon="2.522626300">
        <ele>338.00</ele>
        <time>2012-12-16T08:19:32Z</time>
      </trkpt>
      <trkpt lat="41.624113500" lon="2.522844100">
        <ele>338.50</ele>
        <time>2012-12-16T08:19:41Z</time>
      </trkpt>
      <trkpt lat="41.624201900" lon="2.523079900">
        <ele>339.00</ele>
        <time>2012-12-16T08:19:50Z</time>
      </trkpt>
      <trkpt lat="41.624314700" lon="2.523501600">
        <ele>339.00</ele>
        <time>2012-12-16T08:20:04Z</time>
      </trkpt>
      <trkpt lat="41.624375800" lon="2.523658600">
        <ele>340.40</ele>
        <time>2012-12-16T08:20:11Z</time>
      </trkpt>
      <trkpt lat="41.624444500" lon="2.523806300">
        <ele>341.40</ele>
        <time>2012-12-16T08:20:18Z</time>
      </trkpt>
      <trkpt lat="41.624533800" lon="2.523990100">
        <ele>342.40</ele>
        <time>2012-12-16T08:20:26Z</time>
      </trkpt>
      <trkpt lat="41.624619500" lon="2.524201400">
        <ele>344.30</ele>
        <time>2012-12-16T08:20:35Z</time>
      </trkpt>
      <trkpt lat="41.624682100" lon="2.524367200">
        <ele>345.20</ele>
        <time>2012-12-16T08:20:42Z</time>
      </trkpt>
      <trkpt lat="41.624764000" lon="2.524589300">
        <ele>346.20</ele>
        <time>2012-12-16T08:20:51Z</time>
      </trkpt>
      <trkpt lat="41.624846700" lon="2.524824000">
        <ele>346.70</ele>
        <time>2012-12-16T08:21:01Z</time>
      </trkpt>
      <trkpt lat="41.624911600" lon="2.525025000">
        <ele>347.60</ele>
        <time>2012-12-16T08:21:10Z</time>
      </trkpt>
      <trkpt lat="41.625052700" lon="2.525209100">
        <ele>348.10</ele>
        <time>2012-12-16T08:21:19Z</time>
      </trkpt>
      <trkpt lat="41.625241600" lon="2.525426600">
        <ele>348.10</ele>
        <time>2012-12-16T08:21:34Z</time>
      </trkpt>
      <trkpt lat="41.625247500" lon="2.525438900">
        <ele>347.60</ele>
        <time>2012-12-16T08:21:48Z</time>
      </trkpt>
      <trkpt lat="41.625261300" lon="2.525455500">
        <ele>347.60</ele>
        <time>2012-12-16T08:22:13Z</time>
      </trkpt>
      <trkpt lat="41.625254500" lon="2.525465500">
        <ele>347.60</ele>
        <time>2012-12-16T08:22:35Z</time>
      </trkpt>
      <trkpt lat="41.625248200" lon="2.525455100">
        <ele>347.60</ele>
        <time>2012-12-16T08:22:53Z</time>
      </trkpt>
      <trkpt lat="41.625242800" lon="2.525433200">
        <ele>347.60</ele>
        <time>2012-12-16T08:23:15Z</time>
      </trkpt>
      <trkpt lat="41.625247600" lon="2.525443600">
        <ele>347.60</ele>
        <time>2012-12-16T08:23:19Z</time>
      </trkpt>
      <trkpt lat="41.625292700" lon="2.525518000">
        <ele>348.10</ele>
        <time>2012-12-16T08:23:24Z</time>
      </trkpt>
      <trkpt lat="41.625397100" lon="2.525701700">
        <ele>348.60</ele>
        <time>2012-12-16T08:23:33Z</time>
      </trkpt>
      <trkpt lat="41.625550000" lon="2.525951500">
        <ele>348.60</ele>
        <time>2012-12-16T08:23:42Z</time>
      </trkpt>
      <trkpt lat="41.625803300" lon="2.526195400">
        <ele>348.60</ele>
        <time>2012-12-16T08:23:50Z</time>
      </trkpt>
      <trkpt lat="41.626051200" lon="2.526395200">
        <ele>348.10</ele>
        <time>2012-12-16T08:23:59Z</time>
      </trkpt>
      <trkpt lat="41.626186000" lon="2.526569600">
        <ele>348.60</ele>
        <time>2012-12-16T08:24:04Z</time>
      </trkpt>
      <trkpt lat="41.626302800" lon="2.526793800">
        <ele>349.60</ele>
        <time>2012-12-16T08:24:11Z</time>
      </trkpt>
      <trkpt lat="41.626335300" lon="2.526928800">
        <ele>350.10</ele>
        <time>2012-12-16T08:24:16Z</time>
      </trkpt>
      <trkpt lat="41.626387700" lon="2.527011000">
        <ele>349.60</ele>
        <time>2012-12-16T08:24:20Z</time>
      </trkpt>
      <trkpt lat="41.626418800" lon="2.527043800">
        <ele>349.60</ele>
        <time>2012-12-16T08:24:22Z</time>
      </trkpt>
      <trkpt lat="41.626427200" lon="2.527130500">
        <ele>351.00</ele>
        <time>2012-12-16T08:24:30Z</time>
      </trkpt>
      <trkpt lat="41.626422200" lon="2.527150500">
        <ele>350.50</ele>
        <time>2012-12-16T08:24:39Z</time>
      </trkpt>
      <trkpt lat="41.626417800" lon="2.527191200">
        <ele>350.50</ele>
        <time>2012-12-16T08:24:41Z</time>
      </trkpt>
      <trkpt lat="41.626468700" lon="2.527322200">
        <ele>351.00</ele>
        <time>2012-12-16T08:24:48Z</time>
      </trkpt>
      <trkpt lat="41.626522100" lon="2.527328700">
        <ele>351.50</ele>
        <time>2012-12-16T08:24:51Z</time>
      </trkpt>
      <trkpt lat="41.626551600" lon="2.527307600">
        <ele>351.50</ele>
        <time>2012-12-16T08:24:53Z</time>
      </trkpt>
      <trkpt lat="41.626690400" lon="2.527293900">
        <ele>353.40</ele>
        <time>2012-12-16T08:25:02Z</time>
      </trkpt>
      <trkpt lat="41.626818800" lon="2.527295300">
        <ele>355.80</ele>
        <time>2012-12-16T08:25:10Z</time>
      </trkpt>
      <trkpt lat="41.626953100" lon="2.527357500">
        <ele>358.20</ele>
        <time>2012-12-16T08:25:19Z</time>
      </trkpt>
      <trkpt lat="41.627028900" lon="2.527397500">
        <ele>359.20</ele>
        <time>2012-12-16T08:25:24Z</time>
      </trkpt>
      <trkpt lat="41.627160200" lon="2.527431400">
        <ele>360.60</ele>
        <time>2012-12-16T08:25:33Z</time>
      </trkpt>
      <trkpt lat="41.627190200" lon="2.527437600">
        <ele>360.60</ele>
        <time>2012-12-16T08:25:35Z</time>
      </trkpt>
      <trkpt lat="41.627266500" lon="2.527475200">
        <ele>361.60</ele>
        <time>2012-12-16T08:25:40Z</time>
      </trkpt>
      <trkpt lat="41.627391900" lon="2.527555400">
        <ele>363.00</ele>
        <time>2012-12-16T08:25:49Z</time>
      </trkpt>
      <trkpt lat="41.627420600" lon="2.527574700">
        <ele>363.00</ele>
        <time>2012-12-16T08:25:50Z</time>
      </trkpt>
      <trkpt lat="41.627565700" lon="2.527684100">
        <ele>364.50</ele>
        <time>2012-12-16T08:26:01Z</time>
      </trkpt>
      <trkpt lat="41.627679100" lon="2.527738000">
        <ele>365.40</ele>
        <time>2012-12-16T08:26:08Z</time>
      </trkpt>
      <trkpt lat="41.627816700" lon="2.527809400">
        <ele>366.40</ele>
        <time>2012-12-16T08:26:17Z</time>
      </trkpt>
      <trkpt lat="41.627961300" lon="2.527878600">
        <ele>367.80</ele>
        <time>2012-12-16T08:26:25Z</time>
      </trkpt>
      <trkpt lat="41.628078400" lon="2.527956400">
        <ele>368.80</ele>
        <time>2012-12-16T08:26:34Z</time>
      </trkpt>
      <trkpt lat="41.628185100" lon="2.528049800">
        <ele>369.80</ele>
        <time>2012-12-16T08:26:41Z</time>
      </trkpt>
      <trkpt lat="41.628315600" lon="2.528158300">
        <ele>371.20</ele>
        <time>2012-12-16T08:26:50Z</time>
      </trkpt>
      <trkpt lat="41.628415600" lon="2.528288500">
        <ele>372.20</ele>
        <time>2012-12-16T08:26:58Z</time>
      </trkpt>
      <trkpt lat="41.628524500" lon="2.528420500">
        <ele>373.10</ele>
        <time>2012-12-16T08:27:07Z</time>
      </trkpt>
      <trkpt lat="41.628625600" lon="2.528555300">
        <ele>373.60</ele>
        <time>2012-12-16T08:27:14Z</time>
      </trkpt>
      <trkpt lat="41.628658200" lon="2.528595100">
        <ele>373.60</ele>
        <time>2012-12-16T08:27:16Z</time>
      </trkpt>
      <trkpt lat="41.628766000" lon="2.528820000">
        <ele>373.60</ele>
        <time>2012-12-16T08:27:24Z</time>
      </trkpt>
      <trkpt lat="41.628860700" lon="2.529012700">
        <ele>373.60</ele>
        <time>2012-12-16T08:27:33Z</time>
      </trkpt>
      <trkpt lat="41.628954300" lon="2.529249700">
        <ele>373.60</ele>
        <time>2012-12-16T08:27:40Z</time>
      </trkpt>
      <trkpt lat="41.629090500" lon="2.529512600">
        <ele>373.60</ele>
        <time>2012-12-16T08:27:49Z</time>
      </trkpt>
      <trkpt lat="41.629225800" lon="2.529785700">
        <ele>374.10</ele>
        <time>2012-12-16T08:27:58Z</time>
      </trkpt>
      <trkpt lat="41.629294800" lon="2.529972600">
        <ele>375.50</ele>
        <time>2012-12-16T08:28:05Z</time>
      </trkpt>
      <trkpt lat="41.629363600" lon="2.530249100">
        <ele>377.50</ele>
        <time>2012-12-16T08:28:15Z</time>
      </trkpt>
      <trkpt lat="41.629381600" lon="2.530498900">
        <ele>379.40</ele>
        <time>2012-12-16T08:28:24Z</time>
      </trkpt>
      <trkpt lat="41.629384100" lon="2.530705300">
        <ele>380.80</ele>
        <time>2012-12-16T08:28:31Z</time>
      </trkpt>
      <trkpt lat="41.629373100" lon="2.530944400">
        <ele>382.30</ele>
        <time>2012-12-16T08:28:41Z</time>
      </trkpt>
      <trkpt lat="41.629456400" lon="2.531169500">
        <ele>382.30</ele>
        <time>2012-12-16T08:28:50Z</time>
      </trkpt>
      <trkpt lat="41.629636400" lon="2.531308300">
        <ele>381.30</ele>
        <time>2012-12-16T08:28:57Z</time>
      </trkpt>
      <trkpt lat="41.629908200" lon="2.531484500">
        <ele>379.90</ele>
        <time>2012-12-16T08:29:02Z</time>
      </trkpt>
      <trkpt lat="41.630253700" lon="2.531621000">
        <ele>377.90</ele>
        <time>2012-12-16T08:29:07Z</time>
      </trkpt>
      <trkpt lat="41.630554300" lon="2.531590600">
        <ele>376.50</ele>
        <time>2012-12-16T08:29:11Z</time>
      </trkpt>
      <trkpt lat="41.630834600" lon="2.531463100">
        <ele>376.00</ele>
        <time>2012-12-16T08:29:16Z</time>
      </trkpt>
      <trkpt lat="41.631170000" lon="2.531469300">
        <ele>375.50</ele>
        <time>2012-12-16T08:29:21Z</time>
      </trkpt>
      <trkpt lat="41.631396500" lon="2.531458500">
        <ele>375.50</ele>
        <time>2012-12-16T08:29:25Z</time>
      </trkpt>
      <trkpt lat="41.631522100" lon="2.531287000">
        <ele>374.60</ele>
        <time>2012-12-16T08:29:28Z</time>
      </trkpt>
      <trkpt lat="41.631757400" lon="2.530888300">
        <ele>372.60</ele>
        <time>2012-12-16T08:29:35Z</time>
      </trkpt>
      <trkpt lat="41.631997400" lon="2.530508000">
        <ele>370.70</ele>
        <time>2012-12-16T08:29:42Z</time>
      </trkpt>
      <trkpt lat="41.632184800" lon="2.530635900">
        <ele>368.80</ele>
        <time>2012-12-16T08:29:47Z</time>
      </trkpt>
      <trkpt lat="41.632467800" lon="2.530930000">
        <ele>367.40</ele>
        <time>2012-12-16T08:29:53Z</time>
      </trkpt>
      <trkpt lat="41.632800800" lon="2.531308000">
        <ele>366.40</ele>
        <time>2012-12-16T08:30:01Z</time>
      </trkpt>
      <trkpt lat="41.633063300" lon="2.531693200">
        <ele>365.90</ele>
        <time>2012-12-16T08:30:08Z</time>
      </trkpt>
      <trkpt lat="41.633174300" lon="2.531895900">
        <ele>367.80</ele>
        <time>2012-12-16T08:30:15Z</time>
      </trkpt>
      <trkpt lat="41.633214100" lon="2.532135200">
        <ele>369.80</ele>
        <time>2012-12-16T08:30:22Z</time>
      </trkpt>
      <trkpt lat="41.633212400" lon="2.532346800">
        <ele>371.70</ele>
        <time>2012-12-16T08:30:29Z</time>
      </trkpt>
      <trkpt lat="41.633229500" lon="2.532585500">
        <ele>374.60</ele>
        <time>2012-12-16T08:30:38Z</time>
      </trkpt>
      <trkpt lat="41.633257500" lon="2.532709300">
        <ele>376.50</ele>
        <time>2012-12-16T08:30:43Z</time>
      </trkpt>
      <trkpt lat="41.633377200" lon="2.532897400">
        <ele>376.00</ele>
        <time>2012-12-16T08:30:48Z</time>
      </trkpt>
      <trkpt lat="41.633520400" lon="2.533092500">
        <ele>371.70</ele>
        <time>2012-12-16T08:30:52Z</time>
      </trkpt>
      <trkpt lat="41.633682200" lon="2.533344600">
        <ele>367.80</ele>
        <time>2012-12-16T08:30:57Z</time>
      </trkpt>
      <trkpt lat="41.633736200" lon="2.533420500">
        <ele>367.40</ele>
        <time>2012-12-16T08:30:57Z</time>
      </trkpt>
      <trkpt lat="41.633973400" lon="2.533585000">
        <ele>368.30</ele>
        <time>2012-12-16T08:31:02Z</time>
      </trkpt>
      <trkpt lat="41.634055800" lon="2.533542900">
        <ele>367.80</ele>
        <time>2012-12-16T08:31:06Z</time>
      </trkpt>
      <trkpt lat="41.634343800" lon="2.533466100">
        <ele>365.90</ele>
        <time>2012-12-16T08:31:14Z</time>
      </trkpt>
      <trkpt lat="41.634485900" lon="2.533508500">
        <ele>364.00</ele>
        <time>2012-12-16T08:31:18Z</time>
      </trkpt>
      <trkpt lat="41.634658300" lon="2.533377100">
        <ele>363.00</ele>
        <time>2012-12-16T08:31:23Z</time>
      </trkpt>
      <trkpt lat="41.634676500" lon="2.533097300">
        <ele>361.60</ele>
        <time>2012-12-16T08:31:28Z</time>
      </trkpt>
      <trkpt lat="41.634649100" lon="2.532984000">
        <ele>360.60</ele>
        <time>2012-12-16T08:31:30Z</time>
      </trkpt>
      <trkpt lat="41.634626400" lon="2.532717500">
        <ele>358.70</ele>
        <time>2012-12-16T08:31:35Z</time>
      </trkpt>
      <trkpt lat="41.634608600" lon="2.532419600">
        <ele>356.80</ele>
        <time>2012-12-16T08:31:39Z</time>
      </trkpt>
      <trkpt lat="41.634695300" lon="2.532114000">
        <ele>356.30</ele>
        <time>2012-12-16T08:31:44Z</time>
      </trkpt>
      <trkpt lat="41.634838600" lon="2.531908300">
        <ele>357.80</ele>
        <time>2012-12-16T08:31:51Z</time>
      </trkpt>
      <trkpt lat="41.634983400" lon="2.531812600">
        <ele>360.60</ele>
        <time>2012-12-16T08:31:58Z</time>
      </trkpt>
      <trkpt lat="41.635001900" lon="2.531817700">
        <ele>360.60</ele>
        <time>2012-12-16T08:32:00Z</time>
      </trkpt>
      <trkpt lat="41.635155200" lon="2.531970100">
        <ele>363.00</ele>
        <time>2012-12-16T08:32:07Z</time>
      </trkpt>
      <trkpt lat="41.635326500" lon="2.532154300">
        <ele>364.00</ele>
        <time>2012-12-16T08:32:17Z</time>
      </trkpt>
      <trkpt lat="41.635481100" lon="2.532192500">
        <ele>364.00</ele>
        <time>2012-12-16T08:32:22Z</time>
      </trkpt>
      <trkpt lat="41.635538400" lon="2.532153800">
        <ele>363.50</ele>
        <time>2012-12-16T08:32:24Z</time>
      </trkpt>
      <trkpt lat="41.635583800" lon="2.531905400">
        <ele>363.50</ele>
        <time>2012-12-16T08:32:31Z</time>
      </trkpt>
      <trkpt lat="41.635628400" lon="2.531639200">
        <ele>364.00</ele>
        <time>2012-12-16T08:32:40Z</time>
      </trkpt>
      <trkpt lat="41.635667900" lon="2.531423000">
        <ele>365.90</ele>
        <time>2012-12-16T08:32:47Z</time>
      </trkpt>
      <trkpt lat="41.635711700" lon="2.531212100">
        <ele>368.30</ele>
        <time>2012-12-16T08:32:57Z</time>
      </trkpt>
      <trkpt lat="41.635752300" lon="2.531056900">
        <ele>369.30</ele>
        <time>2012-12-16T08:33:04Z</time>
      </trkpt>
      <trkpt lat="41.635863300" lon="2.530946400">
        <ele>370.70</ele>
        <time>2012-12-16T08:33:11Z</time>
      </trkpt>
      <trkpt lat="41.636178600" lon="2.530878600">
        <ele>373.10</ele>
        <time>2012-12-16T08:33:29Z</time>
      </trkpt>
      <trkpt lat="41.636295400" lon="2.530946200">
        <ele>372.60</ele>
        <time>2012-12-16T08:33:34Z</time>
      </trkpt>
      <trkpt lat="41.636347300" lon="2.531176500">
        <ele>372.20</ele>
        <time>2012-12-16T08:33:41Z</time>
      </trkpt>
      <trkpt lat="41.636348000" lon="2.531415300">
        <ele>372.60</ele>
        <time>2012-12-16T08:33:49Z</time>
      </trkpt>
      <trkpt lat="41.636369100" lon="2.531688200">
        <ele>372.20</ele>
        <time>2012-12-16T08:33:56Z</time>
      </trkpt>
      <trkpt lat="41.636425000" lon="2.531898500">
        <ele>372.20</ele>
        <time>2012-12-16T08:34:02Z</time>
      </trkpt>
      <trkpt lat="41.636499300" lon="2.532059000">
        <ele>372.20</ele>
        <time>2012-12-16T08:34:07Z</time>
      </trkpt>
      <trkpt lat="41.636555800" lon="2.532331700">
        <ele>372.60</ele>
        <time>2012-12-16T08:34:16Z</time>
      </trkpt>
      <trkpt lat="41.636486700" lon="2.532557400">
        <ele>372.60</ele>
        <time>2012-12-16T08:34:23Z</time>
      </trkpt>
      <trkpt lat="41.636450200" lon="2.532790200">
        <ele>371.70</ele>
        <time>2012-12-16T08:34:28Z</time>
      </trkpt>
      <trkpt lat="41.636538700" lon="2.532933500">
        <ele>371.70</ele>
        <time>2012-12-16T08:34:33Z</time>
      </trkpt>
      <trkpt lat="41.636707300" lon="2.533132300">
        <ele>371.70</ele>
        <time>2012-12-16T08:34:40Z</time>
      </trkpt>
      <trkpt lat="41.636753200" lon="2.533373100">
        <ele>372.20</ele>
        <time>2012-12-16T08:34:47Z</time>
      </trkpt>
      <trkpt lat="41.636704600" lon="2.533629800">
        <ele>371.70</ele>
        <time>2012-12-16T08:34:54Z</time>
      </trkpt>
      <trkpt lat="41.636610400" lon="2.533888900">
        <ele>371.70</ele>
        <time>2012-12-16T08:35:03Z</time>
      </trkpt>
      <trkpt lat="41.636593800" lon="2.533960100">
        <ele>371.70</ele>
        <time>2012-12-16T08:35:04Z</time>
      </trkpt>
      <trkpt lat="41.636696800" lon="2.534129200">
        <ele>371.70</ele>
        <time>2012-12-16T08:35:11Z</time>
      </trkpt>
      <trkpt lat="41.636755300" lon="2.534150800">
        <ele>371.70</ele>
        <time>2012-12-16T08:35:13Z</time>
      </trkpt>
      <trkpt lat="41.637031400" lon="2.534313800">
        <ele>369.80</ele>
        <time>2012-12-16T08:35:20Z</time>
      </trkpt>
      <trkpt lat="41.637305600" lon="2.534520600">
        <ele>368.80</ele>
        <time>2012-12-16T08:35:25Z</time>
      </trkpt>
      <trkpt lat="41.637454000" lon="2.534580600">
        <ele>368.30</ele>
        <time>2012-12-16T08:35:29Z</time>
      </trkpt>
      <trkpt lat="41.637641100" lon="2.534699600">
        <ele>367.80</ele>
        <time>2012-12-16T08:35:32Z</time>
      </trkpt>
      <trkpt lat="41.637765800" lon="2.534847600">
        <ele>366.40</ele>
        <time>2012-12-16T08:35:36Z</time>
      </trkpt>
      <trkpt lat="41.637793300" lon="2.534883200">
        <ele>365.90</ele>
        <time>2012-12-16T08:35:36Z</time>
      </trkpt>
      <trkpt lat="41.637830300" lon="2.534963900">
        <ele>365.90</ele>
        <time>2012-12-16T08:35:43Z</time>
      </trkpt>
      <trkpt lat="41.637835200" lon="2.534947900">
        <ele>365.40</ele>
        <time>2012-12-16T08:35:48Z</time>
      </trkpt>
      <trkpt lat="41.637879000" lon="2.534930300">
        <ele>365.00</ele>
        <time>2012-12-16T08:35:55Z</time>
      </trkpt>
      <trkpt lat="41.637877500" lon="2.534917200">
        <ele>365.00</ele>
        <time>2012-12-16T08:36:02Z</time>
      </trkpt>
      <trkpt lat="41.637866200" lon="2.534889200">
        <ele>365.00</ele>
        <time>2012-12-16T08:36:26Z</time>
      </trkpt>
      <trkpt lat="41.637865400" lon="2.534893200">
        <ele>365.00</ele>
        <time>2012-12-16T08:36:45Z</time>
      </trkpt>
      <trkpt lat="41.637880100" lon="2.534931100">
        <ele>364.50</ele>
        <time>2012-12-16T08:37:01Z</time>
      </trkpt>
      <trkpt lat="41.637893200" lon="2.534952700">
        <ele>365.00</ele>
        <time>2012-12-16T08:37:29Z</time>
      </trkpt>
      <trkpt lat="41.637890700" lon="2.534943400">
        <ele>364.50</ele>
        <time>2012-12-16T08:37:52Z</time>
      </trkpt>
      <trkpt lat="41.637885000" lon="2.534928300">
        <ele>364.50</ele>
        <time>2012-12-16T08:38:05Z</time>
      </trkpt>
      <trkpt lat="41.637877200" lon="2.534919000">
        <ele>364.50</ele>
        <time>2012-12-16T08:38:25Z</time>
      </trkpt>
      <trkpt lat="41.637885800" lon="2.534932400">
        <ele>364.50</ele>
        <time>2012-12-16T08:38:37Z</time>
      </trkpt>
      <trkpt lat="41.637948000" lon="2.534916700">
        <ele>364.50</ele>
        <time>2012-12-16T08:38:44Z</time>
      </trkpt>
      <trkpt lat="41.638110800" lon="2.534781400">
        <ele>363.50</ele>
        <time>2012-12-16T08:38:49Z</time>
      </trkpt>
      <trkpt lat="41.638148500" lon="2.534743900">
        <ele>363.50</ele>
        <time>2012-12-16T08:38:49Z</time>
      </trkpt>
      <trkpt lat="41.638230600" lon="2.534675400">
        <ele>363.00</ele>
        <time>2012-12-16T08:38:51Z</time>
      </trkpt>
      <trkpt lat="41.638493600" lon="2.534643500">
        <ele>362.50</ele>
        <time>2012-12-16T08:38:58Z</time>
      </trkpt>
      <trkpt lat="41.638589900" lon="2.534691100">
        <ele>362.50</ele>
        <time>2012-12-16T08:39:01Z</time>
      </trkpt>
      <trkpt lat="41.638898300" lon="2.534865600">
        <ele>361.60</ele>
        <time>2012-12-16T08:39:12Z</time>
      </trkpt>
      <trkpt lat="41.639071900" lon="2.534952700">
        <ele>362.10</ele>
        <time>2012-12-16T08:39:19Z</time>
      </trkpt>
      <trkpt lat="41.639203600" lon="2.534943100">
        <ele>362.50</ele>
        <time>2012-12-16T08:39:26Z</time>
      </trkpt>
      <trkpt lat="41.639342400" lon="2.534977500">
        <ele>364.50</ele>
        <time>2012-12-16T08:39:34Z</time>
      </trkpt>
      <trkpt lat="41.639375200" lon="2.534984300">
        <ele>365.00</ele>
        <time>2012-12-16T08:39:36Z</time>
      </trkpt>
      <trkpt lat="41.639501200" lon="2.534982600">
        <ele>365.90</ele>
        <time>2012-12-16T08:39:43Z</time>
      </trkpt>
      <trkpt lat="41.639664500" lon="2.535004500">
        <ele>367.40</ele>
        <time>2012-12-16T08:39:50Z</time>
      </trkpt>
      <trkpt lat="41.639830900" lon="2.535049800">
        <ele>368.80</ele>
        <time>2012-12-16T08:39:59Z</time>
      </trkpt>
      <trkpt lat="41.640010700" lon="2.535145400">
        <ele>370.20</ele>
        <time>2012-12-16T08:40:09Z</time>
      </trkpt>
      <trkpt lat="41.640177200" lon="2.535264100">
        <ele>371.70</ele>
        <time>2012-12-16T08:40:18Z</time>
      </trkpt>
      <trkpt lat="41.640335000" lon="2.535252100">
        <ele>371.70</ele>
        <time>2012-12-16T08:40:25Z</time>
      </trkpt>
      <trkpt lat="41.640580000" lon="2.535217000">
        <ele>372.20</ele>
        <time>2012-12-16T08:40:35Z</time>
      </trkpt>
      <trkpt lat="41.640739500" lon="2.535229000">
        <ele>373.10</ele>
        <time>2012-12-16T08:40:44Z</time>
      </trkpt>
      <trkpt lat="41.640869100" lon="2.535315600">
        <ele>373.60</ele>
        <time>2012-12-16T08:40:51Z</time>
      </trkpt>
      <trkpt lat="41.641034600" lon="2.535442900">
        <ele>372.60</ele>
        <time>2012-12-16T08:40:56Z</time>
      </trkpt>
      <trkpt lat="41.641123700" lon="2.535622000">
        <ele>373.10</ele>
        <time>2012-12-16T08:41:03Z</time>
      </trkpt>
      <trkpt lat="41.641258400" lon="2.535943200">
        <ele>374.60</ele>
        <time>2012-12-16T08:41:14Z</time>
      </trkpt>
      <trkpt lat="41.641322200" lon="2.536122000">
        <ele>376.00</ele>
        <time>2012-12-16T08:41:21Z</time>
      </trkpt>
      <trkpt lat="41.641374800" lon="2.536344900">
        <ele>377.90</ele>
        <time>2012-12-16T08:41:29Z</time>
      </trkpt>
      <trkpt lat="41.641425000" lon="2.536562500">
        <ele>378.90</ele>
        <time>2012-12-16T08:41:38Z</time>
      </trkpt>
      <trkpt lat="41.641529200" lon="2.536748000">
        <ele>380.30</ele>
        <time>2012-12-16T08:41:47Z</time>
      </trkpt>
      <trkpt lat="41.641624700" lon="2.536915800">
        <ele>381.80</ele>
        <time>2012-12-16T08:41:54Z</time>
      </trkpt>
      <trkpt lat="41.641660700" lon="2.537048600">
        <ele>381.80</ele>
        <time>2012-12-16T08:41:59Z</time>
      </trkpt>
      <trkpt lat="41.641596500" lon="2.537319500">
        <ele>381.30</ele>
        <time>2012-12-16T08:42:06Z</time>
      </trkpt>
      <trkpt lat="41.641618300" lon="2.537637300">
        <ele>381.80</ele>
        <time>2012-12-16T08:42:16Z</time>
      </trkpt>
      <trkpt lat="41.641659000" lon="2.537976200">
        <ele>383.20</ele>
        <time>2012-12-16T08:42:25Z</time>
      </trkpt>
      <trkpt lat="41.641766600" lon="2.538204200">
        <ele>383.20</ele>
        <time>2012-12-16T08:42:32Z</time>
      </trkpt>
      <trkpt lat="41.641872100" lon="2.538363300">
        <ele>382.70</ele>
        <time>2012-12-16T08:42:37Z</time>
      </trkpt>
      <trkpt lat="41.642161800" lon="2.538530700">
        <ele>382.30</ele>
        <time>2012-12-16T08:42:44Z</time>
      </trkpt>
      <trkpt lat="41.642366100" lon="2.538540400">
        <ele>383.20</ele>
        <time>2012-12-16T08:42:51Z</time>
      </trkpt>
      <trkpt lat="41.642535900" lon="2.538618100">
        <ele>384.20</ele>
        <time>2012-12-16T08:42:58Z</time>
      </trkpt>
      <trkpt lat="41.642713600" lon="2.538785000">
        <ele>383.70</ele>
        <time>2012-12-16T08:43:05Z</time>
      </trkpt>
      <trkpt lat="41.642918200" lon="2.538957100">
        <ele>382.70</ele>
        <time>2012-12-16T08:43:12Z</time>
      </trkpt>
      <trkpt lat="41.643066400" lon="2.539036900">
        <ele>381.30</ele>
        <time>2012-12-16T08:43:16Z</time>
      </trkpt>
      <trkpt lat="41.643149000" lon="2.539071500">
        <ele>380.30</ele>
        <time>2012-12-16T08:43:17Z</time>
      </trkpt>
      <trkpt lat="41.643186900" lon="2.539092200">
        <ele>379.90</ele>
        <time>2012-12-16T08:43:19Z</time>
      </trkpt>
      <trkpt lat="41.643362400" lon="2.539283900">
        <ele>377.50</ele>
        <time>2012-12-16T08:43:24Z</time>
      </trkpt>
      <trkpt lat="41.643465000" lon="2.539425100">
        <ele>375.50</ele>
        <time>2012-12-16T08:43:26Z</time>
      </trkpt>
      <trkpt lat="41.643555100" lon="2.539484300">
        <ele>374.10</ele>
        <time>2012-12-16T08:43:28Z</time>
      </trkpt>
      <trkpt lat="41.643650900" lon="2.539533700">
        <ele>373.10</ele>
        <time>2012-12-16T08:43:31Z</time>
      </trkpt>
      <trkpt lat="41.643806700" lon="2.539620000">
        <ele>371.70</ele>
        <time>2012-12-16T08:43:33Z</time>
      </trkpt>
      <trkpt lat="41.643859200" lon="2.539654800">
        <ele>371.20</ele>
        <time>2012-12-16T08:43:35Z</time>
      </trkpt>
      <trkpt lat="41.643988000" lon="2.539789200">
        <ele>369.30</ele>
        <time>2012-12-16T08:43:38Z</time>
      </trkpt>
      <trkpt lat="41.644157300" lon="2.540000600">
        <ele>365.90</ele>
        <time>2012-12-16T08:43:42Z</time>
      </trkpt>
      <trkpt lat="41.644242200" lon="2.540130200">
        <ele>365.00</ele>
        <time>2012-12-16T08:43:43Z</time>
      </trkpt>
      <trkpt lat="41.644325900" lon="2.540445200">
        <ele>360.60</ele>
        <time>2012-12-16T08:43:49Z</time>
      </trkpt>
      <trkpt lat="41.644440700" lon="2.540460100">
        <ele>358.70</ele>
        <time>2012-12-16T08:43:52Z</time>
      </trkpt>
      <trkpt lat="41.644485700" lon="2.540424400">
        <ele>358.20</ele>
        <time>2012-12-16T08:43:52Z</time>
      </trkpt>
      <trkpt lat="41.644564500" lon="2.540233000">
        <ele>356.80</ele>
        <time>2012-12-16T08:43:56Z</time>
      </trkpt>
      <trkpt lat="41.644698200" lon="2.539867900">
        <ele>352.00</ele>
        <time>2012-12-16T08:44:01Z</time>
      </trkpt>
      <trkpt lat="41.644815600" lon="2.539894500">
        <ele>350.50</ele>
        <time>2012-12-16T08:44:03Z</time>
      </trkpt>
      <trkpt lat="41.645103100" lon="2.540049700">
        <ele>348.60</ele>
        <time>2012-12-16T08:44:06Z</time>
      </trkpt>
      <trkpt lat="41.645266600" lon="2.540130700">
        <ele>347.60</ele>
        <time>2012-12-16T08:44:08Z</time>
      </trkpt>
      <trkpt lat="41.645580300" lon="2.540190300">
        <ele>343.30</ele>
        <time>2012-12-16T08:44:13Z</time>
      </trkpt>
      <trkpt lat="41.645601200" lon="2.540209700">
        <ele>342.40</ele>
        <time>2012-12-16T08:44:15Z</time>
      </trkpt>
      <trkpt lat="41.645586900" lon="2.540202100">
        <ele>342.90</ele>
        <time>2012-12-16T08:44:25Z</time>
      </trkpt>
      <trkpt lat="41.645590700" lon="2.540218600">
        <ele>342.90</ele>
        <time>2012-12-16T08:44:43Z</time>
      </trkpt>
      <trkpt lat="41.645611600" lon="2.540232900">
        <ele>342.90</ele>
        <time>2012-12-16T08:44:53Z</time>
      </trkpt>
      <trkpt lat="41.645603600" lon="2.540221400">
        <ele>342.90</ele>
        <time>2012-12-16T08:45:02Z</time>
      </trkpt>
      <trkpt lat="41.645687500" lon="2.540250400">
        <ele>343.30</ele>
        <time>2012-12-16T08:45:07Z</time>
      </trkpt>
      <trkpt lat="41.645924900" lon="2.540406900">
        <ele>346.20</ele>
        <time>2012-12-16T08:45:16Z</time>
      </trkpt>
      <trkpt lat="41.646066900" lon="2.540591900">
        <ele>348.10</ele>
        <time>2012-12-16T08:45:23Z</time>
      </trkpt>
      <trkpt lat="41.646215000" lon="2.540671900">
        <ele>350.50</ele>
        <time>2012-12-16T08:45:30Z</time>
      </trkpt>
      <trkpt lat="41.646364600" lon="2.540737400">
        <ele>353.40</ele>
        <time>2012-12-16T08:45:37Z</time>
      </trkpt>
      <trkpt lat="41.646510000" lon="2.540807400">
        <ele>356.80</ele>
        <time>2012-12-16T08:45:45Z</time>
      </trkpt>
      <trkpt lat="41.646653800" lon="2.540839300">
        <ele>359.20</ele>
        <time>2012-12-16T08:45:52Z</time>
      </trkpt>
      <trkpt lat="41.646757800" lon="2.540827000">
        <ele>361.10</ele>
        <time>2012-12-16T08:45:58Z</time>
      </trkpt>
      <trkpt lat="41.646912100" lon="2.540791100">
        <ele>362.10</ele>
        <time>2012-12-16T08:46:08Z</time>
      </trkpt>
      <trkpt lat="41.647074600" lon="2.540787100">
        <ele>363.00</ele>
        <time>2012-12-16T08:46:17Z</time>
      </trkpt>
      <trkpt lat="41.647261900" lon="2.540785000">
        <ele>364.50</ele>
        <time>2012-12-16T08:46:27Z</time>
      </trkpt>
      <trkpt lat="41.647428500" lon="2.540816600">
        <ele>365.90</ele>
        <time>2012-12-16T08:46:36Z</time>
      </trkpt>
      <trkpt lat="41.647579600" lon="2.540924400">
        <ele>368.80</ele>
        <time>2012-12-16T08:46:46Z</time>
      </trkpt>
      <trkpt lat="41.647704300" lon="2.541028700">
        <ele>370.70</ele>
        <time>2012-12-16T08:46:55Z</time>
      </trkpt>
      <trkpt lat="41.647799300" lon="2.541147000">
        <ele>372.60</ele>
        <time>2012-12-16T08:47:04Z</time>
      </trkpt>
      <trkpt lat="41.647935400" lon="2.541273500">
        <ele>374.60</ele>
        <time>2012-12-16T08:47:14Z</time>
      </trkpt>
      <trkpt lat="41.648047000" lon="2.541299000">
        <ele>376.00</ele>
        <time>2012-12-16T08:47:21Z</time>
      </trkpt>
      <trkpt lat="41.648191300" lon="2.541330600">
        <ele>377.00</ele>
        <time>2012-12-16T08:47:30Z</time>
      </trkpt>
      <trkpt lat="41.648349200" lon="2.541395900">
        <ele>377.90</ele>
        <time>2012-12-16T08:47:39Z</time>
      </trkpt>
      <trkpt lat="41.648523300" lon="2.541415700">
        <ele>379.40</ele>
        <time>2012-12-16T08:47:49Z</time>
      </trkpt>
      <trkpt lat="41.648629500" lon="2.541419700">
        <ele>380.30</ele>
        <time>2012-12-16T08:47:54Z</time>
      </trkpt>
      <trkpt lat="41.648784600" lon="2.541471300">
        <ele>381.30</ele>
        <time>2012-12-16T08:48:03Z</time>
      </trkpt>
      <trkpt lat="41.648948200" lon="2.541588500">
        <ele>382.30</ele>
        <time>2012-12-16T08:48:12Z</time>
      </trkpt>
      <trkpt lat="41.649057000" lon="2.541796100">
        <ele>383.20</ele>
        <time>2012-12-16T08:48:22Z</time>
      </trkpt>
      <trkpt lat="41.649077100" lon="2.542031500">
        <ele>384.20</ele>
        <time>2012-12-16T08:48:31Z</time>
      </trkpt>
      <trkpt lat="41.649071100" lon="2.542230800">
        <ele>384.70</ele>
        <time>2012-12-16T08:48:38Z</time>
      </trkpt>
      <trkpt lat="41.649109700" lon="2.542444100">
        <ele>385.10</ele>
        <time>2012-12-16T08:48:47Z</time>
      </trkpt>
      <trkpt lat="41.649183800" lon="2.542698100">
        <ele>386.60</ele>
        <time>2012-12-16T08:48:55Z</time>
      </trkpt>
      <trkpt lat="41.649263600" lon="2.542880000">
        <ele>387.10</ele>
        <time>2012-12-16T08:49:02Z</time>
      </trkpt>
      <trkpt lat="41.649355600" lon="2.543204600">
        <ele>388.00</ele>
        <time>2012-12-16T08:49:11Z</time>
      </trkpt>
      <trkpt lat="41.649430600" lon="2.543569700">
        <ele>390.00</ele>
        <time>2012-12-16T08:49:21Z</time>
      </trkpt>
      <trkpt lat="41.649456300" lon="2.543827700">
        <ele>391.40</ele>
        <time>2012-12-16T08:49:30Z</time>
      </trkpt>
      <trkpt lat="41.649460200" lon="2.544112700">
        <ele>392.80</ele>
        <time>2012-12-16T08:49:39Z</time>
      </trkpt>
      <trkpt lat="41.649478500" lon="2.544287800">
        <ele>393.30</ele>
        <time>2012-12-16T08:49:47Z</time>
      </trkpt>
      <trkpt lat="41.649483900" lon="2.544295700">
        <ele>393.30</ele>
        <time>2012-12-16T08:50:00Z</time>
      </trkpt>
      <trkpt lat="41.649488900" lon="2.544296500">
        <ele>393.30</ele>
        <time>2012-12-16T08:50:15Z</time>
      </trkpt>
      <trkpt lat="41.649491300" lon="2.544287000">
        <ele>393.30</ele>
        <time>2012-12-16T08:50:54Z</time>
      </trkpt>
      <trkpt lat="41.649474400" lon="2.544288500">
        <ele>393.30</ele>
        <time>2012-12-16T08:51:25Z</time>
      </trkpt>
      <trkpt lat="41.649480100" lon="2.544302300">
        <ele>393.30</ele>
        <time>2012-12-16T08:51:34Z</time>
      </trkpt>
      <trkpt lat="41.649485500" lon="2.544305300">
        <ele>392.80</ele>
        <time>2012-12-16T08:51:46Z</time>
      </trkpt>
      <trkpt lat="41.649494800" lon="2.544314400">
        <ele>392.80</ele>
        <time>2012-12-16T08:52:02Z</time>
      </trkpt>
      <trkpt lat="41.649509600" lon="2.544334000">
        <ele>393.30</ele>
        <time>2012-12-16T08:52:24Z</time>
      </trkpt>
      <trkpt lat="41.649497400" lon="2.544346100">
        <ele>393.30</ele>
        <time>2012-12-16T08:52:42Z</time>
      </trkpt>
      <trkpt lat="41.649494800" lon="2.544363300">
        <ele>392.80</ele>
        <time>2012-12-16T08:52:47Z</time>
      </trkpt>
      <trkpt lat="41.649427500" lon="2.544510500">
        <ele>392.40</ele>
        <time>2012-12-16T08:52:54Z</time>
      </trkpt>
      <trkpt lat="41.649436900" lon="2.544586100">
        <ele>391.90</ele>
        <time>2012-12-16T08:52:56Z</time>
      </trkpt>
      <trkpt lat="41.649522800" lon="2.544801000">
        <ele>390.00</ele>
        <time>2012-12-16T08:53:01Z</time>
      </trkpt>
      <trkpt lat="41.649652700" lon="2.545017900">
        <ele>389.50</ele>
        <time>2012-12-16T08:53:06Z</time>
      </trkpt>
      <trkpt lat="41.649776800" lon="2.545164800">
        <ele>388.50</ele>
        <time>2012-12-16T08:53:11Z</time>
      </trkpt>
      <trkpt lat="41.649938300" lon="2.545166500">
        <ele>388.00</ele>
        <time>2012-12-16T08:53:17Z</time>
      </trkpt>
      <trkpt lat="41.650065300" lon="2.545114400">
        <ele>387.50</ele>
        <time>2012-12-16T08:53:20Z</time>
      </trkpt>
      <trkpt lat="41.650292900" lon="2.545127400">
        <ele>387.10</ele>
        <time>2012-12-16T08:53:25Z</time>
      </trkpt>
      <trkpt lat="41.650365800" lon="2.545227500">
        <ele>386.10</ele>
        <time>2012-12-16T08:53:27Z</time>
      </trkpt>
      <trkpt lat="41.650542300" lon="2.545462200">
        <ele>384.70</ele>
        <time>2012-12-16T08:53:30Z</time>
      </trkpt>
      <trkpt lat="41.650650800" lon="2.545608400">
        <ele>383.70</ele>
        <time>2012-12-16T08:53:32Z</time>
      </trkpt>
      <trkpt lat="41.650901200" lon="2.545919500">
        <ele>380.80</ele>
        <time>2012-12-16T08:53:37Z</time>
      </trkpt>
      <trkpt lat="41.650833600" lon="2.546090700">
        <ele>380.80</ele>
        <time>2012-12-16T08:53:41Z</time>
      </trkpt>
      <trkpt lat="41.650714200" lon="2.546280100">
        <ele>380.80</ele>
        <time>2012-12-16T08:53:46Z</time>
      </trkpt>
      <trkpt lat="41.650746200" lon="2.546445100">
        <ele>379.90</ele>
        <time>2012-12-16T08:53:48Z</time>
      </trkpt>
      <trkpt lat="41.650951500" lon="2.546694700">
        <ele>376.00</ele>
        <time>2012-12-16T08:53:55Z</time>
      </trkpt>
      <trkpt lat="41.651044900" lon="2.546672700">
        <ele>375.00</ele>
        <time>2012-12-16T08:53:57Z</time>
      </trkpt>
      <trkpt lat="41.651325600" lon="2.546657100">
        <ele>373.10</ele>
        <time>2012-12-16T08:54:02Z</time>
      </trkpt>
      <trkpt lat="41.651452700" lon="2.546874800">
        <ele>371.20</ele>
        <time>2012-12-16T08:54:05Z</time>
      </trkpt>
      <trkpt lat="41.651565300" lon="2.547151100">
        <ele>369.30</ele>
        <time>2012-12-16T08:54:07Z</time>
      </trkpt>
      <trkpt lat="41.651849800" lon="2.547396400">
        <ele>365.40</ele>
        <time>2012-12-16T08:54:12Z</time>
      </trkpt>
      <trkpt lat="41.651957000" lon="2.547419500">
        <ele>364.00</ele>
        <time>2012-12-16T08:54:14Z</time>
      </trkpt>
      <trkpt lat="41.652023300" lon="2.547443600">
        <ele>363.00</ele>
        <time>2012-12-16T08:54:16Z</time>
      </trkpt>
      <trkpt lat="41.652052600" lon="2.547563900">
        <ele>363.50</ele>
        <time>2012-12-16T08:54:21Z</time>
      </trkpt>
      <trkpt lat="41.651985500" lon="2.547706700">
        <ele>363.50</ele>
        <time>2012-12-16T08:54:26Z</time>
      </trkpt>
      <trkpt lat="41.651910200" lon="2.547788600">
        <ele>364.50</ele>
        <time>2012-12-16T08:54:31Z</time>
      </trkpt>
      <trkpt lat="41.651743800" lon="2.548027100">
        <ele>366.40</ele>
        <time>2012-12-16T08:54:42Z</time>
      </trkpt>
      <trkpt lat="41.651630000" lon="2.548201400">
        <ele>367.80</ele>
        <time>2012-12-16T08:54:49Z</time>
      </trkpt>
      <trkpt lat="41.651517100" lon="2.548392500">
        <ele>368.30</ele>
        <time>2012-12-16T08:54:56Z</time>
      </trkpt>
      <trkpt lat="41.651462900" lon="2.548667000">
        <ele>369.30</ele>
        <time>2012-12-16T08:55:03Z</time>
      </trkpt>
      <trkpt lat="41.651559800" lon="2.548833100">
        <ele>371.20</ele>
        <time>2012-12-16T08:55:10Z</time>
      </trkpt>
      <trkpt lat="41.651669600" lon="2.548964300">
        <ele>373.10</ele>
        <time>2012-12-16T08:55:20Z</time>
      </trkpt>
      <trkpt lat="41.651681600" lon="2.548999200">
        <ele>373.60</ele>
        <time>2012-12-16T08:55:22Z</time>
      </trkpt>
      <trkpt lat="41.651649800" lon="2.549180900">
        <ele>376.00</ele>
        <time>2012-12-16T08:55:31Z</time>
      </trkpt>
      <trkpt lat="41.651612300" lon="2.549256800">
        <ele>376.50</ele>
        <time>2012-12-16T08:55:34Z</time>
      </trkpt>
      <trkpt lat="41.651515300" lon="2.549453900">
        <ele>377.50</ele>
        <time>2012-12-16T08:55:45Z</time>
      </trkpt>
      <trkpt lat="41.651466100" lon="2.549633400">
        <ele>378.90</ele>
        <time>2012-12-16T08:55:53Z</time>
      </trkpt>
      <trkpt lat="41.651466100" lon="2.549826700">
        <ele>381.30</ele>
        <time>2012-12-16T08:56:02Z</time>
      </trkpt>
      <trkpt lat="41.651544700" lon="2.550025100">
        <ele>383.20</ele>
        <time>2012-12-16T08:56:11Z</time>
      </trkpt>
      <trkpt lat="41.651597900" lon="2.550261100">
        <ele>383.20</ele>
        <time>2012-12-16T08:56:19Z</time>
      </trkpt>
      <trkpt lat="41.651586500" lon="2.550508000">
        <ele>384.20</ele>
        <time>2012-12-16T08:56:28Z</time>
      </trkpt>
      <trkpt lat="41.651546100" lon="2.550729800">
        <ele>385.60</ele>
        <time>2012-12-16T08:56:37Z</time>
      </trkpt>
      <trkpt lat="41.651586800" lon="2.550960300">
        <ele>386.60</ele>
        <time>2012-12-16T08:56:46Z</time>
      </trkpt>
      <trkpt lat="41.651665800" lon="2.551160700">
        <ele>387.50</ele>
        <time>2012-12-16T08:56:54Z</time>
      </trkpt>
      <trkpt lat="41.651752100" lon="2.551350500">
        <ele>388.50</ele>
        <time>2012-12-16T08:57:03Z</time>
      </trkpt>
      <trkpt lat="41.651860800" lon="2.551456800">
        <ele>390.00</ele>
        <time>2012-12-16T08:57:10Z</time>
      </trkpt>
      <trkpt lat="41.651978300" lon="2.551549200">
        <ele>391.90</ele>
        <time>2012-12-16T08:57:19Z</time>
      </trkpt>
      <trkpt lat="41.652134500" lon="2.551637400">
        <ele>393.80</ele>
        <time>2012-12-16T08:57:29Z</time>
      </trkpt>
      <trkpt lat="41.652298000" lon="2.551676600">
        <ele>396.20</ele>
        <time>2012-12-16T08:57:40Z</time>
      </trkpt>
      <trkpt lat="41.652388300" lon="2.551708900">
        <ele>398.10</ele>
        <time>2012-12-16T08:57:47Z</time>
      </trkpt>
      <trkpt lat="41.652522600" lon="2.551776500">
        <ele>400.50</ele>
        <time>2012-12-16T08:57:55Z</time>
      </trkpt>
      <trkpt lat="41.652582100" lon="2.551868300">
        <ele>401.50</ele>
        <time>2012-12-16T08:58:02Z</time>
      </trkpt>
      <trkpt lat="41.652582300" lon="2.551897200">
        <ele>402.00</ele>
        <time>2012-12-16T08:58:04Z</time>
      </trkpt>
      <trkpt lat="41.652568200" lon="2.551918000">
        <ele>402.50</ele>
        <time>2012-12-16T08:58:06Z</time>
      </trkpt>
      <trkpt lat="41.652498500" lon="2.552005100">
        <ele>403.40</ele>
        <time>2012-12-16T08:58:13Z</time>
      </trkpt>
      <trkpt lat="41.652411400" lon="2.552128000">
        <ele>405.30</ele>
        <time>2012-12-16T08:58:21Z</time>
      </trkpt>
      <trkpt lat="41.652327900" lon="2.552271800">
        <ele>406.80</ele>
        <time>2012-12-16T08:58:30Z</time>
      </trkpt>
      <trkpt lat="41.652262200" lon="2.552421500">
        <ele>407.30</ele>
        <time>2012-12-16T08:58:39Z</time>
      </trkpt>
      <trkpt lat="41.652231700" lon="2.552585500">
        <ele>408.70</ele>
        <time>2012-12-16T08:58:47Z</time>
      </trkpt>
      <trkpt lat="41.652223600" lon="2.552744300">
        <ele>410.10</ele>
        <time>2012-12-16T08:58:56Z</time>
      </trkpt>
      <trkpt lat="41.652235400" lon="2.552943300">
        <ele>412.10</ele>
        <time>2012-12-16T08:59:05Z</time>
      </trkpt>
      <trkpt lat="41.652307600" lon="2.553154700">
        <ele>413.50</ele>
        <time>2012-12-16T08:59:17Z</time>
      </trkpt>
      <trkpt lat="41.652388100" lon="2.553314900">
        <ele>415.40</ele>
        <time>2012-12-16T08:59:26Z</time>
      </trkpt>
      <trkpt lat="41.652379700" lon="2.553501000">
        <ele>414.50</ele>
        <time>2012-12-16T08:59:31Z</time>
      </trkpt>
      <trkpt lat="41.652418000" lon="2.553690300">
        <ele>415.00</ele>
        <time>2012-12-16T08:59:38Z</time>
      </trkpt>
      <trkpt lat="41.652501100" lon="2.553856000">
        <ele>416.90</ele>
        <time>2012-12-16T08:59:47Z</time>
      </trkpt>
      <trkpt lat="41.652533200" lon="2.553895600">
        <ele>417.40</ele>
        <time>2012-12-16T08:59:50Z</time>
      </trkpt>
      <trkpt lat="41.652577300" lon="2.553963700">
        <ele>417.40</ele>
        <time>2012-12-16T08:59:54Z</time>
      </trkpt>
      <trkpt lat="41.652663600" lon="2.554133000">
        <ele>418.80</ele>
        <time>2012-12-16T09:00:02Z</time>
      </trkpt>
      <trkpt lat="41.652793900" lon="2.554321400">
        <ele>419.80</ele>
        <time>2012-12-16T09:00:13Z</time>
      </trkpt>
      <trkpt lat="41.652895300" lon="2.554470600">
        <ele>421.20</ele>
        <time>2012-12-16T09:00:23Z</time>
      </trkpt>
      <trkpt lat="41.652997000" lon="2.554580800">
        <ele>422.60</ele>
        <time>2012-12-16T09:00:30Z</time>
      </trkpt>
      <trkpt lat="41.653102500" lon="2.554661300">
        <ele>424.10</ele>
        <time>2012-12-16T09:00:39Z</time>
      </trkpt>
      <trkpt lat="41.653200700" lon="2.554712500">
        <ele>425.50</ele>
        <time>2012-12-16T09:00:46Z</time>
      </trkpt>
      <trkpt lat="41.653330000" lon="2.554765800">
        <ele>427.90</ele>
        <time>2012-12-16T09:00:55Z</time>
      </trkpt>
      <trkpt lat="41.653438200" lon="2.554813200">
        <ele>430.30</ele>
        <time>2012-12-16T09:01:05Z</time>
      </trkpt>
      <trkpt lat="41.653539200" lon="2.554885700">
        <ele>432.70</ele>
        <time>2012-12-16T09:01:14Z</time>
      </trkpt>
      <trkpt lat="41.653580400" lon="2.554949000">
        <ele>433.70</ele>
        <time>2012-12-16T09:01:19Z</time>
      </trkpt>
      <trkpt lat="41.653654700" lon="2.555074000">
        <ele>435.60</ele>
        <time>2012-12-16T09:01:28Z</time>
      </trkpt>
      <trkpt lat="41.653736500" lon="2.555200000">
        <ele>437.50</ele>
        <time>2012-12-16T09:01:38Z</time>
      </trkpt>
      <trkpt lat="41.653827800" lon="2.555247000">
        <ele>439.00</ele>
        <time>2012-12-16T09:01:45Z</time>
      </trkpt>
      <trkpt lat="41.653927700" lon="2.555287700">
        <ele>441.40</ele>
        <time>2012-12-16T09:01:54Z</time>
      </trkpt>
      <trkpt lat="41.653956100" lon="2.555307800">
        <ele>442.30</ele>
        <time>2012-12-16T09:01:57Z</time>
      </trkpt>
      <trkpt lat="41.654055700" lon="2.555415300">
        <ele>444.80</ele>
        <time>2012-12-16T09:02:08Z</time>
      </trkpt>
      <trkpt lat="41.654121200" lon="2.555563400">
        <ele>445.70</ele>
        <time>2012-12-16T09:02:18Z</time>
      </trkpt>
      <trkpt lat="41.654122200" lon="2.555578800">
        <ele>445.70</ele>
        <time>2012-12-16T09:02:20Z</time>
      </trkpt>
      <trkpt lat="41.654107700" lon="2.555633600">
        <ele>446.20</ele>
        <time>2012-12-16T09:02:24Z</time>
      </trkpt>
      <trkpt lat="41.654020500" lon="2.555721400">
        <ele>447.60</ele>
        <time>2012-12-16T09:02:34Z</time>
      </trkpt>
      <trkpt lat="41.653930300" lon="2.555777000">
        <ele>449.10</ele>
        <time>2012-12-16T09:02:43Z</time>
      </trkpt>
      <trkpt lat="41.653878100" lon="2.555811200">
        <ele>449.50</ele>
        <time>2012-12-16T09:02:48Z</time>
      </trkpt>
      <trkpt lat="41.653836600" lon="2.555825400">
        <ele>450.00</ele>
        <time>2012-12-16T09:02:51Z</time>
      </trkpt>
      <trkpt lat="41.653742000" lon="2.555898800">
        <ele>451.50</ele>
        <time>2012-12-16T09:03:00Z</time>
      </trkpt>
      <trkpt lat="41.653649300" lon="2.555952500">
        <ele>452.90</ele>
        <time>2012-12-16T09:03:09Z</time>
      </trkpt>
      <trkpt lat="41.653534500" lon="2.555991700">
        <ele>454.40</ele>
        <time>2012-12-16T09:03:19Z</time>
      </trkpt>
      <trkpt lat="41.653404800" lon="2.555994200">
        <ele>454.40</ele>
        <time>2012-12-16T09:03:26Z</time>
      </trkpt>
      <trkpt lat="41.653273700" lon="2.556016200">
        <ele>454.40</ele>
        <time>2012-12-16T09:03:33Z</time>
      </trkpt>
      <trkpt lat="41.653133500" lon="2.556114700">
        <ele>454.40</ele>
        <time>2012-12-16T09:03:42Z</time>
      </trkpt>
      <trkpt lat="41.652978200" lon="2.556208100">
        <ele>453.90</ele>
        <time>2012-12-16T09:03:49Z</time>
      </trkpt>
      <trkpt lat="41.652824200" lon="2.556337200">
        <ele>452.40</ele>
        <time>2012-12-16T09:03:56Z</time>
      </trkpt>
      <trkpt lat="41.652674300" lon="2.556496300">
        <ele>451.50</ele>
        <time>2012-12-16T09:04:03Z</time>
      </trkpt>
      <trkpt lat="41.652562400" lon="2.556635900">
        <ele>451.50</ele>
        <time>2012-12-16T09:04:12Z</time>
      </trkpt>
      <trkpt lat="41.652382300" lon="2.556810200">
        <ele>451.00</ele>
        <time>2012-12-16T09:04:22Z</time>
      </trkpt>
      <trkpt lat="41.652326200" lon="2.556877500">
        <ele>452.00</ele>
        <time>2012-12-16T09:04:25Z</time>
      </trkpt>
      <trkpt lat="41.652254600" lon="2.556964500">
        <ele>453.40</ele>
        <time>2012-12-16T09:04:32Z</time>
      </trkpt>
      <trkpt lat="41.652199000" lon="2.557036300">
        <ele>454.80</ele>
        <time>2012-12-16T09:04:38Z</time>
      </trkpt>
      <trkpt lat="41.652126600" lon="2.557108400">
        <ele>456.80</ele>
        <time>2012-12-16T09:04:46Z</time>
      </trkpt>
      <trkpt lat="41.652027000" lon="2.557212100">
        <ele>458.70</ele>
        <time>2012-12-16T09:04:57Z</time>
      </trkpt>
      <trkpt lat="41.651951900" lon="2.557278400">
        <ele>460.60</ele>
        <time>2012-12-16T09:05:06Z</time>
      </trkpt>
      <trkpt lat="41.651878100" lon="2.557341900">
        <ele>462.00</ele>
        <time>2012-12-16T09:05:14Z</time>
      </trkpt>
      <trkpt lat="41.651836500" lon="2.557409100">
        <ele>464.00</ele>
        <time>2012-12-16T09:05:19Z</time>
      </trkpt>
      <trkpt lat="41.651819300" lon="2.557455100">
        <ele>464.90</ele>
        <time>2012-12-16T09:05:23Z</time>
      </trkpt>
      <trkpt lat="41.651813700" lon="2.557583700">
        <ele>466.40</ele>
        <time>2012-12-16T09:05:33Z</time>
      </trkpt>
      <trkpt lat="41.651810300" lon="2.557618600">
        <ele>466.90</ele>
        <time>2012-12-16T09:05:35Z</time>
      </trkpt>
      <trkpt lat="41.651817400" lon="2.557709600">
        <ele>468.30</ele>
        <time>2012-12-16T09:05:40Z</time>
      </trkpt>
      <trkpt lat="41.651804900" lon="2.557812300">
        <ele>468.80</ele>
        <time>2012-12-16T09:05:47Z</time>
      </trkpt>
      <trkpt lat="41.651867900" lon="2.557977500">
        <ele>469.70</ele>
        <time>2012-12-16T09:05:58Z</time>
      </trkpt>
      <trkpt lat="41.651875400" lon="2.557989700">
        <ele>469.70</ele>
        <time>2012-12-16T09:05:58Z</time>
      </trkpt>
      <trkpt lat="41.651957700" lon="2.558112400">
        <ele>472.10</ele>
        <time>2012-12-16T09:06:08Z</time>
      </trkpt>
      <trkpt lat="41.652011900" lon="2.558195800">
        <ele>472.60</ele>
        <time>2012-12-16T09:06:15Z</time>
      </trkpt>
      <trkpt lat="41.652050500" lon="2.558304600">
        <ele>473.10</ele>
        <time>2012-12-16T09:06:22Z</time>
      </trkpt>
      <trkpt lat="41.652075500" lon="2.558396500">
        <ele>474.50</ele>
        <time>2012-12-16T09:06:29Z</time>
      </trkpt>
      <trkpt lat="41.652097600" lon="2.558510800">
        <ele>476.50</ele>
        <time>2012-12-16T09:06:36Z</time>
      </trkpt>
      <trkpt lat="41.652119900" lon="2.558640800">
        <ele>477.90</ele>
        <time>2012-12-16T09:06:45Z</time>
      </trkpt>
      <trkpt lat="41.652113500" lon="2.558766400">
        <ele>479.40</ele>
        <time>2012-12-16T09:06:52Z</time>
      </trkpt>
      <trkpt lat="41.652118400" lon="2.558894400">
        <ele>480.80</ele>
        <time>2012-12-16T09:07:02Z</time>
      </trkpt>
      <trkpt lat="41.652133100" lon="2.559062500">
        <ele>482.70</ele>
        <time>2012-12-16T09:07:11Z</time>
      </trkpt>
      <trkpt lat="41.652127900" lon="2.559124300">
        <ele>483.20</ele>
        <time>2012-12-16T09:07:16Z</time>
      </trkpt>
      <trkpt lat="41.652148400" lon="2.559219900">
        <ele>484.20</ele>
        <time>2012-12-16T09:07:21Z</time>
      </trkpt>
      <trkpt lat="41.652142800" lon="2.559409000">
        <ele>485.60</ele>
        <time>2012-12-16T09:07:32Z</time>
      </trkpt>
      <trkpt lat="41.652205200" lon="2.559567800">
        <ele>486.60</ele>
        <time>2012-12-16T09:07:42Z</time>
      </trkpt>
      <trkpt lat="41.652315400" lon="2.559694200">
        <ele>486.60</ele>
        <time>2012-12-16T09:07:49Z</time>
      </trkpt>
      <trkpt lat="41.652425500" lon="2.559839900">
        <ele>486.10</ele>
        <time>2012-12-16T09:07:58Z</time>
      </trkpt>
      <trkpt lat="41.652491600" lon="2.559912900">
        <ele>485.60</ele>
        <time>2012-12-16T09:08:03Z</time>
      </trkpt>
      <trkpt lat="41.652652700" lon="2.560032900">
        <ele>486.60</ele>
        <time>2012-12-16T09:08:12Z</time>
      </trkpt>
      <trkpt lat="41.652784800" lon="2.560146200">
        <ele>487.00</ele>
        <time>2012-12-16T09:08:21Z</time>
      </trkpt>
      <trkpt lat="41.652899400" lon="2.560218300">
        <ele>488.00</ele>
        <time>2012-12-16T09:08:29Z</time>
      </trkpt>
      <trkpt lat="41.652946600" lon="2.560243500">
        <ele>489.00</ele>
        <time>2012-12-16T09:08:33Z</time>
      </trkpt>
      <trkpt lat="41.653044500" lon="2.560310900">
        <ele>490.40</ele>
        <time>2012-12-16T09:08:42Z</time>
      </trkpt>
      <trkpt lat="41.653091300" lon="2.560334000">
        <ele>490.90</ele>
        <time>2012-12-16T09:08:45Z</time>
      </trkpt>
      <trkpt lat="41.653162600" lon="2.560375900">
        <ele>491.40</ele>
        <time>2012-12-16T09:08:50Z</time>
      </trkpt>
      <trkpt lat="41.653281800" lon="2.560466100">
        <ele>492.30</ele>
        <time>2012-12-16T09:08:59Z</time>
      </trkpt>
      <trkpt lat="41.653405000" lon="2.560545500">
        <ele>495.70</ele>
        <time>2012-12-16T09:09:11Z</time>
      </trkpt>
      <trkpt lat="41.653480200" lon="2.560590600">
        <ele>498.10</ele>
        <time>2012-12-16T09:09:18Z</time>
      </trkpt>
      <trkpt lat="41.653530300" lon="2.560633600">
        <ele>499.10</ele>
        <time>2012-12-16T09:09:23Z</time>
      </trkpt>
      <trkpt lat="41.653538900" lon="2.560670400">
        <ele>500.00</ele>
        <time>2012-12-16T09:09:27Z</time>
      </trkpt>
      <trkpt lat="41.653514400" lon="2.560719400">
        <ele>501.00</ele>
        <time>2012-12-16T09:09:32Z</time>
      </trkpt>
      <trkpt lat="41.653466200" lon="2.560769100">
        <ele>502.40</ele>
        <time>2012-12-16T09:09:37Z</time>
      </trkpt>
      <trkpt lat="41.653412300" lon="2.560807500">
        <ele>503.90</ele>
        <time>2012-12-16T09:09:44Z</time>
      </trkpt>
      <trkpt lat="41.653323200" lon="2.560874700">
        <ele>505.30</ele>
        <time>2012-12-16T09:09:53Z</time>
      </trkpt>
      <trkpt lat="41.653284100" lon="2.560908100">
        <ele>506.30</ele>
        <time>2012-12-16T09:09:56Z</time>
      </trkpt>
      <trkpt lat="41.653210100" lon="2.561015900">
        <ele>509.20</ele>
        <time>2012-12-16T09:10:07Z</time>
      </trkpt>
      <trkpt lat="41.653150200" lon="2.561122200">
        <ele>511.10</ele>
        <time>2012-12-16T09:10:16Z</time>
      </trkpt>
      <trkpt lat="41.653069100" lon="2.561207800">
        <ele>513.50</ele>
        <time>2012-12-16T09:10:26Z</time>
      </trkpt>
      <trkpt lat="41.653001500" lon="2.561301300">
        <ele>515.90</ele>
        <time>2012-12-16T09:10:35Z</time>
      </trkpt>
      <trkpt lat="41.652979800" lon="2.561341100">
        <ele>516.80</ele>
        <time>2012-12-16T09:10:40Z</time>
      </trkpt>
      <trkpt lat="41.652940700" lon="2.561443900">
        <ele>518.30</ele>
        <time>2012-12-16T09:10:47Z</time>
      </trkpt>
      <trkpt lat="41.652923800" lon="2.561492700">
        <ele>518.80</ele>
        <time>2012-12-16T09:10:52Z</time>
      </trkpt>
      <trkpt lat="41.652856400" lon="2.561605900">
        <ele>521.20</ele>
        <time>2012-12-16T09:11:01Z</time>
      </trkpt>
      <trkpt lat="41.652795700" lon="2.561703200">
        <ele>522.60</ele>
        <time>2012-12-16T09:11:11Z</time>
      </trkpt>
      <trkpt lat="41.652778600" lon="2.561742900">
        <ele>523.10</ele>
        <time>2012-12-16T09:11:13Z</time>
      </trkpt>
      <trkpt lat="41.652791000" lon="2.561847000">
        <ele>524.50</ele>
        <time>2012-12-16T09:11:23Z</time>
      </trkpt>
      <trkpt lat="41.652793500" lon="2.561882300">
        <ele>525.00</ele>
        <time>2012-12-16T09:11:27Z</time>
      </trkpt>
      <trkpt lat="41.652826000" lon="2.562000300">
        <ele>525.50</ele>
        <time>2012-12-16T09:11:36Z</time>
      </trkpt>
      <trkpt lat="41.652847700" lon="2.562084000">
        <ele>526.00</ele>
        <time>2012-12-16T09:11:44Z</time>
      </trkpt>
      <trkpt lat="41.652862200" lon="2.562094800">
        <ele>526.00</ele>
        <time>2012-12-16T09:11:55Z</time>
      </trkpt>
      <trkpt lat="41.652858200" lon="2.562090800">
        <ele>526.00</ele>
        <time>2012-12-16T09:12:09Z</time>
      </trkpt>
      <trkpt lat="41.652848800" lon="2.562105000">
        <ele>526.00</ele>
        <time>2012-12-16T09:12:26Z</time>
      </trkpt>
      <trkpt lat="41.652844000" lon="2.562102400">
        <ele>526.00</ele>
        <time>2012-12-16T09:12:42Z</time>
      </trkpt>
      <trkpt lat="41.652844900" lon="2.562099600">
        <ele>526.00</ele>
        <time>2012-12-16T09:12:56Z</time>
      </trkpt>
      <trkpt lat="41.652863500" lon="2.562133700">
        <ele>526.00</ele>
        <time>2012-12-16T09:13:13Z</time>
      </trkpt>
      <trkpt lat="41.652875000" lon="2.562210300">
        <ele>526.00</ele>
        <time>2012-12-16T09:13:17Z</time>
      </trkpt>
      <trkpt lat="41.652903400" lon="2.562537100">
        <ele>524.10</ele>
        <time>2012-12-16T09:13:24Z</time>
      </trkpt>
      <trkpt lat="41.652910500" lon="2.562586300">
        <ele>523.60</ele>
        <time>2012-12-16T09:13:25Z</time>
      </trkpt>
      <trkpt lat="41.653010400" lon="2.562808800">
        <ele>522.60</ele>
        <time>2012-12-16T09:13:31Z</time>
      </trkpt>
      <trkpt lat="41.653061900" lon="2.562881600">
        <ele>523.10</ele>
        <time>2012-12-16T09:13:36Z</time>
      </trkpt>
      <trkpt lat="41.653088000" lon="2.562920000">
        <ele>523.10</ele>
        <time>2012-12-16T09:13:38Z</time>
      </trkpt>
      <trkpt lat="41.653198400" lon="2.563049000">
        <ele>524.10</ele>
        <time>2012-12-16T09:13:46Z</time>
      </trkpt>
      <trkpt lat="41.653299800" lon="2.563128100">
        <ele>526.00</ele>
        <time>2012-12-16T09:13:55Z</time>
      </trkpt>
      <trkpt lat="41.653340800" lon="2.563164700">
        <ele>526.90</ele>
        <time>2012-12-16T09:13:59Z</time>
      </trkpt>
      <trkpt lat="41.653445800" lon="2.563261900">
        <ele>529.30</ele>
        <time>2012-12-16T09:14:09Z</time>
      </trkpt>
      <trkpt lat="41.653529700" lon="2.563370000">
        <ele>532.20</ele>
        <time>2012-12-16T09:14:18Z</time>
      </trkpt>
      <trkpt lat="41.653563400" lon="2.563425100">
        <ele>533.70</ele>
        <time>2012-12-16T09:14:23Z</time>
      </trkpt>
      <trkpt lat="41.653625300" lon="2.563538700">
        <ele>536.50</ele>
        <time>2012-12-16T09:14:33Z</time>
      </trkpt>
      <trkpt lat="41.653684800" lon="2.563651500">
        <ele>538.50</ele>
        <time>2012-12-16T09:14:44Z</time>
      </trkpt>
      <trkpt lat="41.653743000" lon="2.563752000">
        <ele>540.40</ele>
        <time>2012-12-16T09:14:53Z</time>
      </trkpt>
      <trkpt lat="41.653776700" lon="2.563859200">
        <ele>542.30</ele>
        <time>2012-12-16T09:15:01Z</time>
      </trkpt>
      <trkpt lat="41.653807900" lon="2.563933300">
        <ele>543.80</ele>
        <time>2012-12-16T09:15:08Z</time>
      </trkpt>
      <trkpt lat="41.653831300" lon="2.563959200">
        <ele>544.20</ele>
        <time>2012-12-16T09:15:10Z</time>
      </trkpt>
      <trkpt lat="41.653886400" lon="2.564069800">
        <ele>546.70</ele>
        <time>2012-12-16T09:15:20Z</time>
      </trkpt>
      <trkpt lat="41.653930200" lon="2.564138200">
        <ele>547.60</ele>
        <time>2012-12-16T09:15:27Z</time>
      </trkpt>
      <trkpt lat="41.653952600" lon="2.564165700">
        <ele>548.60</ele>
        <time>2012-12-16T09:15:31Z</time>
      </trkpt>
      <trkpt lat="41.654014100" lon="2.564230500">
        <ele>551.00</ele>
        <time>2012-12-16T09:15:40Z</time>
      </trkpt>
      <trkpt lat="41.654080600" lon="2.564282000">
        <ele>552.40</ele>
        <time>2012-12-16T09:15:48Z</time>
      </trkpt>
      <trkpt lat="41.654148600" lon="2.564326100">
        <ele>554.30</ele>
        <time>2012-12-16T09:15:57Z</time>
      </trkpt>
      <trkpt lat="41.654222000" lon="2.564384200">
        <ele>554.80</ele>
        <time>2012-12-16T09:16:06Z</time>
      </trkpt>
      <trkpt lat="41.654297700" lon="2.564450700">
        <ele>556.30</ele>
        <time>2012-12-16T09:16:14Z</time>
      </trkpt>
      <trkpt lat="41.654387500" lon="2.564525100">
        <ele>556.70</ele>
        <time>2012-12-16T09:16:25Z</time>
      </trkpt>
      <trkpt lat="41.654489900" lon="2.564641400">
        <ele>556.30</ele>
        <time>2012-12-16T09:16:32Z</time>
      </trkpt>
      <trkpt lat="41.654571900" lon="2.564850100">
        <ele>553.90</ele>
        <time>2012-12-16T09:16:37Z</time>
      </trkpt>
      <trkpt lat="41.654595600" lon="2.564955600">
        <ele>552.40</ele>
        <time>2012-12-16T09:16:39Z</time>
      </trkpt>
      <trkpt lat="41.654646400" lon="2.565095200">
        <ele>550.00</ele>
        <time>2012-12-16T09:16:42Z</time>
      </trkpt>
      <trkpt lat="41.654734300" lon="2.565224100">
        <ele>547.60</ele>
        <time>2012-12-16T09:16:44Z</time>
      </trkpt>
      <trkpt lat="41.654887700" lon="2.565369800">
        <ele>544.20</ele>
        <time>2012-12-16T09:16:48Z</time>
      </trkpt>
      <trkpt lat="41.654965000" lon="2.565584100">
        <ele>541.80</ele>
        <time>2012-12-16T09:16:51Z</time>
      </trkpt>
      <trkpt lat="41.654958100" lon="2.565608600">
        <ele>542.30</ele>
        <time>2012-12-16T09:16:53Z</time>
      </trkpt>
      <trkpt lat="41.654913000" lon="2.565759500">
        <ele>545.70</ele>
        <time>2012-12-16T09:17:01Z</time>
      </trkpt>
      <trkpt lat="41.654852300" lon="2.565880600">
        <ele>547.60</ele>
        <time>2012-12-16T09:17:10Z</time>
      </trkpt>
      <trkpt lat="41.654829000" lon="2.565936500">
        <ele>548.10</ele>
        <time>2012-12-16T09:17:14Z</time>
      </trkpt>
      <trkpt lat="41.654885200" lon="2.566063400">
        <ele>550.50</ele>
        <time>2012-12-16T09:17:24Z</time>
      </trkpt>
      <trkpt lat="41.654945500" lon="2.566198200">
        <ele>552.90</ele>
        <time>2012-12-16T09:17:35Z</time>
      </trkpt>
      <trkpt lat="41.654952900" lon="2.566232600">
        <ele>553.40</ele>
        <time>2012-12-16T09:17:36Z</time>
      </trkpt>
      <trkpt lat="41.654996100" lon="2.566372700">
        <ele>555.30</ele>
        <time>2012-12-16T09:17:47Z</time>
      </trkpt>
      <trkpt lat="41.655004300" lon="2.566514100">
        <ele>555.80</ele>
        <time>2012-12-16T09:17:55Z</time>
      </trkpt>
      <trkpt lat="41.654997900" lon="2.566532700">
        <ele>556.30</ele>
        <time>2012-12-16T09:17:57Z</time>
      </trkpt>
      <trkpt lat="41.654905200" lon="2.566673400">
        <ele>556.30</ele>
        <time>2012-12-16T09:18:06Z</time>
      </trkpt>
      <trkpt lat="41.654805300" lon="2.566755400">
        <ele>557.20</ele>
        <time>2012-12-16T09:18:16Z</time>
      </trkpt>
      <trkpt lat="41.654704200" lon="2.566844300">
        <ele>557.20</ele>
        <time>2012-12-16T09:18:25Z</time>
      </trkpt>
      <trkpt lat="41.654690600" lon="2.566850800">
        <ele>557.70</ele>
        <time>2012-12-16T09:18:25Z</time>
      </trkpt>
      <trkpt lat="41.654611900" lon="2.566973000">
        <ele>557.70</ele>
        <time>2012-12-16T09:18:34Z</time>
      </trkpt>
      <trkpt lat="41.654582300" lon="2.567002400">
        <ele>558.20</ele>
        <time>2012-12-16T09:18:36Z</time>
      </trkpt>
      <trkpt lat="41.654456400" lon="2.567170100">
        <ele>557.70</ele>
        <time>2012-12-16T09:18:46Z</time>
      </trkpt>
      <trkpt lat="41.654405900" lon="2.567366600">
        <ele>557.70</ele>
        <time>2012-12-16T09:18:53Z</time>
      </trkpt>
      <trkpt lat="41.654369600" lon="2.567634700">
        <ele>557.70</ele>
        <time>2012-12-16T09:19:05Z</time>
      </trkpt>
      <trkpt lat="41.654392400" lon="2.567733000">
        <ele>558.20</ele>
        <time>2012-12-16T09:19:10Z</time>
      </trkpt>
      <trkpt lat="41.654423200" lon="2.567801600">
        <ele>559.10</ele>
        <time>2012-12-16T09:19:14Z</time>
      </trkpt>
      <trkpt lat="41.654520300" lon="2.567886600">
        <ele>561.10</ele>
        <time>2012-12-16T09:19:23Z</time>
      </trkpt>
      <trkpt lat="41.654540300" lon="2.567922000">
        <ele>561.50</ele>
        <time>2012-12-16T09:19:26Z</time>
      </trkpt>
      <trkpt lat="41.654628700" lon="2.568016300">
        <ele>562.50</ele>
        <time>2012-12-16T09:19:35Z</time>
      </trkpt>
      <trkpt lat="41.654700800" lon="2.568079300">
        <ele>564.00</ele>
        <time>2012-12-16T09:19:42Z</time>
      </trkpt>
      <trkpt lat="41.654795400" lon="2.568158200">
        <ele>564.90</ele>
        <time>2012-12-16T09:19:52Z</time>
      </trkpt>
      <trkpt lat="41.654836400" lon="2.568193200">
        <ele>565.40</ele>
        <time>2012-12-16T09:19:56Z</time>
      </trkpt>
      <trkpt lat="41.654924400" lon="2.568203900">
        <ele>566.80</ele>
        <time>2012-12-16T09:20:04Z</time>
      </trkpt>
      <trkpt lat="41.654932200" lon="2.568207900">
        <ele>566.80</ele>
        <time>2012-12-16T09:20:06Z</time>
      </trkpt>
      <trkpt lat="41.654951600" lon="2.568223600">
        <ele>567.30</ele>
        <time>2012-12-16T09:20:08Z</time>
      </trkpt>
      <trkpt lat="41.655051100" lon="2.568248500">
        <ele>568.30</ele>
        <time>2012-12-16T09:20:17Z</time>
      </trkpt>
      <trkpt lat="41.655084700" lon="2.568251700">
        <ele>569.20</ele>
        <time>2012-12-16T09:20:20Z</time>
      </trkpt>
      <trkpt lat="41.655201000" lon="2.568261400">
        <ele>570.70</ele>
        <time>2012-12-16T09:20:29Z</time>
      </trkpt>
      <trkpt lat="41.655248700" lon="2.568271600">
        <ele>571.20</ele>
        <time>2012-12-16T09:20:34Z</time>
      </trkpt>
      <trkpt lat="41.655341600" lon="2.568277000">
        <ele>572.60</ele>
        <time>2012-12-16T09:20:41Z</time>
      </trkpt>
      <trkpt lat="41.655384900" lon="2.568270900">
        <ele>573.60</ele>
        <time>2012-12-16T09:20:46Z</time>
      </trkpt>
      <trkpt lat="41.655428700" lon="2.568285900">
        <ele>574.00</ele>
        <time>2012-12-16T09:20:50Z</time>
      </trkpt>
      <trkpt lat="41.655523700" lon="2.568349100">
        <ele>575.00</ele>
        <time>2012-12-16T09:20:58Z</time>
      </trkpt>
      <trkpt lat="41.655573500" lon="2.568373300">
        <ele>575.50</ele>
        <time>2012-12-16T09:21:02Z</time>
      </trkpt>
      <trkpt lat="41.655676700" lon="2.568443000">
        <ele>576.50</ele>
        <time>2012-12-16T09:21:12Z</time>
      </trkpt>
      <trkpt lat="41.655823200" lon="2.568470100">
        <ele>576.50</ele>
        <time>2012-12-16T09:21:21Z</time>
      </trkpt>
      <trkpt lat="41.656000500" lon="2.568455000">
        <ele>576.90</ele>
        <time>2012-12-16T09:21:33Z</time>
      </trkpt>
      <trkpt lat="41.656072400" lon="2.568427700">
        <ele>577.40</ele>
        <time>2012-12-16T09:21:37Z</time>
      </trkpt>
      <trkpt lat="41.656214200" lon="2.568400900">
        <ele>577.40</ele>
        <time>2012-12-16T09:21:47Z</time>
      </trkpt>
      <trkpt lat="41.656336200" lon="2.568400500">
        <ele>577.90</ele>
        <time>2012-12-16T09:21:56Z</time>
      </trkpt>
      <trkpt lat="41.656378400" lon="2.568393600">
        <ele>577.90</ele>
        <time>2012-12-16T09:21:59Z</time>
      </trkpt>
      <trkpt lat="41.656381700" lon="2.568266300">
        <ele>579.30</ele>
        <time>2012-12-16T09:22:08Z</time>
      </trkpt>
      <trkpt lat="41.656364400" lon="2.568172000">
        <ele>580.30</ele>
        <time>2012-12-16T09:22:13Z</time>
      </trkpt>
      <trkpt lat="41.656331000" lon="2.568063000">
        <ele>581.70</ele>
        <time>2012-12-16T09:22:20Z</time>
      </trkpt>
      <trkpt lat="41.656315800" lon="2.567973200">
        <ele>582.70</ele>
        <time>2012-12-16T09:22:27Z</time>
      </trkpt>
      <trkpt lat="41.656267700" lon="2.567821400">
        <ele>584.60</ele>
        <time>2012-12-16T09:22:36Z</time>
      </trkpt>
      <trkpt lat="41.656268100" lon="2.567790300">
        <ele>585.10</ele>
        <time>2012-12-16T09:22:38Z</time>
      </trkpt>
      <trkpt lat="41.656230100" lon="2.567652900">
        <ele>586.10</ele>
        <time>2012-12-16T09:22:48Z</time>
      </trkpt>
      <trkpt lat="41.656222600" lon="2.567522000">
        <ele>587.50</ele>
        <time>2012-12-16T09:22:55Z</time>
      </trkpt>
      <trkpt lat="41.656221100" lon="2.567507200">
        <ele>587.00</ele>
        <time>2012-12-16T09:22:57Z</time>
      </trkpt>
      <trkpt lat="41.656202900" lon="2.567348000">
        <ele>588.50</ele>
        <time>2012-12-16T09:23:07Z</time>
      </trkpt>
      <trkpt lat="41.656183000" lon="2.567221400">
        <ele>589.40</ele>
        <time>2012-12-16T09:23:14Z</time>
      </trkpt>
      <trkpt lat="41.656141900" lon="2.567103000">
        <ele>590.40</ele>
        <time>2012-12-16T09:23:23Z</time>
      </trkpt>
      <trkpt lat="41.656095600" lon="2.566981500">
        <ele>590.90</ele>
        <time>2012-12-16T09:23:30Z</time>
      </trkpt>
      <trkpt lat="41.656075400" lon="2.566917100">
        <ele>591.30</ele>
        <time>2012-12-16T09:23:33Z</time>
      </trkpt>
      <trkpt lat="41.656031900" lon="2.566756700">
        <ele>592.30</ele>
        <time>2012-12-16T09:23:44Z</time>
      </trkpt>
      <trkpt lat="41.656006000" lon="2.566635800">
        <ele>592.80</ele>
        <time>2012-12-16T09:23:51Z</time>
      </trkpt>
      <trkpt lat="41.655963800" lon="2.566509400">
        <ele>593.80</ele>
        <time>2012-12-16T09:23:58Z</time>
      </trkpt>
      <trkpt lat="41.655901800" lon="2.566328700">
        <ele>595.20</ele>
        <time>2012-12-16T09:24:08Z</time>
      </trkpt>
      <trkpt lat="41.655873400" lon="2.566219800">
        <ele>595.70</ele>
        <time>2012-12-16T09:24:15Z</time>
      </trkpt>
      <trkpt lat="41.655859600" lon="2.566084200">
        <ele>596.60</ele>
        <time>2012-12-16T09:24:24Z</time>
      </trkpt>
      <trkpt lat="41.655864300" lon="2.566096100">
        <ele>596.60</ele>
        <time>2012-12-16T09:24:31Z</time>
      </trkpt>
      <trkpt lat="41.655859500" lon="2.566080400">
        <ele>596.60</ele>
        <time>2012-12-16T09:24:48Z</time>
      </trkpt>
      <trkpt lat="41.655874000" lon="2.566100700">
        <ele>596.60</ele>
        <time>2012-12-16T09:25:02Z</time>
      </trkpt>
      <trkpt lat="41.655858300" lon="2.566085000">
        <ele>596.60</ele>
        <time>2012-12-16T09:25:18Z</time>
      </trkpt>
      <trkpt lat="41.655874300" lon="2.566073700">
        <ele>596.60</ele>
        <time>2012-12-16T09:25:28Z</time>
      </trkpt>
      <trkpt lat="41.655875700" lon="2.566067500">
        <ele>596.60</ele>
        <time>2012-12-16T09:25:32Z</time>
      </trkpt>
      <trkpt lat="41.655891700" lon="2.566049300">
        <ele>596.60</ele>
        <time>2012-12-16T09:25:35Z</time>
      </trkpt>
      <trkpt lat="41.655917400" lon="2.565998400">
        <ele>597.10</ele>
        <time>2012-12-16T09:25:39Z</time>
      </trkpt>
      <trkpt lat="41.655951300" lon="2.565971800">
        <ele>597.60</ele>
        <time>2012-12-16T09:25:42Z</time>
      </trkpt>
      <trkpt lat="41.656065000" lon="2.565902700">
        <ele>600.00</ele>
        <time>2012-12-16T09:25:53Z</time>
      </trkpt>
      <trkpt lat="41.656169300" lon="2.565849800">
        <ele>601.40</ele>
        <time>2012-12-16T09:26:03Z</time>
      </trkpt>
      <trkpt lat="41.656260900" lon="2.565823000">
        <ele>602.90</ele>
        <time>2012-12-16T09:26:10Z</time>
      </trkpt>
      <trkpt lat="41.656327300" lon="2.565837200">
        <ele>603.40</ele>
        <time>2012-12-16T09:26:15Z</time>
      </trkpt>
      <trkpt lat="41.656383700" lon="2.565841100">
        <ele>604.30</ele>
        <time>2012-12-16T09:26:19Z</time>
      </trkpt>
      <trkpt lat="41.656480500" lon="2.565854600">
        <ele>605.30</ele>
        <time>2012-12-16T09:26:28Z</time>
      </trkpt>
      <trkpt lat="41.656491400" lon="2.565853300">
        <ele>605.80</ele>
        <time>2012-12-16T09:26:29Z</time>
      </trkpt>
      <trkpt lat="41.656528100" lon="2.565847700">
        <ele>606.20</ele>
        <time>2012-12-16T09:26:31Z</time>
      </trkpt>
      <trkpt lat="41.656603300" lon="2.565857600">
        <ele>607.70</ele>
        <time>2012-12-16T09:26:38Z</time>
      </trkpt>
      <trkpt lat="41.656658000" lon="2.565884900">
        <ele>609.10</ele>
        <time>2012-12-16T09:26:43Z</time>
      </trkpt>
      <trkpt lat="41.656758700" lon="2.565892700">
        <ele>611.10</ele>
        <time>2012-12-16T09:26:52Z</time>
      </trkpt>
      <trkpt lat="41.656859100" lon="2.565891100">
        <ele>613.00</ele>
        <time>2012-12-16T09:27:01Z</time>
      </trkpt>
      <trkpt lat="41.656927600" lon="2.565877700">
        <ele>613.90</ele>
        <time>2012-12-16T09:27:08Z</time>
      </trkpt>
      <trkpt lat="41.657015700" lon="2.565841400">
        <ele>615.90</ele>
        <time>2012-12-16T09:27:16Z</time>
      </trkpt>
      <trkpt lat="41.657099300" lon="2.565786700">
        <ele>617.30</ele>
        <time>2012-12-16T09:27:25Z</time>
      </trkpt>
      <trkpt lat="41.657196000" lon="2.565703500">
        <ele>619.20</ele>
        <time>2012-12-16T09:27:36Z</time>
      </trkpt>
      <trkpt lat="41.657280300" lon="2.565699800">
        <ele>621.20</ele>
        <time>2012-12-16T09:27:44Z</time>
      </trkpt>
      <trkpt lat="41.657356400" lon="2.565678000">
        <ele>622.60</ele>
        <time>2012-12-16T09:27:53Z</time>
      </trkpt>
      <trkpt lat="41.657326300" lon="2.565577900">
        <ele>622.60</ele>
        <time>2012-12-16T09:28:00Z</time>
      </trkpt>
      <trkpt lat="41.657305700" lon="2.565548600">
        <ele>622.10</ele>
        <time>2012-12-16T09:28:02Z</time>
      </trkpt>
      <trkpt lat="41.657106800" lon="2.565363500">
        <ele>621.20</ele>
        <time>2012-12-16T09:28:12Z</time>
      </trkpt>
      <trkpt lat="41.656986500" lon="2.565105700">
        <ele>620.70</ele>
        <time>2012-12-16T09:28:17Z</time>
      </trkpt>
      <trkpt lat="41.656940000" lon="2.564816200">
        <ele>618.80</ele>
        <time>2012-12-16T09:28:24Z</time>
      </trkpt>
      <trkpt lat="41.656951400" lon="2.564470000">
        <ele>617.80</ele>
        <time>2012-12-16T09:28:30Z</time>
      </trkpt>
      <trkpt lat="41.656801100" lon="2.564395500">
        <ele>617.30</ele>
        <time>2012-12-16T09:28:35Z</time>
      </trkpt>
      <trkpt lat="41.656700100" lon="2.564420000">
        <ele>616.80</ele>
        <time>2012-12-16T09:28:38Z</time>
      </trkpt>
      <trkpt lat="41.656523000" lon="2.564439800">
        <ele>616.30</ele>
        <time>2012-12-16T09:28:42Z</time>
      </trkpt>
      <trkpt lat="41.656294200" lon="2.564384700">
        <ele>616.30</ele>
        <time>2012-12-16T09:28:49Z</time>
      </trkpt>
      <trkpt lat="41.656032500" lon="2.564251400">
        <ele>614.90</ele>
        <time>2012-12-16T09:28:57Z</time>
      </trkpt>
      <trkpt lat="41.655864600" lon="2.564098300">
        <ele>614.40</ele>
        <time>2012-12-16T09:29:03Z</time>
      </trkpt>
      <trkpt lat="41.655793500" lon="2.564026800">
        <ele>615.40</ele>
        <time>2012-12-16T09:29:08Z</time>
      </trkpt>
      <trkpt lat="41.655728900" lon="2.563961100">
        <ele>617.30</ele>
        <time>2012-12-16T09:29:15Z</time>
      </trkpt>
      <trkpt lat="41.655664900" lon="2.563879600">
        <ele>619.20</ele>
        <time>2012-12-16T09:29:22Z</time>
      </trkpt>
      <trkpt lat="41.655568500" lon="2.563737400">
        <ele>622.10</ele>
        <time>2012-12-16T09:29:34Z</time>
      </trkpt>
      <trkpt lat="41.655515200" lon="2.563619200">
        <ele>624.00</ele>
        <time>2012-12-16T09:29:41Z</time>
      </trkpt>
      <trkpt lat="41.655456500" lon="2.563479100">
        <ele>626.00</ele>
        <time>2012-12-16T09:29:50Z</time>
      </trkpt>
      <trkpt lat="41.655440800" lon="2.563423100">
        <ele>626.90</ele>
        <time>2012-12-16T09:29:55Z</time>
      </trkpt>
      <trkpt lat="41.655408800" lon="2.563353100">
        <ele>627.90</ele>
        <time>2012-12-16T09:30:00Z</time>
      </trkpt>
      <trkpt lat="41.655353800" lon="2.563167200">
        <ele>629.80</ele>
        <time>2012-12-16T09:30:11Z</time>
      </trkpt>
      <trkpt lat="41.655299900" lon="2.563004700">
        <ele>630.80</ele>
        <time>2012-12-16T09:30:19Z</time>
      </trkpt>
      <trkpt lat="41.655219600" lon="2.562810300">
        <ele>629.80</ele>
        <time>2012-12-16T09:30:26Z</time>
      </trkpt>
      <trkpt lat="41.655103900" lon="2.562476900">
        <ele>629.30</ele>
        <time>2012-12-16T09:30:35Z</time>
      </trkpt>
      <trkpt lat="41.655088800" lon="2.562244100">
        <ele>629.80</ele>
        <time>2012-12-16T09:30:42Z</time>
      </trkpt>
      <trkpt lat="41.655141800" lon="2.562037700">
        <ele>629.30</ele>
        <time>2012-12-16T09:30:47Z</time>
      </trkpt>
      <trkpt lat="41.655240800" lon="2.561856500">
        <ele>628.80</ele>
        <time>2012-12-16T09:30:52Z</time>
      </trkpt>
      <trkpt lat="41.655269500" lon="2.561770900">
        <ele>628.80</ele>
        <time>2012-12-16T09:30:56Z</time>
      </trkpt>
      <trkpt lat="41.655303900" lon="2.561704200">
        <ele>628.80</ele>
        <time>2012-12-16T09:31:01Z</time>
      </trkpt>
      <trkpt lat="41.655388300" lon="2.561449800">
        <ele>629.30</ele>
        <time>2012-12-16T09:31:10Z</time>
      </trkpt>
      <trkpt lat="41.655463100" lon="2.561252200">
        <ele>629.80</ele>
        <time>2012-12-16T09:31:17Z</time>
      </trkpt>
      <trkpt lat="41.655539000" lon="2.561076300">
        <ele>629.80</ele>
        <time>2012-12-16T09:31:24Z</time>
      </trkpt>
      <trkpt lat="41.655666000" lon="2.560888700">
        <ele>630.30</ele>
        <time>2012-12-16T09:31:31Z</time>
      </trkpt>
      <trkpt lat="41.655805200" lon="2.560735600">
        <ele>630.80</ele>
        <time>2012-12-16T09:31:39Z</time>
      </trkpt>
      <trkpt lat="41.655989300" lon="2.560557400">
        <ele>631.20</ele>
        <time>2012-12-16T09:31:48Z</time>
      </trkpt>
      <trkpt lat="41.656111700" lon="2.560404400">
        <ele>632.20</ele>
        <time>2012-12-16T09:31:57Z</time>
      </trkpt>
      <trkpt lat="41.656263400" lon="2.560219500">
        <ele>631.70</ele>
        <time>2012-12-16T09:32:05Z</time>
      </trkpt>
      <trkpt lat="41.656317200" lon="2.560164400">
        <ele>631.70</ele>
        <time>2012-12-16T09:32:09Z</time>
      </trkpt>
      <trkpt lat="41.656307400" lon="2.560058000">
        <ele>632.20</ele>
        <time>2012-12-16T09:32:12Z</time>
      </trkpt>
      <trkpt lat="41.656213900" lon="2.559979800">
        <ele>632.70</ele>
        <time>2012-12-16T09:32:18Z</time>
      </trkpt>
      <trkpt lat="41.656172600" lon="2.559954000">
        <ele>633.20</ele>
        <time>2012-12-16T09:32:25Z</time>
      </trkpt>
      <trkpt lat="41.656127200" lon="2.559934600">
        <ele>633.70</ele>
        <time>2012-12-16T09:32:33Z</time>
      </trkpt>
      <trkpt lat="41.656003000" lon="2.559846100">
        <ele>634.60</ele>
        <time>2012-12-16T09:32:40Z</time>
      </trkpt>
      <trkpt lat="41.655854800" lon="2.559746200">
        <ele>635.10</ele>
        <time>2012-12-16T09:32:47Z</time>
      </trkpt>
      <trkpt lat="41.655723200" lon="2.559648300">
        <ele>636.50</ele>
        <time>2012-12-16T09:32:56Z</time>
      </trkpt>
      <trkpt lat="41.655680700" lon="2.559585900">
        <ele>637.50</ele>
        <time>2012-12-16T09:33:03Z</time>
      </trkpt>
      <trkpt lat="41.655717700" lon="2.559571000">
        <ele>638.00</ele>
        <time>2012-12-16T09:33:06Z</time>
      </trkpt>
      <trkpt lat="41.655825500" lon="2.559646900">
        <ele>639.40</ele>
        <time>2012-12-16T09:33:15Z</time>
      </trkpt>
      <trkpt lat="41.655949900" lon="2.559711100">
        <ele>639.90</ele>
        <time>2012-12-16T09:33:24Z</time>
      </trkpt>
      <trkpt lat="41.656118500" lon="2.559804700">
        <ele>641.30</ele>
        <time>2012-12-16T09:33:36Z</time>
      </trkpt>
      <trkpt lat="41.656175900" lon="2.559830700">
        <ele>641.80</ele>
        <time>2012-12-16T09:33:40Z</time>
      </trkpt>
      <trkpt lat="41.656309200" lon="2.559882700">
        <ele>643.30</ele>
        <time>2012-12-16T09:33:50Z</time>
      </trkpt>
      <trkpt lat="41.656430800" lon="2.559951000">
        <ele>643.30</ele>
        <time>2012-12-16T09:33:57Z</time>
      </trkpt>
      <trkpt lat="41.656479500" lon="2.559973000">
        <ele>643.70</ele>
        <time>2012-12-16T09:34:00Z</time>
      </trkpt>
      <trkpt lat="41.656544800" lon="2.560014900">
        <ele>643.70</ele>
        <time>2012-12-16T09:34:04Z</time>
      </trkpt>
      <trkpt lat="41.656573800" lon="2.560044300">
        <ele>644.20</ele>
        <time>2012-12-16T09:34:06Z</time>
      </trkpt>
      <trkpt lat="41.656597600" lon="2.560100300">
        <ele>644.70</ele>
        <time>2012-12-16T09:34:09Z</time>
      </trkpt>
      <trkpt lat="41.656530200" lon="2.560221800">
        <ele>644.70</ele>
        <time>2012-12-16T09:34:16Z</time>
      </trkpt>
      <trkpt lat="41.656521400" lon="2.560229300">
        <ele>645.20</ele>
        <time>2012-12-16T09:34:23Z</time>
      </trkpt>
      <trkpt lat="41.656500500" lon="2.560214400">
        <ele>645.20</ele>
        <time>2012-12-16T09:34:39Z</time>
      </trkpt>
      <trkpt lat="41.656509800" lon="2.560232700">
        <ele>645.20</ele>
        <time>2012-12-16T09:34:51Z</time>
      </trkpt>
      <trkpt lat="41.656505800" lon="2.560243400">
        <ele>645.20</ele>
        <time>2012-12-16T09:35:03Z</time>
      </trkpt>
      <trkpt lat="41.656502800" lon="2.560229800">
        <ele>645.20</ele>
        <time>2012-12-16T09:35:19Z</time>
      </trkpt>
      <trkpt lat="41.656494000" lon="2.560230000">
        <ele>645.20</ele>
        <time>2012-12-16T09:35:19Z</time>
      </trkpt>
      <trkpt lat="41.656395400" lon="2.560330600">
        <ele>646.10</ele>
        <time>2012-12-16T09:35:29Z</time>
      </trkpt>
      <trkpt lat="41.656334200" lon="2.560475200">
        <ele>647.10</ele>
        <time>2012-12-16T09:35:36Z</time>
      </trkpt>
      <trkpt lat="41.656310500" lon="2.560531300">
        <ele>647.60</ele>
        <time>2012-12-16T09:35:40Z</time>
      </trkpt>
      <trkpt lat="41.656226100" lon="2.560744400">
        <ele>648.10</ele>
        <time>2012-12-16T09:35:50Z</time>
      </trkpt>
      <trkpt lat="41.656158900" lon="2.560876800">
        <ele>649.00</ele>
        <time>2012-12-16T09:35:57Z</time>
      </trkpt>
      <trkpt lat="41.656062600" lon="2.560996000">
        <ele>650.00</ele>
        <time>2012-12-16T09:36:04Z</time>
      </trkpt>
      <trkpt lat="41.655950200" lon="2.561149000">
        <ele>651.00</ele>
        <time>2012-12-16T09:36:13Z</time>
      </trkpt>
      <trkpt lat="41.655874200" lon="2.561342800">
        <ele>652.40</ele>
        <time>2012-12-16T09:36:23Z</time>
      </trkpt>
      <trkpt lat="41.655822600" lon="2.561500200">
        <ele>653.80</ele>
        <time>2012-12-16T09:36:32Z</time>
      </trkpt>
      <trkpt lat="41.655774500" lon="2.561653400">
        <ele>654.80</ele>
        <time>2012-12-16T09:36:39Z</time>
      </trkpt>
      <trkpt lat="41.655715300" lon="2.561835600">
        <ele>656.20</ele>
        <time>2012-12-16T09:36:48Z</time>
      </trkpt>
      <trkpt lat="41.655683800" lon="2.561961000">
        <ele>657.20</ele>
        <time>2012-12-16T09:36:55Z</time>
      </trkpt>
      <trkpt lat="41.655649300" lon="2.562122100">
        <ele>658.60</ele>
        <time>2012-12-16T09:37:02Z</time>
      </trkpt>
      <trkpt lat="41.655664700" lon="2.562311500">
        <ele>659.60</ele>
        <time>2012-12-16T09:37:10Z</time>
      </trkpt>
      <trkpt lat="41.655708000" lon="2.562506000">
        <ele>660.10</ele>
        <time>2012-12-16T09:37:19Z</time>
      </trkpt>
      <trkpt lat="41.655828000" lon="2.562729200">
        <ele>660.60</ele>
        <time>2012-12-16T09:37:30Z</time>
      </trkpt>
      <trkpt lat="41.655848800" lon="2.562766600">
        <ele>661.00</ele>
        <time>2012-12-16T09:37:31Z</time>
      </trkpt>
      <trkpt lat="41.655962500" lon="2.562865400">
        <ele>662.50</ele>
        <time>2012-12-16T09:37:40Z</time>
      </trkpt>
      <trkpt lat="41.655991000" lon="2.562887000">
        <ele>662.50</ele>
        <time>2012-12-16T09:37:42Z</time>
      </trkpt>
      <trkpt lat="41.656143800" lon="2.563011200">
        <ele>664.40</ele>
        <time>2012-12-16T09:37:54Z</time>
      </trkpt>
      <trkpt lat="41.656249000" lon="2.563069600">
        <ele>666.30</ele>
        <time>2012-12-16T09:38:03Z</time>
      </trkpt>
      <trkpt lat="41.656361500" lon="2.563146300">
        <ele>667.30</ele>
        <time>2012-12-16T09:38:11Z</time>
      </trkpt>
      <trkpt lat="41.656419800" lon="2.563184700">
        <ele>668.20</ele>
        <time>2012-12-16T09:38:17Z</time>
      </trkpt>
      <trkpt lat="41.656567500" lon="2.563248700">
        <ele>669.70</ele>
        <time>2012-12-16T09:38:27Z</time>
      </trkpt>
      <trkpt lat="41.656657600" lon="2.563291600">
        <ele>670.70</ele>
        <time>2012-12-16T09:38:36Z</time>
      </trkpt>
      <trkpt lat="41.656707500" lon="2.563301800">
        <ele>671.10</ele>
        <time>2012-12-16T09:38:39Z</time>
      </trkpt>
      <trkpt lat="41.656766400" lon="2.563312400">
        <ele>671.10</ele>
        <time>2012-12-16T09:38:43Z</time>
      </trkpt>
      <trkpt lat="41.656890800" lon="2.563257800">
        <ele>672.60</ele>
        <time>2012-12-16T09:38:53Z</time>
      </trkpt>
      <trkpt lat="41.656971400" lon="2.563242300">
        <ele>672.10</ele>
        <time>2012-12-16T09:38:58Z</time>
      </trkpt>
      <trkpt lat="41.657104200" lon="2.563190500">
        <ele>672.60</ele>
        <time>2012-12-16T09:39:07Z</time>
      </trkpt>
      <trkpt lat="41.657256600" lon="2.563157800">
        <ele>674.50</ele>
        <time>2012-12-16T09:39:16Z</time>
      </trkpt>
      <trkpt lat="41.657380500" lon="2.563133700">
        <ele>676.40</ele>
        <time>2012-12-16T09:39:26Z</time>
      </trkpt>
      <trkpt lat="41.657406900" lon="2.563120500">
        <ele>676.90</ele>
        <time>2012-12-16T09:39:28Z</time>
      </trkpt>
      <trkpt lat="41.657510400" lon="2.563059800">
        <ele>678.80</ele>
        <time>2012-12-16T09:39:37Z</time>
      </trkpt>
      <trkpt lat="41.657612200" lon="2.563030000">
        <ele>679.80</ele>
        <time>2012-12-16T09:39:44Z</time>
      </trkpt>
      <trkpt lat="41.657698900" lon="2.563100100">
        <ele>681.70</ele>
        <time>2012-12-16T09:39:52Z</time>
      </trkpt>
      <trkpt lat="41.657773000" lon="2.563211500">
        <ele>682.70</ele>
        <time>2012-12-16T09:40:01Z</time>
      </trkpt>
      <trkpt lat="41.657836600" lon="2.563338800">
        <ele>684.10</ele>
        <time>2012-12-16T09:40:10Z</time>
      </trkpt>
      <trkpt lat="41.657886700" lon="2.563432400">
        <ele>685.10</ele>
        <time>2012-12-16T09:40:17Z</time>
      </trkpt>
      <trkpt lat="41.657984400" lon="2.563487700">
        <ele>687.00</ele>
        <time>2012-12-16T09:40:25Z</time>
      </trkpt>
      <trkpt lat="41.658051300" lon="2.563489800">
        <ele>688.00</ele>
        <time>2012-12-16T09:40:32Z</time>
      </trkpt>
      <trkpt lat="41.658086800" lon="2.563470300">
        <ele>688.00</ele>
        <time>2012-12-16T09:40:36Z</time>
      </trkpt>
      <trkpt lat="41.658131900" lon="2.563472300">
        <ele>688.90</ele>
        <time>2012-12-16T09:40:39Z</time>
      </trkpt>
      <trkpt lat="41.658189900" lon="2.563499800">
        <ele>689.90</ele>
        <time>2012-12-16T09:40:45Z</time>
      </trkpt>
      <trkpt lat="41.658280600" lon="2.563576900">
        <ele>691.30</ele>
        <time>2012-12-16T09:40:53Z</time>
      </trkpt>
      <trkpt lat="41.658342500" lon="2.563690900">
        <ele>692.80</ele>
        <time>2012-12-16T09:41:02Z</time>
      </trkpt>
      <trkpt lat="41.658354800" lon="2.563756200">
        <ele>693.70</ele>
        <time>2012-12-16T09:41:07Z</time>
      </trkpt>
      <trkpt lat="41.658345700" lon="2.563880200">
        <ele>694.70</ele>
        <time>2012-12-16T09:41:16Z</time>
      </trkpt>
      <trkpt lat="41.658280100" lon="2.564047800">
        <ele>696.60</ele>
        <time>2012-12-16T09:41:25Z</time>
      </trkpt>
      <trkpt lat="41.658250600" lon="2.564153900">
        <ele>697.10</ele>
        <time>2012-12-16T09:41:33Z</time>
      </trkpt>
      <trkpt lat="41.658237100" lon="2.564293300">
        <ele>698.50</ele>
        <time>2012-12-16T09:41:42Z</time>
      </trkpt>
      <trkpt lat="41.658238300" lon="2.564309900">
        <ele>698.50</ele>
        <time>2012-12-16T09:41:44Z</time>
      </trkpt>
      <trkpt lat="41.658272600" lon="2.564516200">
        <ele>700.00</ele>
        <time>2012-12-16T09:41:54Z</time>
      </trkpt>
      <trkpt lat="41.658336200" lon="2.564612900">
        <ele>701.40</ele>
        <time>2012-12-16T09:42:01Z</time>
      </trkpt>
      <trkpt lat="41.658426400" lon="2.564668700">
        <ele>702.40</ele>
        <time>2012-12-16T09:42:10Z</time>
      </trkpt>
      <trkpt lat="41.658497700" lon="2.564673700">
        <ele>703.30</ele>
        <time>2012-12-16T09:42:15Z</time>
      </trkpt>
      <trkpt lat="41.658612100" lon="2.564622300">
        <ele>704.30</ele>
        <time>2012-12-16T09:42:26Z</time>
      </trkpt>
      <trkpt lat="41.658691900" lon="2.564563600">
        <ele>705.80</ele>
        <time>2012-12-16T09:42:34Z</time>
      </trkpt>
      <trkpt lat="41.658763100" lon="2.564485400">
        <ele>707.20</ele>
        <time>2012-12-16T09:42:41Z</time>
      </trkpt>
      <trkpt lat="41.658813100" lon="2.564461900">
        <ele>708.60</ele>
        <time>2012-12-16T09:42:50Z</time>
      </trkpt>
      <trkpt lat="41.658822900" lon="2.564440400">
        <ele>708.60</ele>
        <time>2012-12-16T09:43:00Z</time>
      </trkpt>
      <trkpt lat="41.658829900" lon="2.564440300">
        <ele>708.60</ele>
        <time>2012-12-16T09:43:16Z</time>
      </trkpt>
      <trkpt lat="41.658814600" lon="2.564449800">
        <ele>708.60</ele>
        <time>2012-12-16T09:43:27Z</time>
      </trkpt>
      <trkpt lat="41.658808500" lon="2.564465800">
        <ele>708.60</ele>
        <time>2012-12-16T09:43:42Z</time>
      </trkpt>
      <trkpt lat="41.658806400" lon="2.564437000">
        <ele>708.60</ele>
        <time>2012-12-16T09:43:49Z</time>
      </trkpt>
      <trkpt lat="41.658801400" lon="2.564409000">
        <ele>708.60</ele>
        <time>2012-12-16T09:44:05Z</time>
      </trkpt>
      <trkpt lat="41.658819500" lon="2.564410000">
        <ele>709.10</ele>
        <time>2012-12-16T09:44:10Z</time>
      </trkpt>
      <trkpt lat="41.658819800" lon="2.564380900">
        <ele>709.10</ele>
        <time>2012-12-16T09:44:24Z</time>
      </trkpt>
      <trkpt lat="41.658821400" lon="2.564409700">
        <ele>708.60</ele>
        <time>2012-12-16T09:44:33Z</time>
      </trkpt>
      <trkpt lat="41.658829500" lon="2.564439400">
        <ele>708.60</ele>
        <time>2012-12-16T09:44:38Z</time>
      </trkpt>
      <trkpt lat="41.658826900" lon="2.564489200">
        <ele>708.20</ele>
        <time>2012-12-16T09:44:47Z</time>
      </trkpt>
      <trkpt lat="41.658833900" lon="2.564497900">
        <ele>708.20</ele>
        <time>2012-12-16T09:44:59Z</time>
      </trkpt>
      <trkpt lat="41.658840200" lon="2.564482900">
        <ele>708.20</ele>
        <time>2012-12-16T09:45:13Z</time>
      </trkpt>
      <trkpt lat="41.658838100" lon="2.564484200">
        <ele>708.20</ele>
        <time>2012-12-16T09:45:22Z</time>
      </trkpt>
      <trkpt lat="41.658831200" lon="2.564471400">
        <ele>708.20</ele>
        <time>2012-12-16T09:45:34Z</time>
      </trkpt>
      <trkpt lat="41.658838700" lon="2.564484200">
        <ele>708.60</ele>
        <time>2012-12-16T09:45:46Z</time>
      </trkpt>
      <trkpt lat="41.658913000" lon="2.564463500">
        <ele>708.60</ele>
        <time>2012-12-16T09:46:17Z</time>
      </trkpt>
      <trkpt lat="41.658912600" lon="2.564472400">
        <ele>708.60</ele>
        <time>2012-12-16T09:46:31Z</time>
      </trkpt>
      <trkpt lat="41.658951400" lon="2.564523300">
        <ele>708.60</ele>
        <time>2012-12-16T09:46:52Z</time>
      </trkpt>
      <trkpt lat="41.658926600" lon="2.564516100">
        <ele>708.20</ele>
        <time>2012-12-16T09:47:15Z</time>
      </trkpt>
      <trkpt lat="41.658884000" lon="2.564465700">
        <ele>708.60</ele>
        <time>2012-12-16T09:47:39Z</time>
      </trkpt>
      <trkpt lat="41.658906300" lon="2.564453600">
        <ele>708.20</ele>
        <time>2012-12-16T09:47:53Z</time>
      </trkpt>
      <trkpt lat="41.658869100" lon="2.564467900">
        <ele>708.60</ele>
        <time>2012-12-16T09:48:12Z</time>
      </trkpt>
      <trkpt lat="41.658868000" lon="2.564496900">
        <ele>708.60</ele>
        <time>2012-12-16T09:48:30Z</time>
      </trkpt>
      <trkpt lat="41.658843300" lon="2.564484000">
        <ele>708.60</ele>
        <time>2012-12-16T09:48:47Z</time>
      </trkpt>
      <trkpt lat="41.658844400" lon="2.564479000">
        <ele>708.60</ele>
        <time>2012-12-16T09:49:06Z</time>
      </trkpt>
      <trkpt lat="41.658850500" lon="2.564490500">
        <ele>708.60</ele>
        <time>2012-12-16T09:49:22Z</time>
      </trkpt>
      <trkpt lat="41.658887700" lon="2.564513500">
        <ele>708.60</ele>
        <time>2012-12-16T09:49:41Z</time>
      </trkpt>
      <trkpt lat="41.658865200" lon="2.564493600">
        <ele>708.60</ele>
        <time>2012-12-16T09:50:00Z</time>
      </trkpt>
      <trkpt lat="41.658855400" lon="2.564477500">
        <ele>709.10</ele>
        <time>2012-12-16T09:50:23Z</time>
      </trkpt>
      <trkpt lat="41.658869400" lon="2.564480500">
        <ele>708.60</ele>
        <time>2012-12-16T09:50:47Z</time>
      </trkpt>
      <trkpt lat="41.658877700" lon="2.564486000">
        <ele>709.10</ele>
        <time>2012-12-16T09:51:10Z</time>
      </trkpt>
      <trkpt lat="41.658838600" lon="2.564471500">
        <ele>709.60</ele>
        <time>2012-12-16T09:51:29Z</time>
      </trkpt>
      <trkpt lat="41.658820500" lon="2.564462200">
        <ele>709.10</ele>
        <time>2012-12-16T09:51:43Z</time>
      </trkpt>
      <trkpt lat="41.658817400" lon="2.564447700">
        <ele>709.60</ele>
        <time>2012-12-16T09:51:59Z</time>
      </trkpt>
      <trkpt lat="41.658799800" lon="2.564436100">
        <ele>709.60</ele>
        <time>2012-12-16T09:52:16Z</time>
      </trkpt>
      <trkpt lat="41.658803800" lon="2.564397700">
        <ele>709.60</ele>
        <time>2012-12-16T09:52:28Z</time>
      </trkpt>
      <trkpt lat="41.658808800" lon="2.564431200">
        <ele>709.60</ele>
        <time>2012-12-16T09:52:49Z</time>
      </trkpt>
      <trkpt lat="41.658837500" lon="2.564486200">
        <ele>710.10</ele>
        <time>2012-12-16T09:53:05Z</time>
      </trkpt>
      <trkpt lat="41.658825500" lon="2.564515600">
        <ele>710.10</ele>
        <time>2012-12-16T09:53:22Z</time>
      </trkpt>
      <trkpt lat="41.658831200" lon="2.564503100">
        <ele>710.10</ele>
        <time>2012-12-16T09:53:36Z</time>
      </trkpt>
      <trkpt lat="41.658865100" lon="2.564443600">
        <ele>710.50</ele>
        <time>2012-12-16T09:53:52Z</time>
      </trkpt>
      <trkpt lat="41.658863300" lon="2.564433800">
        <ele>710.50</ele>
        <time>2012-12-16T09:54:11Z</time>
      </trkpt>
      <trkpt lat="41.658865900" lon="2.564441400">
        <ele>710.50</ele>
        <time>2012-12-16T09:54:23Z</time>
      </trkpt>
      <trkpt lat="41.658853600" lon="2.564466800">
        <ele>710.50</ele>
        <time>2012-12-16T09:54:35Z</time>
      </trkpt>
      <trkpt lat="41.658833300" lon="2.564529500">
        <ele>710.50</ele>
        <time>2012-12-16T09:54:53Z</time>
      </trkpt>
      <trkpt lat="41.658818300" lon="2.564539400">
        <ele>711.00</ele>
        <time>2012-12-16T09:55:07Z</time>
      </trkpt>
      <trkpt lat="41.658805800" lon="2.564516600">
        <ele>711.00</ele>
        <time>2012-12-16T09:55:28Z</time>
      </trkpt>
      <trkpt lat="41.658793600" lon="2.564505300">
        <ele>711.00</ele>
        <time>2012-12-16T09:55:42Z</time>
      </trkpt>
      <trkpt lat="41.658808300" lon="2.564496300">
        <ele>711.00</ele>
        <time>2012-12-16T09:56:01Z</time>
      </trkpt>
      <trkpt lat="41.658832200" lon="2.564449800">
        <ele>711.50</ele>
        <time>2012-12-16T09:56:20Z</time>
      </trkpt>
      <trkpt lat="41.658836700" lon="2.564442700">
        <ele>711.50</ele>
        <time>2012-12-16T09:56:34Z</time>
      </trkpt>
      <trkpt lat="41.658869000" lon="2.564429400">
        <ele>711.50</ele>
        <time>2012-12-16T09:56:50Z</time>
      </trkpt>
      <trkpt lat="41.658866500" lon="2.564459600">
        <ele>711.50</ele>
        <time>2012-12-16T09:57:12Z</time>
      </trkpt>
      <trkpt lat="41.658846100" lon="2.564490800">
        <ele>711.50</ele>
        <time>2012-12-16T09:57:28Z</time>
      </trkpt>
      <trkpt lat="41.658823100" lon="2.564498900">
        <ele>711.50</ele>
        <time>2012-12-16T09:57:42Z</time>
      </trkpt>
      <trkpt lat="41.658850400" lon="2.564476900">
        <ele>711.50</ele>
        <time>2012-12-16T09:57:56Z</time>
      </trkpt>
      <trkpt lat="41.658862800" lon="2.564476800">
        <ele>711.50</ele>
        <time>2012-12-16T09:58:15Z</time>
      </trkpt>
      <trkpt lat="41.658828700" lon="2.564471000">
        <ele>712.00</ele>
        <time>2012-12-16T09:58:38Z</time>
      </trkpt>
      <trkpt lat="41.658835800" lon="2.564429400">
        <ele>711.50</ele>
        <time>2012-12-16T09:58:53Z</time>
      </trkpt>
      <trkpt lat="41.658844500" lon="2.564394900">
        <ele>711.50</ele>
        <time>2012-12-16T09:59:07Z</time>
      </trkpt>
      <trkpt lat="41.658839700" lon="2.564396000">
        <ele>711.50</ele>
        <time>2012-12-16T09:59:16Z</time>
      </trkpt>
      <trkpt lat="41.658823400" lon="2.564405500">
        <ele>711.50</ele>
        <time>2012-12-16T09:59:26Z</time>
      </trkpt>
      <trkpt lat="41.658792000" lon="2.564430300">
        <ele>711.50</ele>
        <time>2012-12-16T09:59:40Z</time>
      </trkpt>
      <trkpt lat="41.658783000" lon="2.564496400">
        <ele>711.50</ele>
        <time>2012-12-16T10:00:17Z</time>
      </trkpt>
      <trkpt lat="41.658798100" lon="2.564479100">
        <ele>711.50</ele>
        <time>2012-12-16T10:00:36Z</time>
      </trkpt>
      <trkpt lat="41.658807100" lon="2.564456800">
        <ele>711.50</ele>
        <time>2012-12-16T10:00:57Z</time>
      </trkpt>
      <trkpt lat="41.658825800" lon="2.564450400">
        <ele>711.50</ele>
        <time>2012-12-16T10:01:16Z</time>
      </trkpt>
      <trkpt lat="41.658845500" lon="2.564487200">
        <ele>711.50</ele>
        <time>2012-12-16T10:01:34Z</time>
      </trkpt>
      <trkpt lat="41.658855000" lon="2.564474000">
        <ele>711.50</ele>
        <time>2012-12-16T10:01:51Z</time>
      </trkpt>
      <trkpt lat="41.658826600" lon="2.564464500">
        <ele>711.50</ele>
        <time>2012-12-16T10:02:14Z</time>
      </trkpt>
      <trkpt lat="41.658828600" lon="2.564471400">
        <ele>711.50</ele>
        <time>2012-12-16T10:02:33Z</time>
      </trkpt>
      <trkpt lat="41.658789500" lon="2.564492800">
        <ele>711.50</ele>
        <time>2012-12-16T10:02:52Z</time>
      </trkpt>
      <trkpt lat="41.658818900" lon="2.564475100">
        <ele>711.50</ele>
        <time>2012-12-16T10:03:08Z</time>
      </trkpt>
      <trkpt lat="41.658821900" lon="2.564462600">
        <ele>711.50</ele>
        <time>2012-12-16T10:03:25Z</time>
      </trkpt>
      <trkpt lat="41.658796000" lon="2.564439200">
        <ele>712.00</ele>
        <time>2012-12-16T10:03:44Z</time>
      </trkpt>
      <trkpt lat="41.658815700" lon="2.564436800">
        <ele>712.00</ele>
        <time>2012-12-16T10:04:05Z</time>
      </trkpt>
      <trkpt lat="41.658809500" lon="2.564476000">
        <ele>711.50</ele>
        <time>2012-12-16T10:04:23Z</time>
      </trkpt>
      <trkpt lat="41.658818300" lon="2.564476700">
        <ele>711.50</ele>
        <time>2012-12-16T10:04:38Z</time>
      </trkpt>
      <trkpt lat="41.658822300" lon="2.564468400">
        <ele>712.00</ele>
        <time>2012-12-16T10:04:52Z</time>
      </trkpt>
      <trkpt lat="41.658812000" lon="2.564473500">
        <ele>712.00</ele>
        <time>2012-12-16T10:05:04Z</time>
      </trkpt>
      <trkpt lat="41.658800900" lon="2.564439300">
        <ele>712.00</ele>
        <time>2012-12-16T10:05:20Z</time>
      </trkpt>
      <trkpt lat="41.658791300" lon="2.564402400">
        <ele>712.50</ele>
        <time>2012-12-16T10:05:29Z</time>
      </trkpt>
      <trkpt lat="41.658776500" lon="2.564316500">
        <ele>712.50</ele>
        <time>2012-12-16T10:05:34Z</time>
      </trkpt>
      <trkpt lat="41.658654900" lon="2.564060300">
        <ele>709.10</ele>
        <time>2012-12-16T10:05:41Z</time>
      </trkpt>
      <trkpt lat="41.658642100" lon="2.563965800">
        <ele>708.20</ele>
        <time>2012-12-16T10:05:43Z</time>
      </trkpt>
      <trkpt lat="41.658594900" lon="2.563637000">
        <ele>707.20</ele>
        <time>2012-12-16T10:05:50Z</time>
      </trkpt>
      <trkpt lat="41.658523700" lon="2.563405700">
        <ele>706.70</ele>
        <time>2012-12-16T10:05:57Z</time>
      </trkpt>
      <trkpt lat="41.658376600" lon="2.563167700">
        <ele>705.80</ele>
        <time>2012-12-16T10:06:04Z</time>
      </trkpt>
      <trkpt lat="41.658198900" lon="2.562873100">
        <ele>705.30</ele>
        <time>2012-12-16T10:06:09Z</time>
      </trkpt>
      <trkpt lat="41.658172800" lon="2.562834600">
        <ele>705.30</ele>
        <time>2012-12-16T10:06:11Z</time>
      </trkpt>
      <trkpt lat="41.657999900" lon="2.562631000">
        <ele>707.20</ele>
        <time>2012-12-16T10:06:19Z</time>
      </trkpt>
      <trkpt lat="41.657868000" lon="2.562501200">
        <ele>709.60</ele>
        <time>2012-12-16T10:06:26Z</time>
      </trkpt>
      <trkpt lat="41.657718500" lon="2.562410400">
        <ele>711.00</ele>
        <time>2012-12-16T10:06:35Z</time>
      </trkpt>
      <trkpt lat="41.657609500" lon="2.562371800">
        <ele>712.50</ele>
        <time>2012-12-16T10:06:42Z</time>
      </trkpt>
      <trkpt lat="41.657504600" lon="2.562345600">
        <ele>713.40</ele>
        <time>2012-12-16T10:06:51Z</time>
      </trkpt>
      <trkpt lat="41.657447800" lon="2.562311500">
        <ele>713.90</ele>
        <time>2012-12-16T10:06:56Z</time>
      </trkpt>
      <trkpt lat="41.657405600" lon="2.562233000">
        <ele>714.90</ele>
        <time>2012-12-16T10:07:01Z</time>
      </trkpt>
      <trkpt lat="41.657397000" lon="2.562167700">
        <ele>715.80</ele>
        <time>2012-12-16T10:07:06Z</time>
      </trkpt>
      <trkpt lat="41.657398400" lon="2.562019100">
        <ele>715.40</ele>
        <time>2012-12-16T10:07:13Z</time>
      </trkpt>
      <trkpt lat="41.657396400" lon="2.561855900">
        <ele>715.40</ele>
        <time>2012-12-16T10:07:18Z</time>
      </trkpt>
      <trkpt lat="41.657370300" lon="2.561674500">
        <ele>716.30</ele>
        <time>2012-12-16T10:07:27Z</time>
      </trkpt>
      <trkpt lat="41.657364500" lon="2.561559500">
        <ele>717.30</ele>
        <time>2012-12-16T10:07:32Z</time>
      </trkpt>
      <trkpt lat="41.657408200" lon="2.561306500">
        <ele>719.20</ele>
        <time>2012-12-16T10:07:43Z</time>
      </trkpt>
      <trkpt lat="41.657511600" lon="2.561143300">
        <ele>720.70</ele>
        <time>2012-12-16T10:07:53Z</time>
      </trkpt>
      <trkpt lat="41.657613300" lon="2.561063100">
        <ele>721.10</ele>
        <time>2012-12-16T10:08:00Z</time>
      </trkpt>
      <trkpt lat="41.657755700" lon="2.560968500">
        <ele>722.10</ele>
        <time>2012-12-16T10:08:09Z</time>
      </trkpt>
      <trkpt lat="41.657907100" lon="2.560869200">
        <ele>723.50</ele>
        <time>2012-12-16T10:08:19Z</time>
      </trkpt>
      <trkpt lat="41.658037200" lon="2.560789600">
        <ele>724.50</ele>
        <time>2012-12-16T10:08:28Z</time>
      </trkpt>
      <trkpt lat="41.658184700" lon="2.560727600">
        <ele>725.90</ele>
        <time>2012-12-16T10:08:37Z</time>
      </trkpt>
      <trkpt lat="41.658316500" lon="2.560652900">
        <ele>726.40</ele>
        <time>2012-12-16T10:08:44Z</time>
      </trkpt>
      <trkpt lat="41.658440300" lon="2.560601400">
        <ele>727.90</ele>
        <time>2012-12-16T10:08:51Z</time>
      </trkpt>
      <trkpt lat="41.658580000" lon="2.560554300">
        <ele>728.80</ele>
        <time>2012-12-16T10:08:59Z</time>
      </trkpt>
      <trkpt lat="41.658708600" lon="2.560442800">
        <ele>729.80</ele>
        <time>2012-12-16T10:09:08Z</time>
      </trkpt>
      <trkpt lat="41.658777900" lon="2.560365800">
        <ele>731.70</ele>
        <time>2012-12-16T10:09:15Z</time>
      </trkpt>
      <trkpt lat="41.658888100" lon="2.560277100">
        <ele>732.20</ele>
        <time>2012-12-16T10:09:24Z</time>
      </trkpt>
      <trkpt lat="41.659034800" lon="2.560063300">
        <ele>731.70</ele>
        <time>2012-12-16T10:09:31Z</time>
      </trkpt>
      <trkpt lat="41.659157400" lon="2.559789100">
        <ele>731.70</ele>
        <time>2012-12-16T10:09:38Z</time>
      </trkpt>
      <trkpt lat="41.659279200" lon="2.559564400">
        <ele>729.30</ele>
        <time>2012-12-16T10:09:45Z</time>
      </trkpt>
      <trkpt lat="41.659405500" lon="2.559259400">
        <ele>728.30</ele>
        <time>2012-12-16T10:09:52Z</time>
      </trkpt>
      <trkpt lat="41.659453300" lon="2.559082500">
        <ele>728.80</ele>
        <time>2012-12-16T10:09:57Z</time>
      </trkpt>
      <trkpt lat="41.659506100" lon="2.558877500">
        <ele>728.80</ele>
        <time>2012-12-16T10:10:04Z</time>
      </trkpt>
      <trkpt lat="41.659583300" lon="2.558761200">
        <ele>725.90</ele>
        <time>2012-12-16T10:10:11Z</time>
      </trkpt>
      <trkpt lat="41.659570900" lon="2.558728600">
        <ele>725.50</ele>
        <time>2012-12-16T10:10:13Z</time>
      </trkpt>
      <trkpt lat="41.659476800" lon="2.558672500">
        <ele>726.90</ele>
        <time>2012-12-16T10:10:23Z</time>
      </trkpt>
      <trkpt lat="41.659390800" lon="2.558567800">
        <ele>725.50</ele>
        <time>2012-12-16T10:10:30Z</time>
      </trkpt>
      <trkpt lat="41.659304600" lon="2.558458300">
        <ele>724.00</ele>
        <time>2012-12-16T10:10:37Z</time>
      </trkpt>
      <trkpt lat="41.659205600" lon="2.558324800">
        <ele>723.00</ele>
        <time>2012-12-16T10:10:44Z</time>
      </trkpt>
      <trkpt lat="41.659139400" lon="2.558259900">
        <ele>723.00</ele>
        <time>2012-12-16T10:10:49Z</time>
      </trkpt>
      <trkpt lat="41.659117900" lon="2.558227900">
        <ele>723.00</ele>
        <time>2012-12-16T10:10:58Z</time>
      </trkpt>
      <trkpt lat="41.659121600" lon="2.558160200">
        <ele>722.60</ele>
        <time>2012-12-16T10:11:07Z</time>
      </trkpt>
      <trkpt lat="41.659111200" lon="2.558148200">
        <ele>722.60</ele>
        <time>2012-12-16T10:11:08Z</time>
      </trkpt>
      <trkpt lat="41.659060400" lon="2.558006600">
        <ele>722.60</ele>
        <time>2012-12-16T10:11:15Z</time>
      </trkpt>
      <trkpt lat="41.659018400" lon="2.557900600">
        <ele>723.50</ele>
        <time>2012-12-16T10:11:21Z</time>
      </trkpt>
      <trkpt lat="41.658980100" lon="2.557824900">
        <ele>725.00</ele>
        <time>2012-12-16T10:11:26Z</time>
      </trkpt>
      <trkpt lat="41.658961700" lon="2.557801000">
        <ele>725.00</ele>
        <time>2012-12-16T10:11:33Z</time>
      </trkpt>
      <trkpt lat="41.658968400" lon="2.557750800">
        <ele>725.90</ele>
        <time>2012-12-16T10:11:40Z</time>
      </trkpt>
      <trkpt lat="41.658966100" lon="2.557697000">
        <ele>727.40</ele>
        <time>2012-12-16T10:11:52Z</time>
      </trkpt>
      <trkpt lat="41.658977800" lon="2.557660000">
        <ele>728.80</ele>
        <time>2012-12-16T10:12:01Z</time>
      </trkpt>
      <trkpt lat="41.659000300" lon="2.557604400">
        <ele>730.30</ele>
        <time>2012-12-16T10:12:11Z</time>
      </trkpt>
      <trkpt lat="41.659016700" lon="2.557573000">
        <ele>731.20</ele>
        <time>2012-12-16T10:12:16Z</time>
      </trkpt>
      <trkpt lat="41.659033300" lon="2.557553000">
        <ele>731.20</ele>
        <time>2012-12-16T10:12:23Z</time>
      </trkpt>
      <trkpt lat="41.659020300" lon="2.557539200">
        <ele>731.20</ele>
        <time>2012-12-16T10:12:34Z</time>
      </trkpt>
      <trkpt lat="41.659005300" lon="2.557505100">
        <ele>731.20</ele>
        <time>2012-12-16T10:12:51Z</time>
      </trkpt>
      <trkpt lat="41.659000500" lon="2.557515800">
        <ele>730.70</ele>
        <time>2012-12-16T10:13:10Z</time>
      </trkpt>
      <trkpt lat="41.659018100" lon="2.557509200">
        <ele>731.20</ele>
        <time>2012-12-16T10:13:33Z</time>
      </trkpt>
      <trkpt lat="41.659056800" lon="2.557577400">
        <ele>730.70</ele>
        <time>2012-12-16T10:14:01Z</time>
      </trkpt>
      <trkpt lat="41.659050100" lon="2.557551100">
        <ele>731.20</ele>
        <time>2012-12-16T10:14:17Z</time>
      </trkpt>
      <trkpt lat="41.659069000" lon="2.557541200">
        <ele>731.20</ele>
        <time>2012-12-16T10:14:41Z</time>
      </trkpt>
      <trkpt lat="41.659081800" lon="2.557537400">
        <ele>731.20</ele>
        <time>2012-12-16T10:14:55Z</time>
      </trkpt>
      <trkpt lat="41.659083500" lon="2.557521900">
        <ele>731.70</ele>
        <time>2012-12-16T10:15:07Z</time>
      </trkpt>
      <trkpt lat="41.659056000" lon="2.557516500">
        <ele>731.20</ele>
        <time>2012-12-16T10:15:21Z</time>
      </trkpt>
      <trkpt lat="41.659024300" lon="2.557522300">
        <ele>731.20</ele>
        <time>2012-12-16T10:15:45Z</time>
      </trkpt>
      <trkpt lat="41.659005100" lon="2.557496500">
        <ele>731.20</ele>
        <time>2012-12-16T10:16:05Z</time>
      </trkpt>
      <trkpt lat="41.659028100" lon="2.557490300">
        <ele>731.20</ele>
        <time>2012-12-16T10:16:31Z</time>
      </trkpt>
      <trkpt lat="41.659015600" lon="2.557505600">
        <ele>731.20</ele>
        <time>2012-12-16T10:16:43Z</time>
      </trkpt>
      <trkpt lat="41.659002600" lon="2.557502900">
        <ele>731.20</ele>
        <time>2012-12-16T10:16:55Z</time>
      </trkpt>
      <trkpt lat="41.659000600" lon="2.557481200">
        <ele>731.20</ele>
        <time>2012-12-16T10:17:11Z</time>
      </trkpt>
      <trkpt lat="41.659003400" lon="2.557476500">
        <ele>731.20</ele>
        <time>2012-12-16T10:17:26Z</time>
      </trkpt>
      <trkpt lat="41.659002400" lon="2.557518800">
        <ele>731.20</ele>
        <time>2012-12-16T10:17:47Z</time>
      </trkpt>
      <trkpt lat="41.659020600" lon="2.557533400">
        <ele>731.20</ele>
        <time>2012-12-16T10:18:05Z</time>
      </trkpt>
      <trkpt lat="41.659014700" lon="2.557550800">
        <ele>731.20</ele>
        <time>2012-12-16T10:18:20Z</time>
      </trkpt>
      <trkpt lat="41.659003700" lon="2.557537100">
        <ele>731.20</ele>
        <time>2012-12-16T10:18:40Z</time>
      </trkpt>
      <trkpt lat="41.659011500" lon="2.557494000">
        <ele>731.70</ele>
        <time>2012-12-16T10:19:02Z</time>
      </trkpt>
      <trkpt lat="41.659015300" lon="2.557470700">
        <ele>731.70</ele>
        <time>2012-12-16T10:19:20Z</time>
      </trkpt>
      <trkpt lat="41.659031600" lon="2.557449000">
        <ele>731.20</ele>
        <time>2012-12-16T10:19:42Z</time>
      </trkpt>
      <trkpt lat="41.659037400" lon="2.557470600">
        <ele>731.70</ele>
        <time>2012-12-16T10:19:58Z</time>
      </trkpt>
      <trkpt lat="41.659021800" lon="2.557507800">
        <ele>731.70</ele>
        <time>2012-12-16T10:20:21Z</time>
      </trkpt>
      <trkpt lat="41.659023600" lon="2.557541900">
        <ele>731.70</ele>
        <time>2012-12-16T10:20:35Z</time>
      </trkpt>
      <trkpt lat="41.659015800" lon="2.557565900">
        <ele>731.70</ele>
        <time>2012-12-16T10:21:13Z</time>
      </trkpt>
      <trkpt lat="41.659011900" lon="2.557562700">
        <ele>731.70</ele>
        <time>2012-12-16T10:21:30Z</time>
      </trkpt>
      <trkpt lat="41.659005900" lon="2.557568600">
        <ele>731.20</ele>
        <time>2012-12-16T10:21:46Z</time>
      </trkpt>
      <trkpt lat="41.659028700" lon="2.557558800">
        <ele>731.70</ele>
        <time>2012-12-16T10:22:02Z</time>
      </trkpt>
      <trkpt lat="41.659034800" lon="2.557552000">
        <ele>731.70</ele>
        <time>2012-12-16T10:22:12Z</time>
      </trkpt>
      <trkpt lat="41.659017200" lon="2.557513800">
        <ele>731.70</ele>
        <time>2012-12-16T10:22:50Z</time>
      </trkpt>
      <trkpt lat="41.659040300" lon="2.557507000">
        <ele>731.20</ele>
        <time>2012-12-16T10:23:10Z</time>
      </trkpt>
      <trkpt lat="41.659054900" lon="2.557521100">
        <ele>731.20</ele>
        <time>2012-12-16T10:23:24Z</time>
      </trkpt>
      <trkpt lat="41.659056300" lon="2.557524700">
        <ele>731.70</ele>
        <time>2012-12-16T10:23:39Z</time>
      </trkpt>
      <trkpt lat="41.659042600" lon="2.557548000">
        <ele>731.20</ele>
        <time>2012-12-16T10:23:51Z</time>
      </trkpt>
      <trkpt lat="41.659044500" lon="2.557540000">
        <ele>731.20</ele>
        <time>2012-12-16T10:24:05Z</time>
      </trkpt>
      <trkpt lat="41.659043000" lon="2.557543000">
        <ele>731.70</ele>
        <time>2012-12-16T10:24:23Z</time>
      </trkpt>
      <trkpt lat="41.659031000" lon="2.557571400">
        <ele>731.70</ele>
        <time>2012-12-16T10:24:40Z</time>
      </trkpt>
      <trkpt lat="41.659016100" lon="2.557565000">
        <ele>731.70</ele>
        <time>2012-12-16T10:24:54Z</time>
      </trkpt>
      <trkpt lat="41.659007600" lon="2.557532400">
        <ele>731.20</ele>
        <time>2012-12-16T10:25:12Z</time>
      </trkpt>
      <trkpt lat="41.658977300" lon="2.557551700">
        <ele>731.70</ele>
        <time>2012-12-16T10:25:31Z</time>
      </trkpt>
      <trkpt lat="41.658977800" lon="2.557521400">
        <ele>731.70</ele>
        <time>2012-12-16T10:25:55Z</time>
      </trkpt>
      <trkpt lat="41.658984000" lon="2.557500500">
        <ele>731.70</ele>
        <time>2012-12-16T10:26:18Z</time>
      </trkpt>
      <trkpt lat="41.658972700" lon="2.557502700">
        <ele>731.70</ele>
        <time>2012-12-16T10:26:33Z</time>
      </trkpt>
      <trkpt lat="41.658987800" lon="2.557522300">
        <ele>731.70</ele>
        <time>2012-12-16T10:26:56Z</time>
      </trkpt>
      <trkpt lat="41.659034300" lon="2.557518200">
        <ele>731.70</ele>
        <time>2012-12-16T10:27:17Z</time>
      </trkpt>
      <trkpt lat="41.659034300" lon="2.557513900">
        <ele>732.20</ele>
        <time>2012-12-16T10:27:38Z</time>
      </trkpt>
      <trkpt lat="41.659007200" lon="2.557496100">
        <ele>732.20</ele>
        <time>2012-12-16T10:28:00Z</time>
      </trkpt>
      <trkpt lat="41.659012900" lon="2.557519400">
        <ele>732.20</ele>
        <time>2012-12-16T10:28:21Z</time>
      </trkpt>
      <trkpt lat="41.659039500" lon="2.557553500">
        <ele>732.20</ele>
        <time>2012-12-16T10:28:49Z</time>
      </trkpt>
      <trkpt lat="41.659015200" lon="2.557552700">
        <ele>732.20</ele>
        <time>2012-12-16T10:29:14Z</time>
      </trkpt>
      <trkpt lat="41.659002200" lon="2.557562400">
        <ele>732.20</ele>
        <time>2012-12-16T10:29:29Z</time>
      </trkpt>
      <trkpt lat="41.659012300" lon="2.557550400">
        <ele>731.70</ele>
        <time>2012-12-16T10:29:38Z</time>
      </trkpt>
      <trkpt lat="41.659007200" lon="2.557562500">
        <ele>731.20</ele>
        <time>2012-12-16T10:29:47Z</time>
      </trkpt>
      <trkpt lat="41.659006000" lon="2.557574700">
        <ele>730.70</ele>
        <time>2012-12-16T10:29:52Z</time>
      </trkpt>
      <trkpt lat="41.658997400" lon="2.557607000">
        <ele>729.80</ele>
        <time>2012-12-16T10:29:59Z</time>
      </trkpt>
      <trkpt lat="41.658981000" lon="2.557651800">
        <ele>728.30</ele>
        <time>2012-12-16T10:30:09Z</time>
      </trkpt>
      <trkpt lat="41.658958100" lon="2.557703300">
        <ele>726.40</ele>
        <time>2012-12-16T10:30:16Z</time>
      </trkpt>
      <trkpt lat="41.658946700" lon="2.557711500">
        <ele>726.40</ele>
        <time>2012-12-16T10:30:18Z</time>
      </trkpt>
      <trkpt lat="41.658944400" lon="2.557753500">
        <ele>725.50</ele>
        <time>2012-12-16T10:30:27Z</time>
      </trkpt>
      <trkpt lat="41.658950900" lon="2.557769300">
        <ele>725.50</ele>
        <time>2012-12-16T10:30:37Z</time>
      </trkpt>
      <trkpt lat="41.658957100" lon="2.557771900">
        <ele>725.50</ele>
        <time>2012-12-16T10:30:46Z</time>
      </trkpt>
      <trkpt lat="41.658966300" lon="2.557784300">
        <ele>725.50</ele>
        <time>2012-12-16T10:30:56Z</time>
      </trkpt>
      <trkpt lat="41.658985100" lon="2.557787400">
        <ele>725.50</ele>
        <time>2012-12-16T10:31:10Z</time>
      </trkpt>
      <trkpt lat="41.658982600" lon="2.557816700">
        <ele>725.50</ele>
        <time>2012-12-16T10:31:24Z</time>
      </trkpt>
      <trkpt lat="41.658972800" lon="2.557799600">
        <ele>725.50</ele>
        <time>2012-12-16T10:31:49Z</time>
      </trkpt>
      <trkpt lat="41.658964000" lon="2.557799900">
        <ele>725.50</ele>
        <time>2012-12-16T10:32:04Z</time>
      </trkpt>
      <trkpt lat="41.658958800" lon="2.557753600">
        <ele>725.50</ele>
        <time>2012-12-16T10:32:20Z</time>
      </trkpt>
      <trkpt lat="41.658980800" lon="2.557754700">
        <ele>725.50</ele>
        <time>2012-12-16T10:32:36Z</time>
      </trkpt>
      <trkpt lat="41.658967400" lon="2.557789600">
        <ele>725.90</ele>
        <time>2012-12-16T10:32:50Z</time>
      </trkpt>
      <trkpt lat="41.658970300" lon="2.557801000">
        <ele>725.90</ele>
        <time>2012-12-16T10:33:02Z</time>
      </trkpt>
      <trkpt lat="41.658991900" lon="2.557805900">
        <ele>725.90</ele>
        <time>2012-12-16T10:33:16Z</time>
      </trkpt>
      <trkpt lat="41.658992300" lon="2.557797900">
        <ele>725.50</ele>
        <time>2012-12-16T10:33:35Z</time>
      </trkpt>
      <trkpt lat="41.659016900" lon="2.557914600">
        <ele>724.00</ele>
        <time>2012-12-16T10:33:40Z</time>
      </trkpt>
      <trkpt lat="41.659049400" lon="2.558020900">
        <ele>724.00</ele>
        <time>2012-12-16T10:33:44Z</time>
      </trkpt>
      <trkpt lat="41.659061900" lon="2.558071000">
        <ele>724.00</ele>
        <time>2012-12-16T10:33:47Z</time>
      </trkpt>
      <trkpt lat="41.659176700" lon="2.558203200">
        <ele>724.50</ele>
        <time>2012-12-16T10:33:58Z</time>
      </trkpt>
      <trkpt lat="41.659275300" lon="2.558349600">
        <ele>725.50</ele>
        <time>2012-12-16T10:34:06Z</time>
      </trkpt>
      <trkpt lat="41.659298200" lon="2.558385600">
        <ele>725.90</ele>
        <time>2012-12-16T10:34:08Z</time>
      </trkpt>
      <trkpt lat="41.659342900" lon="2.558480600">
        <ele>726.90</ele>
        <time>2012-12-16T10:34:13Z</time>
      </trkpt>
      <trkpt lat="41.659429000" lon="2.558593400">
        <ele>727.90</ele>
        <time>2012-12-16T10:34:22Z</time>
      </trkpt>
      <trkpt lat="41.659575100" lon="2.558683500">
        <ele>726.40</ele>
        <time>2012-12-16T10:34:31Z</time>
      </trkpt>
      <trkpt lat="41.659591100" lon="2.558694400">
        <ele>725.90</ele>
        <time>2012-12-16T10:34:31Z</time>
      </trkpt>
      <trkpt lat="41.659689300" lon="2.558687200">
        <ele>724.00</ele>
        <time>2012-12-16T10:34:36Z</time>
      </trkpt>
      <trkpt lat="41.659831100" lon="2.558630800">
        <ele>720.20</ele>
        <time>2012-12-16T10:34:41Z</time>
      </trkpt>
      <trkpt lat="41.659981200" lon="2.558552700">
        <ele>716.30</ele>
        <time>2012-12-16T10:34:46Z</time>
      </trkpt>
      <trkpt lat="41.660019600" lon="2.558531800">
        <ele>714.90</ele>
        <time>2012-12-16T10:34:46Z</time>
      </trkpt>
      <trkpt lat="41.660202900" lon="2.558469300">
        <ele>710.50</ele>
        <time>2012-12-16T10:34:50Z</time>
      </trkpt>
      <trkpt lat="41.660378000" lon="2.558427500">
        <ele>705.80</ele>
        <time>2012-12-16T10:34:53Z</time>
      </trkpt>
      <trkpt lat="41.660528000" lon="2.558408500">
        <ele>701.90</ele>
        <time>2012-12-16T10:34:55Z</time>
      </trkpt>
      <trkpt lat="41.660750400" lon="2.558381300">
        <ele>698.50</ele>
        <time>2012-12-16T10:34:59Z</time>
      </trkpt>
      <trkpt lat="41.661003000" lon="2.558343500">
        <ele>695.70</ele>
        <time>2012-12-16T10:35:02Z</time>
      </trkpt>
      <trkpt lat="41.661271600" lon="2.558286100">
        <ele>692.30</ele>
        <time>2012-12-16T10:35:06Z</time>
      </trkpt>
      <trkpt lat="41.661327200" lon="2.558193900">
        <ele>689.90</ele>
        <time>2012-12-16T10:35:11Z</time>
      </trkpt>
      <trkpt lat="41.661155500" lon="2.558106700">
        <ele>687.50</ele>
        <time>2012-12-16T10:35:16Z</time>
      </trkpt>
      <trkpt lat="41.661092800" lon="2.558071400">
        <ele>687.00</ele>
        <time>2012-12-16T10:35:18Z</time>
      </trkpt>
      <trkpt lat="41.661000500" lon="2.558044700">
        <ele>685.60</ele>
        <time>2012-12-16T10:35:21Z</time>
      </trkpt>
      <trkpt lat="41.660826600" lon="2.557977800">
        <ele>684.10</ele>
        <time>2012-12-16T10:35:23Z</time>
      </trkpt>
      <trkpt lat="41.660480800" lon="2.557786800">
        <ele>681.20</ele>
        <time>2012-12-16T10:35:30Z</time>
      </trkpt>
      <trkpt lat="41.660364600" lon="2.557626800">
        <ele>679.30</ele>
        <time>2012-12-16T10:35:33Z</time>
      </trkpt>
      <trkpt lat="41.660439000" lon="2.557490900">
        <ele>677.90</ele>
        <time>2012-12-16T10:35:37Z</time>
      </trkpt>
      <trkpt lat="41.660558800" lon="2.557366400">
        <ele>675.50</ele>
        <time>2012-12-16T10:35:42Z</time>
      </trkpt>
      <trkpt lat="41.660699700" lon="2.557244600">
        <ele>673.50</ele>
        <time>2012-12-16T10:35:46Z</time>
      </trkpt>
      <trkpt lat="41.660823500" lon="2.557107500">
        <ele>673.50</ele>
        <time>2012-12-16T10:35:51Z</time>
      </trkpt>
      <trkpt lat="41.660920600" lon="2.556889600">
        <ele>675.50</ele>
        <time>2012-12-16T10:36:00Z</time>
      </trkpt>
      <trkpt lat="41.661046000" lon="2.556640800">
        <ele>676.40</ele>
        <time>2012-12-16T10:36:10Z</time>
      </trkpt>
      <trkpt lat="41.661128200" lon="2.556456800">
        <ele>676.40</ele>
        <time>2012-12-16T10:36:17Z</time>
      </trkpt>
      <trkpt lat="41.661198000" lon="2.556218900">
        <ele>676.40</ele>
        <time>2012-12-16T10:36:24Z</time>
      </trkpt>
      <trkpt lat="41.661226300" lon="2.555962300">
        <ele>677.40</ele>
        <time>2012-12-16T10:36:31Z</time>
      </trkpt>
      <trkpt lat="41.661297800" lon="2.555696000">
        <ele>676.40</ele>
        <time>2012-12-16T10:36:38Z</time>
      </trkpt>
      <trkpt lat="41.661436200" lon="2.555494600">
        <ele>676.40</ele>
        <time>2012-12-16T10:36:43Z</time>
      </trkpt>
      <trkpt lat="41.661570100" lon="2.555206400">
        <ele>673.10</ele>
        <time>2012-12-16T10:36:50Z</time>
      </trkpt>
      <trkpt lat="41.661597200" lon="2.554892600">
        <ele>670.70</ele>
        <time>2012-12-16T10:36:54Z</time>
      </trkpt>
      <trkpt lat="41.661599800" lon="2.554726300">
        <ele>669.70</ele>
        <time>2012-12-16T10:36:55Z</time>
      </trkpt>
      <trkpt lat="41.661615900" lon="2.554466200">
        <ele>666.80</ele>
        <time>2012-12-16T10:36:59Z</time>
      </trkpt>
      <trkpt lat="41.661621900" lon="2.554376100">
        <ele>665.80</ele>
        <time>2012-12-16T10:36:59Z</time>
      </trkpt>
      <trkpt lat="41.661706200" lon="2.554125900">
        <ele>661.50</ele>
        <time>2012-12-16T10:37:04Z</time>
      </trkpt>
      <trkpt lat="41.661804500" lon="2.553946900">
        <ele>658.20</ele>
        <time>2012-12-16T10:37:06Z</time>
      </trkpt>
      <trkpt lat="41.661902500" lon="2.553615800">
        <ele>652.40</ele>
        <time>2012-12-16T10:37:11Z</time>
      </trkpt>
      <trkpt lat="41.661906400" lon="2.553550800">
        <ele>651.40</ele>
        <time>2012-12-16T10:37:13Z</time>
      </trkpt>
      <trkpt lat="41.661880100" lon="2.553274800">
        <ele>647.10</ele>
        <time>2012-12-16T10:37:18Z</time>
      </trkpt>
      <trkpt lat="41.661771400" lon="2.553132700">
        <ele>644.20</ele>
        <time>2012-12-16T10:37:21Z</time>
      </trkpt>
      <trkpt lat="41.661632900" lon="2.553059100">
        <ele>640.40</ele>
        <time>2012-12-16T10:37:25Z</time>
      </trkpt>
      <trkpt lat="41.661458900" lon="2.553005800">
        <ele>637.00</ele>
        <time>2012-12-16T10:37:30Z</time>
      </trkpt>
      <trkpt lat="41.661275100" lon="2.552961400">
        <ele>633.20</ele>
        <time>2012-12-16T10:37:32Z</time>
      </trkpt>
      <trkpt lat="41.661099600" lon="2.552792600">
        <ele>629.80</ele>
        <time>2012-12-16T10:37:37Z</time>
      </trkpt>
      <trkpt lat="41.661103500" lon="2.552744800">
        <ele>629.30</ele>
        <time>2012-12-16T10:37:39Z</time>
      </trkpt>
      <trkpt lat="41.661149600" lon="2.552555900">
        <ele>629.30</ele>
        <time>2012-12-16T10:37:42Z</time>
      </trkpt>
      <trkpt lat="41.661268100" lon="2.552246500">
        <ele>627.40</ele>
        <time>2012-12-16T10:37:49Z</time>
      </trkpt>
      <trkpt lat="41.661425900" lon="2.551770400">
        <ele>625.50</ele>
        <time>2012-12-16T10:37:56Z</time>
      </trkpt>
      <trkpt lat="41.661470000" lon="2.551644800">
        <ele>625.00</ele>
        <time>2012-12-16T10:37:58Z</time>
      </trkpt>
      <trkpt lat="41.661562200" lon="2.551359600">
        <ele>625.50</ele>
        <time>2012-12-16T10:38:05Z</time>
      </trkpt>
      <trkpt lat="41.661674600" lon="2.551162400">
        <ele>625.00</ele>
        <time>2012-12-16T10:38:10Z</time>
      </trkpt>
      <trkpt lat="41.661744600" lon="2.551071400">
        <ele>624.50</ele>
        <time>2012-12-16T10:38:12Z</time>
      </trkpt>
      <trkpt lat="41.661896100" lon="2.550853500">
        <ele>624.50</ele>
        <time>2012-12-16T10:38:17Z</time>
      </trkpt>
      <trkpt lat="41.661938900" lon="2.550758200">
        <ele>623.50</ele>
        <time>2012-12-16T10:38:19Z</time>
      </trkpt>
      <trkpt lat="41.662033400" lon="2.550483000">
        <ele>624.00</ele>
        <time>2012-12-16T10:38:26Z</time>
      </trkpt>
      <trkpt lat="41.662138100" lon="2.550283200">
        <ele>623.50</ele>
        <time>2012-12-16T10:38:31Z</time>
      </trkpt>
      <trkpt lat="41.662194700" lon="2.550209700">
        <ele>622.60</ele>
        <time>2012-12-16T10:38:33Z</time>
      </trkpt>
      <trkpt lat="41.662459100" lon="2.549919300">
        <ele>619.20</ele>
        <time>2012-12-16T10:38:40Z</time>
      </trkpt>
      <trkpt lat="41.662645000" lon="2.549695900">
        <ele>615.40</ele>
        <time>2012-12-16T10:38:43Z</time>
      </trkpt>
      <trkpt lat="41.662727000" lon="2.549481400">
        <ele>612.50</ele>
        <time>2012-12-16T10:38:47Z</time>
      </trkpt>
      <trkpt lat="41.662717100" lon="2.549052400">
        <ele>608.70</ele>
        <time>2012-12-16T10:38:54Z</time>
      </trkpt>
      <trkpt lat="41.662757900" lon="2.548884100">
        <ele>605.30</ele>
        <time>2012-12-16T10:38:55Z</time>
      </trkpt>
      <trkpt lat="41.662860900" lon="2.548339200">
        <ele>600.50</ele>
        <time>2012-12-16T10:39:01Z</time>
      </trkpt>
      <trkpt lat="41.662870100" lon="2.548126800">
        <ele>599.00</ele>
        <time>2012-12-16T10:39:02Z</time>
      </trkpt>
      <trkpt lat="41.662881600" lon="2.547863100">
        <ele>596.60</ele>
        <time>2012-12-16T10:39:08Z</time>
      </trkpt>
      <trkpt lat="41.662876400" lon="2.547823300">
        <ele>596.20</ele>
        <time>2012-12-16T10:39:13Z</time>
      </trkpt>
      <trkpt lat="41.662865500" lon="2.547817300">
        <ele>596.20</ele>
        <time>2012-12-16T10:39:22Z</time>
      </trkpt>
      <trkpt lat="41.662745300" lon="2.547777300">
        <ele>594.20</ele>
        <time>2012-12-16T10:39:29Z</time>
      </trkpt>
      <trkpt lat="41.662562100" lon="2.547798700">
        <ele>592.30</ele>
        <time>2012-12-16T10:39:37Z</time>
      </trkpt>
      <trkpt lat="41.662446700" lon="2.547813000">
        <ele>591.30</ele>
        <time>2012-12-16T10:39:39Z</time>
      </trkpt>
      <trkpt lat="41.662365400" lon="2.547799900">
        <ele>590.90</ele>
        <time>2012-12-16T10:39:41Z</time>
      </trkpt>
      <trkpt lat="41.662102800" lon="2.547708200">
        <ele>589.40</ele>
        <time>2012-12-16T10:39:48Z</time>
      </trkpt>
      <trkpt lat="41.661885900" lon="2.547632200">
        <ele>588.50</ele>
        <time>2012-12-16T10:39:55Z</time>
      </trkpt>
      <trkpt lat="41.661638300" lon="2.547634200">
        <ele>589.40</ele>
        <time>2012-12-16T10:40:02Z</time>
      </trkpt>
      <trkpt lat="41.661388400" lon="2.547600500">
        <ele>587.50</ele>
        <time>2012-12-16T10:40:07Z</time>
      </trkpt>
      <trkpt lat="41.661194400" lon="2.547629100">
        <ele>585.10</ele>
        <time>2012-12-16T10:40:12Z</time>
      </trkpt>
      <trkpt lat="41.661096800" lon="2.547648100">
        <ele>584.10</ele>
        <time>2012-12-16T10:40:14Z</time>
      </trkpt>
      <trkpt lat="41.660870100" lon="2.547663600">
        <ele>581.70</ele>
        <time>2012-12-16T10:40:19Z</time>
      </trkpt>
      <trkpt lat="41.660706100" lon="2.547663500">
        <ele>579.80</ele>
        <time>2012-12-16T10:40:23Z</time>
      </trkpt>
      <trkpt lat="41.660559800" lon="2.547654200">
        <ele>578.40</ele>
        <time>2012-12-16T10:40:26Z</time>
      </trkpt>
      <trkpt lat="41.660439600" lon="2.547654200">
        <ele>577.40</ele>
        <time>2012-12-16T10:40:31Z</time>
      </trkpt>
      <trkpt lat="41.660395900" lon="2.547614200">
        <ele>576.50</ele>
        <time>2012-12-16T10:40:35Z</time>
      </trkpt>
      <trkpt lat="41.660371400" lon="2.547556600">
        <ele>575.00</ele>
        <time>2012-12-16T10:40:38Z</time>
      </trkpt>
      <trkpt lat="41.660238400" lon="2.547463700">
        <ele>571.60</ele>
        <time>2012-12-16T10:40:47Z</time>
      </trkpt>
      <trkpt lat="41.660204300" lon="2.547449200">
        <ele>570.70</ele>
        <time>2012-12-16T10:40:49Z</time>
      </trkpt>
      <trkpt lat="41.660117600" lon="2.547424000">
        <ele>568.30</ele>
        <time>2012-12-16T10:40:56Z</time>
      </trkpt>
      <trkpt lat="41.660036100" lon="2.547460100">
        <ele>566.80</ele>
        <time>2012-12-16T10:41:01Z</time>
      </trkpt>
      <trkpt lat="41.660004600" lon="2.547516500">
        <ele>564.90</ele>
        <time>2012-12-16T10:41:04Z</time>
      </trkpt>
      <trkpt lat="41.659960900" lon="2.547553800">
        <ele>562.50</ele>
        <time>2012-12-16T10:41:11Z</time>
      </trkpt>
      <trkpt lat="41.659949800" lon="2.547575700">
        <ele>562.00</ele>
        <time>2012-12-16T10:41:18Z</time>
      </trkpt>
      <trkpt lat="41.659923700" lon="2.547612800">
        <ele>561.10</ele>
        <time>2012-12-16T10:41:25Z</time>
      </trkpt>
      <trkpt lat="41.659919200" lon="2.547637700">
        <ele>560.10</ele>
        <time>2012-12-16T10:41:32Z</time>
      </trkpt>
      <trkpt lat="41.659901400" lon="2.547677800">
        <ele>559.10</ele>
        <time>2012-12-16T10:41:39Z</time>
      </trkpt>
      <trkpt lat="41.659901200" lon="2.547686400">
        <ele>558.70</ele>
        <time>2012-12-16T10:41:41Z</time>
      </trkpt>
      <trkpt lat="41.659880200" lon="2.547729000">
        <ele>557.70</ele>
        <time>2012-12-16T10:41:48Z</time>
      </trkpt>
      <trkpt lat="41.659846700" lon="2.547769700">
        <ele>556.30</ele>
        <time>2012-12-16T10:41:55Z</time>
      </trkpt>
      <trkpt lat="41.659816000" lon="2.547827300">
        <ele>554.80</ele>
        <time>2012-12-16T10:42:04Z</time>
      </trkpt>
      <trkpt lat="41.659771200" lon="2.547872400">
        <ele>552.90</ele>
        <time>2012-12-16T10:42:12Z</time>
      </trkpt>
      <trkpt lat="41.659735700" lon="2.547900600">
        <ele>551.90</ele>
        <time>2012-12-16T10:42:21Z</time>
      </trkpt>
      <trkpt lat="41.659690700" lon="2.547941900">
        <ele>551.00</ele>
        <time>2012-12-16T10:42:28Z</time>
      </trkpt>
      <trkpt lat="41.659667000" lon="2.547969000">
        <ele>550.50</ele>
        <time>2012-12-16T10:42:35Z</time>
      </trkpt>
      <trkpt lat="41.659637600" lon="2.547990500">
        <ele>550.50</ele>
        <time>2012-12-16T10:42:42Z</time>
      </trkpt>
      <trkpt lat="41.659623900" lon="2.548009400">
        <ele>550.00</ele>
        <time>2012-12-16T10:42:44Z</time>
      </trkpt>
      <trkpt lat="41.659525500" lon="2.548039200">
        <ele>549.00</ele>
        <time>2012-12-16T10:42:49Z</time>
      </trkpt>
      <trkpt lat="41.659487000" lon="2.548046400">
        <ele>548.60</ele>
        <time>2012-12-16T10:42:52Z</time>
      </trkpt>
      <trkpt lat="41.659327900" lon="2.547958100">
        <ele>544.70</ele>
        <time>2012-12-16T10:42:59Z</time>
      </trkpt>
      <trkpt lat="41.659156100" lon="2.547873300">
        <ele>541.40</ele>
        <time>2012-12-16T10:43:05Z</time>
      </trkpt>
      <trkpt lat="41.658957600" lon="2.547844300">
        <ele>540.40</ele>
        <time>2012-12-16T10:43:10Z</time>
      </trkpt>
      <trkpt lat="41.658778900" lon="2.547807000">
        <ele>539.00</ele>
        <time>2012-12-16T10:43:15Z</time>
      </trkpt>
      <trkpt lat="41.658709900" lon="2.547739800">
        <ele>535.60</ele>
        <time>2012-12-16T10:43:20Z</time>
      </trkpt>
      <trkpt lat="41.658653000" lon="2.547612300">
        <ele>532.70</ele>
        <time>2012-12-16T10:43:24Z</time>
      </trkpt>
      <trkpt lat="41.658650300" lon="2.547477000">
        <ele>529.30</ele>
        <time>2012-12-16T10:43:29Z</time>
      </trkpt>
      <trkpt lat="41.658652900" lon="2.547449400">
        <ele>528.90</ele>
        <time>2012-12-16T10:43:29Z</time>
      </trkpt>
      <trkpt lat="41.658644600" lon="2.547377800">
        <ele>527.40</ele>
        <time>2012-12-16T10:43:32Z</time>
      </trkpt>
      <trkpt lat="41.658525100" lon="2.547208600">
        <ele>523.10</ele>
        <time>2012-12-16T10:43:38Z</time>
      </trkpt>
      <trkpt lat="41.658463900" lon="2.547151400">
        <ele>522.10</ele>
        <time>2012-12-16T10:43:41Z</time>
      </trkpt>
      <trkpt lat="41.658361800" lon="2.546984000">
        <ele>518.80</ele>
        <time>2012-12-16T10:43:45Z</time>
      </trkpt>
      <trkpt lat="41.658318200" lon="2.546862800">
        <ele>516.80</ele>
        <time>2012-12-16T10:43:46Z</time>
      </trkpt>
      <trkpt lat="41.658223100" lon="2.546588400">
        <ele>514.00</ele>
        <time>2012-12-16T10:43:50Z</time>
      </trkpt>
      <trkpt lat="41.658226600" lon="2.546480600">
        <ele>512.50</ele>
        <time>2012-12-16T10:43:53Z</time>
      </trkpt>
      <trkpt lat="41.658264800" lon="2.546480100">
        <ele>512.00</ele>
        <time>2012-12-16T10:43:57Z</time>
      </trkpt>
      <trkpt lat="41.658320200" lon="2.546560100">
        <ele>510.60</ele>
        <time>2012-12-16T10:44:00Z</time>
      </trkpt>
      <trkpt lat="41.658504400" lon="2.546675600">
        <ele>508.20</ele>
        <time>2012-12-16T10:44:06Z</time>
      </trkpt>
      <trkpt lat="41.658533400" lon="2.546688800">
        <ele>507.20</ele>
        <time>2012-12-16T10:44:07Z</time>
      </trkpt>
      <trkpt lat="41.658748800" lon="2.546600900">
        <ele>502.90</ele>
        <time>2012-12-16T10:44:11Z</time>
      </trkpt>
      <trkpt lat="41.658851600" lon="2.546612600">
        <ele>502.00</ele>
        <time>2012-12-16T10:44:14Z</time>
      </trkpt>
      <trkpt lat="41.659028300" lon="2.546591800">
        <ele>500.00</ele>
        <time>2012-12-16T10:44:18Z</time>
      </trkpt>
      <trkpt lat="41.658999500" lon="2.546406600">
        <ele>496.70</ele>
        <time>2012-12-16T10:44:23Z</time>
      </trkpt>
      <trkpt lat="41.659015200" lon="2.545913300">
        <ele>490.90</ele>
        <time>2012-12-16T10:44:30Z</time>
      </trkpt>
      <trkpt lat="41.659035300" lon="2.545817700">
        <ele>489.50</ele>
        <time>2012-12-16T10:44:32Z</time>
      </trkpt>
      <trkpt lat="41.659071000" lon="2.545642900">
        <ele>486.10</ele>
        <time>2012-12-16T10:44:35Z</time>
      </trkpt>
      <trkpt lat="41.659077800" lon="2.545559500">
        <ele>484.60</ele>
        <time>2012-12-16T10:44:37Z</time>
      </trkpt>
      <trkpt lat="41.659063300" lon="2.545511300">
        <ele>484.20</ele>
        <time>2012-12-16T10:44:40Z</time>
      </trkpt>
      <trkpt lat="41.659027700" lon="2.545499300">
        <ele>483.70</ele>
        <time>2012-12-16T10:44:47Z</time>
      </trkpt>
      <trkpt lat="41.659031000" lon="2.545476400">
        <ele>483.70</ele>
        <time>2012-12-16T10:45:08Z</time>
      </trkpt>
      <trkpt lat="41.659029900" lon="2.545470900">
        <ele>483.70</ele>
        <time>2012-12-16T10:45:19Z</time>
      </trkpt>
      <trkpt lat="41.659031800" lon="2.545472800">
        <ele>483.70</ele>
        <time>2012-12-16T10:45:31Z</time>
      </trkpt>
      <trkpt lat="41.659028600" lon="2.545469000">
        <ele>483.70</ele>
        <time>2012-12-16T10:45:41Z</time>
      </trkpt>
      <trkpt lat="41.658822900" lon="2.545781700">
        <ele>483.70</ele>
        <time>2012-12-16T10:45:55Z</time>
      </trkpt>
      <trkpt lat="41.658684400" lon="2.545832800">
        <ele>483.70</ele>
        <time>2012-12-16T10:45:59Z</time>
      </trkpt>
      <trkpt lat="41.658536900" lon="2.545790000">
        <ele>484.60</ele>
        <time>2012-12-16T10:46:06Z</time>
      </trkpt>
      <trkpt lat="41.658421000" lon="2.545736300">
        <ele>486.10</ele>
        <time>2012-12-16T10:46:13Z</time>
      </trkpt>
      <trkpt lat="41.658308100" lon="2.545672200">
        <ele>487.50</ele>
        <time>2012-12-16T10:46:18Z</time>
      </trkpt>
      <trkpt lat="41.658231400" lon="2.545614100">
        <ele>488.00</ele>
        <time>2012-12-16T10:46:23Z</time>
      </trkpt>
      <trkpt lat="41.658152000" lon="2.545554300">
        <ele>487.50</ele>
        <time>2012-12-16T10:46:28Z</time>
      </trkpt>
      <trkpt lat="41.658001300" lon="2.545429500">
        <ele>486.60</ele>
        <time>2012-12-16T10:46:34Z</time>
      </trkpt>
      <trkpt lat="41.657803800" lon="2.545410100">
        <ele>485.10</ele>
        <time>2012-12-16T10:46:39Z</time>
      </trkpt>
      <trkpt lat="41.657576500" lon="2.545564100">
        <ele>485.60</ele>
        <time>2012-12-16T10:46:46Z</time>
      </trkpt>
      <trkpt lat="41.657359900" lon="2.545646500">
        <ele>487.00</ele>
        <time>2012-12-16T10:46:54Z</time>
      </trkpt>
      <trkpt lat="41.657131600" lon="2.545703000">
        <ele>488.00</ele>
        <time>2012-12-16T10:47:03Z</time>
      </trkpt>
      <trkpt lat="41.656839500" lon="2.545716600">
        <ele>487.50</ele>
        <time>2012-12-16T10:47:12Z</time>
      </trkpt>
      <trkpt lat="41.656586100" lon="2.545646000">
        <ele>487.00</ele>
        <time>2012-12-16T10:47:19Z</time>
      </trkpt>
      <trkpt lat="41.656337800" lon="2.545636400">
        <ele>487.00</ele>
        <time>2012-12-16T10:47:26Z</time>
      </trkpt>
      <trkpt lat="41.656070200" lon="2.545684500">
        <ele>486.60</ele>
        <time>2012-12-16T10:47:35Z</time>
      </trkpt>
      <trkpt lat="41.656030800" lon="2.545686200">
        <ele>486.60</ele>
        <time>2012-12-16T10:47:36Z</time>
      </trkpt>
      <trkpt lat="41.655855300" lon="2.545626400">
        <ele>485.10</ele>
        <time>2012-12-16T10:47:40Z</time>
      </trkpt>
      <trkpt lat="41.655699300" lon="2.545496300">
        <ele>482.70</ele>
        <time>2012-12-16T10:47:43Z</time>
      </trkpt>
      <trkpt lat="41.655539300" lon="2.545214400">
        <ele>479.40</ele>
        <time>2012-12-16T10:47:47Z</time>
      </trkpt>
      <trkpt lat="41.655342500" lon="2.545044600">
        <ele>476.00</ele>
        <time>2012-12-16T10:47:50Z</time>
      </trkpt>
      <trkpt lat="41.655087700" lon="2.545128000">
        <ele>473.60</ele>
        <time>2012-12-16T10:47:54Z</time>
      </trkpt>
      <trkpt lat="41.654809300" lon="2.545148700">
        <ele>469.70</ele>
        <time>2012-12-16T10:47:59Z</time>
      </trkpt>
      <trkpt lat="41.654674700" lon="2.545116400">
        <ele>467.30</ele>
        <time>2012-12-16T10:48:01Z</time>
      </trkpt>
      <trkpt lat="41.654474400" lon="2.545014800">
        <ele>462.50</ele>
        <time>2012-12-16T10:48:04Z</time>
      </trkpt>
      <trkpt lat="41.654314600" lon="2.544930100">
        <ele>458.70</ele>
        <time>2012-12-16T10:48:06Z</time>
      </trkpt>
      <trkpt lat="41.654123200" lon="2.544818700">
        <ele>454.80</ele>
        <time>2012-12-16T10:48:11Z</time>
      </trkpt>
      <trkpt lat="41.653922800" lon="2.544705300">
        <ele>450.50</ele>
        <time>2012-12-16T10:48:13Z</time>
      </trkpt>
      <trkpt lat="41.653766600" lon="2.544653300">
        <ele>447.10</ele>
        <time>2012-12-16T10:48:16Z</time>
      </trkpt>
      <trkpt lat="41.653577600" lon="2.544515100">
        <ele>442.30</ele>
        <time>2012-12-16T10:48:18Z</time>
      </trkpt>
      <trkpt lat="41.653433000" lon="2.544385800">
        <ele>439.90</ele>
        <time>2012-12-16T10:48:22Z</time>
      </trkpt>
      <trkpt lat="41.653119400" lon="2.544354100">
        <ele>435.60</ele>
        <time>2012-12-16T10:48:27Z</time>
      </trkpt>
      <trkpt lat="41.652821700" lon="2.544411700">
        <ele>432.20</ele>
        <time>2012-12-16T10:48:30Z</time>
      </trkpt>
      <trkpt lat="41.652468600" lon="2.544423800">
        <ele>429.90</ele>
        <time>2012-12-16T10:48:34Z</time>
      </trkpt>
      <trkpt lat="41.652057700" lon="2.544574800">
        <ele>426.50</ele>
        <time>2012-12-16T10:48:39Z</time>
      </trkpt>
      <trkpt lat="41.651994200" lon="2.544613100">
        <ele>425.50</ele>
        <time>2012-12-16T10:48:41Z</time>
      </trkpt>
      <trkpt lat="41.651724700" lon="2.544857000">
        <ele>420.20</ele>
        <time>2012-12-16T10:48:44Z</time>
      </trkpt>
      <trkpt lat="41.651488300" lon="2.544926000">
        <ele>416.90</ele>
        <time>2012-12-16T10:48:48Z</time>
      </trkpt>
      <trkpt lat="41.651211900" lon="2.544937600">
        <ele>414.00</ele>
        <time>2012-12-16T10:48:53Z</time>
      </trkpt>
      <trkpt lat="41.651010900" lon="2.545021900">
        <ele>412.50</ele>
        <time>2012-12-16T10:48:55Z</time>
      </trkpt>
      <trkpt lat="41.650823600" lon="2.544931000">
        <ele>410.60</ele>
        <time>2012-12-16T10:48:58Z</time>
      </trkpt>
      <trkpt lat="41.650699700" lon="2.544795100">
        <ele>408.20</ele>
        <time>2012-12-16T10:49:00Z</time>
      </trkpt>
      <trkpt lat="41.650403900" lon="2.544634900">
        <ele>405.80</ele>
        <time>2012-12-16T10:49:05Z</time>
      </trkpt>
      <trkpt lat="41.650000500" lon="2.544685100">
        <ele>402.90</ele>
        <time>2012-12-16T10:49:10Z</time>
      </trkpt>
      <trkpt lat="41.649715900" lon="2.544679100">
        <ele>400.50</ele>
        <time>2012-12-16T10:49:14Z</time>
      </trkpt>
      <trkpt lat="41.649623500" lon="2.544552200">
        <ele>399.10</ele>
        <time>2012-12-16T10:49:16Z</time>
      </trkpt>
      <trkpt lat="41.649543800" lon="2.544414700">
        <ele>399.10</ele>
        <time>2012-12-16T10:49:17Z</time>
      </trkpt>
      <trkpt lat="41.649473400" lon="2.544186400">
        <ele>397.60</ele>
        <time>2012-12-16T10:49:21Z</time>
      </trkpt>
      <trkpt lat="41.649452300" lon="2.543868800">
        <ele>395.70</ele>
        <time>2012-12-16T10:49:24Z</time>
      </trkpt>
      <trkpt lat="41.649356800" lon="2.543264700">
        <ele>392.80</ele>
        <time>2012-12-16T10:49:31Z</time>
      </trkpt>
      <trkpt lat="41.649343900" lon="2.543194400">
        <ele>391.90</ele>
        <time>2012-12-16T10:49:33Z</time>
      </trkpt>
      <trkpt lat="41.649311000" lon="2.543085000">
        <ele>390.90</ele>
        <time>2012-12-16T10:49:35Z</time>
      </trkpt>
      <trkpt lat="41.649279100" lon="2.542985000">
        <ele>390.40</ele>
        <time>2012-12-16T10:49:38Z</time>
      </trkpt>
      <trkpt lat="41.649217600" lon="2.542844600">
        <ele>390.00</ele>
        <time>2012-12-16T10:49:47Z</time>
      </trkpt>
      <trkpt lat="41.649163500" lon="2.542705400">
        <ele>389.50</ele>
        <time>2012-12-16T10:49:56Z</time>
      </trkpt>
      <trkpt lat="41.649117400" lon="2.542566500">
        <ele>389.00</ele>
        <time>2012-12-16T10:50:04Z</time>
      </trkpt>
      <trkpt lat="41.649099700" lon="2.542486100">
        <ele>388.50</ele>
        <time>2012-12-16T10:50:08Z</time>
      </trkpt>
      <trkpt lat="41.649057900" lon="2.542231300">
        <ele>388.50</ele>
        <time>2012-12-16T10:50:13Z</time>
      </trkpt>
      <trkpt lat="41.649064900" lon="2.541861800">
        <ele>387.50</ele>
        <time>2012-12-16T10:50:18Z</time>
      </trkpt>
      <trkpt lat="41.648902200" lon="2.541530800">
        <ele>386.10</ele>
        <time>2012-12-16T10:50:24Z</time>
      </trkpt>
      <trkpt lat="41.648659000" lon="2.541410800">
        <ele>384.70</ele>
        <time>2012-12-16T10:50:27Z</time>
      </trkpt>
      <trkpt lat="41.648433700" lon="2.541372200">
        <ele>383.70</ele>
        <time>2012-12-16T10:50:30Z</time>
      </trkpt>
      <trkpt lat="41.648196400" lon="2.541288200">
        <ele>382.30</ele>
        <time>2012-12-16T10:50:34Z</time>
      </trkpt>
      <trkpt lat="41.648058800" lon="2.541263600">
        <ele>381.30</ele>
        <time>2012-12-16T10:50:36Z</time>
      </trkpt>
      <trkpt lat="41.647706400" lon="2.541030100">
        <ele>377.50</ele>
        <time>2012-12-16T10:50:41Z</time>
      </trkpt>
      <trkpt lat="41.647576500" lon="2.540901300">
        <ele>374.60</ele>
        <time>2012-12-16T10:50:43Z</time>
      </trkpt>
      <trkpt lat="41.647253200" lon="2.540772500">
        <ele>370.20</ele>
        <time>2012-12-16T10:50:46Z</time>
      </trkpt>
      <trkpt lat="41.646726700" lon="2.540831100">
        <ele>365.90</ele>
        <time>2012-12-16T10:50:53Z</time>
      </trkpt>
      <trkpt lat="41.646411800" lon="2.540771200">
        <ele>360.60</ele>
        <time>2012-12-16T10:50:57Z</time>
      </trkpt>
      <trkpt lat="41.646247100" lon="2.540703700">
        <ele>357.80</ele>
        <time>2012-12-16T10:50:58Z</time>
      </trkpt>
      <trkpt lat="41.646107300" lon="2.540628000">
        <ele>354.40</ele>
        <time>2012-12-16T10:51:00Z</time>
      </trkpt>
      <trkpt lat="41.645944600" lon="2.540427600">
        <ele>351.50</ele>
        <time>2012-12-16T10:51:04Z</time>
      </trkpt>
      <trkpt lat="41.645754100" lon="2.540274200">
        <ele>349.60</ele>
        <time>2012-12-16T10:51:07Z</time>
      </trkpt>
      <trkpt lat="41.645589400" lon="2.540200800">
        <ele>348.10</ele>
        <time>2012-12-16T10:51:09Z</time>
      </trkpt>
      <trkpt lat="41.645254400" lon="2.540136900">
        <ele>350.10</ele>
        <time>2012-12-16T10:51:14Z</time>
      </trkpt>
      <trkpt lat="41.645179700" lon="2.540110600">
        <ele>351.00</ele>
        <time>2012-12-16T10:51:16Z</time>
      </trkpt>
      <trkpt lat="41.644952600" lon="2.539990900">
        <ele>352.50</ele>
        <time>2012-12-16T10:51:23Z</time>
      </trkpt>
      <trkpt lat="41.644794700" lon="2.539908600">
        <ele>354.40</ele>
        <time>2012-12-16T10:51:30Z</time>
      </trkpt>
      <trkpt lat="41.644662200" lon="2.539905400">
        <ele>355.30</ele>
        <time>2012-12-16T10:51:37Z</time>
      </trkpt>
      <trkpt lat="41.644595300" lon="2.540061400">
        <ele>357.30</ele>
        <time>2012-12-16T10:51:45Z</time>
      </trkpt>
      <trkpt lat="41.644562100" lon="2.540194000">
        <ele>358.70</ele>
        <time>2012-12-16T10:51:52Z</time>
      </trkpt>
      <trkpt lat="41.644541800" lon="2.540324300">
        <ele>360.60</ele>
        <time>2012-12-16T10:51:59Z</time>
      </trkpt>
      <trkpt lat="41.644454900" lon="2.540445500">
        <ele>361.60</ele>
        <time>2012-12-16T10:52:06Z</time>
      </trkpt>
      <trkpt lat="41.644352700" lon="2.540481400">
        <ele>363.00</ele>
        <time>2012-12-16T10:52:11Z</time>
      </trkpt>
      <trkpt lat="41.644290300" lon="2.540358700">
        <ele>365.00</ele>
        <time>2012-12-16T10:52:20Z</time>
      </trkpt>
      <trkpt lat="41.644257100" lon="2.540168100">
        <ele>367.40</ele>
        <time>2012-12-16T10:52:29Z</time>
      </trkpt>
      <trkpt lat="41.644172700" lon="2.540023500">
        <ele>368.80</ele>
        <time>2012-12-16T10:52:38Z</time>
      </trkpt>
      <trkpt lat="41.644070900" lon="2.539899200">
        <ele>370.70</ele>
        <time>2012-12-16T10:52:46Z</time>
      </trkpt>
      <trkpt lat="41.643973900" lon="2.539791700">
        <ele>372.60</ele>
        <time>2012-12-16T10:52:55Z</time>
      </trkpt>
      <trkpt lat="41.643866300" lon="2.539685500">
        <ele>374.10</ele>
        <time>2012-12-16T10:53:02Z</time>
      </trkpt>
      <trkpt lat="41.643717000" lon="2.539591600">
        <ele>375.50</ele>
        <time>2012-12-16T10:53:11Z</time>
      </trkpt>
      <trkpt lat="41.643563500" lon="2.539507800">
        <ele>377.50</ele>
        <time>2012-12-16T10:53:21Z</time>
      </trkpt>
      <trkpt lat="41.643439900" lon="2.539433300">
        <ele>379.90</ele>
        <time>2012-12-16T10:53:30Z</time>
      </trkpt>
      <trkpt lat="41.643362900" lon="2.539311700">
        <ele>380.80</ele>
        <time>2012-12-16T10:53:37Z</time>
      </trkpt>
      <trkpt lat="41.643262900" lon="2.539178700">
        <ele>383.20</ele>
        <time>2012-12-16T10:53:47Z</time>
      </trkpt>
      <trkpt lat="41.643101300" lon="2.539084900">
        <ele>384.20</ele>
        <time>2012-12-16T10:53:56Z</time>
      </trkpt>
      <trkpt lat="41.642988700" lon="2.539028100">
        <ele>385.60</ele>
        <time>2012-12-16T10:54:03Z</time>
      </trkpt>
      <trkpt lat="41.642875900" lon="2.538948300">
        <ele>386.60</ele>
        <time>2012-12-16T10:54:10Z</time>
      </trkpt>
      <trkpt lat="41.642763100" lon="2.538839400">
        <ele>387.10</ele>
        <time>2012-12-16T10:54:17Z</time>
      </trkpt>
      <trkpt lat="41.642733600" lon="2.538810100">
        <ele>387.50</ele>
        <time>2012-12-16T10:54:19Z</time>
      </trkpt>
      <trkpt lat="41.642629000" lon="2.538726400">
        <ele>388.00</ele>
        <time>2012-12-16T10:54:26Z</time>
      </trkpt>
      <trkpt lat="41.642596500" lon="2.538666500">
        <ele>388.50</ele>
        <time>2012-12-16T10:54:29Z</time>
      </trkpt>
      <trkpt lat="41.642447800" lon="2.538562800">
        <ele>388.00</ele>
        <time>2012-12-16T10:54:36Z</time>
      </trkpt>
      <trkpt lat="41.642219300" lon="2.538540300">
        <ele>387.10</ele>
        <time>2012-12-16T10:54:43Z</time>
      </trkpt>
      <trkpt lat="41.641956400" lon="2.538443000">
        <ele>386.10</ele>
        <time>2012-12-16T10:54:50Z</time>
      </trkpt>
      <trkpt lat="41.641815000" lon="2.538312300">
        <ele>386.60</ele>
        <time>2012-12-16T10:54:57Z</time>
      </trkpt>
      <trkpt lat="41.641699000" lon="2.538112900">
        <ele>387.10</ele>
        <time>2012-12-16T10:55:04Z</time>
      </trkpt>
      <trkpt lat="41.641622000" lon="2.537854600">
        <ele>387.10</ele>
        <time>2012-12-16T10:55:11Z</time>
      </trkpt>
      <trkpt lat="41.641616000" lon="2.537802900">
        <ele>387.10</ele>
        <time>2012-12-16T10:55:13Z</time>
      </trkpt>
      <trkpt lat="41.641590700" lon="2.537501500">
        <ele>386.10</ele>
        <time>2012-12-16T10:55:18Z</time>
      </trkpt>
      <trkpt lat="41.641597600" lon="2.537305800">
        <ele>385.60</ele>
        <time>2012-12-16T10:55:21Z</time>
      </trkpt>
      <trkpt lat="41.641640600" lon="2.537026500">
        <ele>386.10</ele>
        <time>2012-12-16T10:55:27Z</time>
      </trkpt>
      <trkpt lat="41.641531700" lon="2.536793000">
        <ele>385.60</ele>
        <time>2012-12-16T10:55:32Z</time>
      </trkpt>
      <trkpt lat="41.641390700" lon="2.536502600">
        <ele>383.20</ele>
        <time>2012-12-16T10:55:37Z</time>
      </trkpt>
      <trkpt lat="41.641257700" lon="2.535976100">
        <ele>379.90</ele>
        <time>2012-12-16T10:55:44Z</time>
      </trkpt>
      <trkpt lat="41.641160300" lon="2.535714600">
        <ele>378.40</ele>
        <time>2012-12-16T10:55:46Z</time>
      </trkpt>
      <trkpt lat="41.641125600" lon="2.535628000">
        <ele>378.40</ele>
        <time>2012-12-16T10:55:48Z</time>
      </trkpt>
      <trkpt lat="41.640897100" lon="2.535326100">
        <ele>377.90</ele>
        <time>2012-12-16T10:55:53Z</time>
      </trkpt>
      <trkpt lat="41.640748300" lon="2.535220500">
        <ele>377.00</ele>
        <time>2012-12-16T10:55:56Z</time>
      </trkpt>
      <trkpt lat="41.640299300" lon="2.535250200">
        <ele>376.00</ele>
        <time>2012-12-16T10:56:05Z</time>
      </trkpt>
      <trkpt lat="41.640117300" lon="2.535211000">
        <ele>375.50</ele>
        <time>2012-12-16T10:56:10Z</time>
      </trkpt>
      <trkpt lat="41.639900100" lon="2.535074800">
        <ele>373.10</ele>
        <time>2012-12-16T10:56:15Z</time>
      </trkpt>
      <trkpt lat="41.639608000" lon="2.534998100">
        <ele>371.20</ele>
        <time>2012-12-16T10:56:21Z</time>
      </trkpt>
      <trkpt lat="41.639487400" lon="2.534996400">
        <ele>370.20</ele>
        <time>2012-12-16T10:56:22Z</time>
      </trkpt>
      <trkpt lat="41.639198700" lon="2.534948800">
        <ele>367.40</ele>
        <time>2012-12-16T10:56:28Z</time>
      </trkpt>
      <trkpt lat="41.638987600" lon="2.534893100">
        <ele>366.40</ele>
        <time>2012-12-16T10:56:31Z</time>
      </trkpt>
      <trkpt lat="41.638520300" lon="2.534648000">
        <ele>366.90</ele>
        <time>2012-12-16T10:56:38Z</time>
      </trkpt>
      <trkpt lat="41.638255400" lon="2.534661800">
        <ele>366.40</ele>
        <time>2012-12-16T10:56:45Z</time>
      </trkpt>
      <trkpt lat="41.638088500" lon="2.534843500">
        <ele>366.90</ele>
        <time>2012-12-16T10:56:52Z</time>
      </trkpt>
      <trkpt lat="41.638036400" lon="2.535080000">
        <ele>365.90</ele>
        <time>2012-12-16T10:56:57Z</time>
      </trkpt>
      <trkpt lat="41.637965700" lon="2.535250700">
        <ele>365.00</ele>
        <time>2012-12-16T10:56:59Z</time>
      </trkpt>
      <trkpt lat="41.637872700" lon="2.535473500">
        <ele>364.50</ele>
        <time>2012-12-16T10:57:04Z</time>
      </trkpt>
      <trkpt lat="41.637664600" lon="2.535684200">
        <ele>362.50</ele>
        <time>2012-12-16T10:57:09Z</time>
      </trkpt>
      <trkpt lat="41.637540400" lon="2.535778400">
        <ele>362.10</ele>
        <time>2012-12-16T10:57:11Z</time>
      </trkpt>
      <trkpt lat="41.637481400" lon="2.535830100">
        <ele>361.10</ele>
        <time>2012-12-16T10:57:11Z</time>
      </trkpt>
      <trkpt lat="41.637390600" lon="2.536049200">
        <ele>360.60</ele>
        <time>2012-12-16T10:57:16Z</time>
      </trkpt>
      <trkpt lat="41.637519100" lon="2.536456500">
        <ele>358.70</ele>
        <time>2012-12-16T10:57:22Z</time>
      </trkpt>
      <trkpt lat="41.637511100" lon="2.536912300">
        <ele>356.80</ele>
        <time>2012-12-16T10:57:27Z</time>
      </trkpt>
      <trkpt lat="41.637409600" lon="2.537342800">
        <ele>354.40</ele>
        <time>2012-12-16T10:57:34Z</time>
      </trkpt>
      <trkpt lat="41.637336700" lon="2.537557900">
        <ele>351.50</ele>
        <time>2012-12-16T10:57:37Z</time>
      </trkpt>
      <trkpt lat="41.637300200" lon="2.537560700">
        <ele>351.50</ele>
        <time>2012-12-16T10:57:39Z</time>
      </trkpt>
      <trkpt lat="41.637265900" lon="2.537553500">
        <ele>350.50</ele>
        <time>2012-12-16T10:57:39Z</time>
      </trkpt>
      <trkpt lat="41.637193100" lon="2.537534500">
        <ele>348.60</ele>
        <time>2012-12-16T10:57:42Z</time>
      </trkpt>
      <trkpt lat="41.637039100" lon="2.537489000">
        <ele>345.70</ele>
        <time>2012-12-16T10:57:48Z</time>
      </trkpt>
      <trkpt lat="41.636997100" lon="2.537470500">
        <ele>345.20</ele>
        <time>2012-12-16T10:57:48Z</time>
      </trkpt>
      <trkpt lat="41.636778300" lon="2.537261700">
        <ele>341.90</ele>
        <time>2012-12-16T10:57:53Z</time>
      </trkpt>
      <trkpt lat="41.636694600" lon="2.537239700">
        <ele>340.00</ele>
        <time>2012-12-16T10:57:55Z</time>
      </trkpt>
      <trkpt lat="41.636523700" lon="2.537230100">
        <ele>337.60</ele>
        <time>2012-12-16T10:58:02Z</time>
      </trkpt>
      <trkpt lat="41.636492700" lon="2.537237600">
        <ele>337.10</ele>
        <time>2012-12-16T10:58:02Z</time>
      </trkpt>
      <trkpt lat="41.636468400" lon="2.537351200">
        <ele>335.20</ele>
        <time>2012-12-16T10:58:07Z</time>
      </trkpt>
      <trkpt lat="41.636475100" lon="2.537375000">
        <ele>335.20</ele>
        <time>2012-12-16T10:58:09Z</time>
      </trkpt>
      <trkpt lat="41.636518200" lon="2.537537700">
        <ele>333.20</ele>
        <time>2012-12-16T10:58:12Z</time>
      </trkpt>
      <trkpt lat="41.636505900" lon="2.537760100">
        <ele>332.30</ele>
        <time>2012-12-16T10:58:17Z</time>
      </trkpt>
      <trkpt lat="41.636387900" lon="2.537831800">
        <ele>331.80</ele>
        <time>2012-12-16T10:58:23Z</time>
      </trkpt>
      <trkpt lat="41.636264100" lon="2.537861100">
        <ele>330.80</ele>
        <time>2012-12-16T10:58:28Z</time>
      </trkpt>
      <trkpt lat="41.636210700" lon="2.537902100">
        <ele>330.40</ele>
        <time>2012-12-16T10:58:30Z</time>
      </trkpt>
      <trkpt lat="41.636212800" lon="2.538071700">
        <ele>329.90</ele>
        <time>2012-12-16T10:58:33Z</time>
      </trkpt>
      <trkpt lat="41.636150200" lon="2.538344400">
        <ele>330.40</ele>
        <time>2012-12-16T10:58:40Z</time>
      </trkpt>
      <trkpt lat="41.636005100" lon="2.538492700">
        <ele>329.90</ele>
        <time>2012-12-16T10:58:45Z</time>
      </trkpt>
      <trkpt lat="41.635890800" lon="2.538600600">
        <ele>329.90</ele>
        <time>2012-12-16T10:58:50Z</time>
      </trkpt>
      <trkpt lat="41.635823700" lon="2.538811000">
        <ele>328.40</ele>
        <time>2012-12-16T10:58:57Z</time>
      </trkpt>
      <trkpt lat="41.635785800" lon="2.539004300">
        <ele>326.50</ele>
        <time>2012-12-16T10:58:59Z</time>
      </trkpt>
      <trkpt lat="41.635627000" lon="2.539115200">
        <ele>324.60</ele>
        <time>2012-12-16T10:59:04Z</time>
      </trkpt>
      <trkpt lat="41.635576500" lon="2.539098300">
        <ele>324.10</ele>
        <time>2012-12-16T10:59:04Z</time>
      </trkpt>
      <trkpt lat="41.635398500" lon="2.539130800">
        <ele>319.30</ele>
        <time>2012-12-16T10:59:10Z</time>
      </trkpt>
      <trkpt lat="41.635349400" lon="2.539203000">
        <ele>318.80</ele>
        <time>2012-12-16T10:59:11Z</time>
      </trkpt>
      <trkpt lat="41.635199600" lon="2.539236100">
        <ele>315.90</ele>
        <time>2012-12-16T10:59:15Z</time>
      </trkpt>
      <trkpt lat="41.635064000" lon="2.539247900">
        <ele>313.00</ele>
        <time>2012-12-16T10:59:18Z</time>
      </trkpt>
      <trkpt lat="41.635026700" lon="2.539392100">
        <ele>313.50</ele>
        <time>2012-12-16T10:59:22Z</time>
      </trkpt>
      <trkpt lat="41.635085600" lon="2.539668200">
        <ele>315.00</ele>
        <time>2012-12-16T10:59:29Z</time>
      </trkpt>
      <trkpt lat="41.635118000" lon="2.539781600">
        <ele>316.90</ele>
        <time>2012-12-16T10:59:34Z</time>
      </trkpt>
      <trkpt lat="41.635105300" lon="2.539987300">
        <ele>318.80</ele>
        <time>2012-12-16T10:59:41Z</time>
      </trkpt>
      <trkpt lat="41.635127200" lon="2.540208500">
        <ele>320.30</ele>
        <time>2012-12-16T10:59:50Z</time>
      </trkpt>
      <trkpt lat="41.635140400" lon="2.540412000">
        <ele>321.70</ele>
        <time>2012-12-16T10:59:58Z</time>
      </trkpt>
      <trkpt lat="41.635145000" lon="2.540485000">
        <ele>322.20</ele>
        <time>2012-12-16T11:00:00Z</time>
      </trkpt>
      <trkpt lat="41.635143800" lon="2.540588300">
        <ele>322.70</ele>
        <time>2012-12-16T11:00:05Z</time>
      </trkpt>
      <trkpt lat="41.635045200" lon="2.540672400">
        <ele>324.10</ele>
        <time>2012-12-16T11:00:12Z</time>
      </trkpt>
      <trkpt lat="41.635027700" lon="2.540671800">
        <ele>324.10</ele>
        <time>2012-12-16T11:00:12Z</time>
      </trkpt>
      <trkpt lat="41.634838800" lon="2.540712600">
        <ele>325.10</ele>
        <time>2012-12-16T11:00:23Z</time>
      </trkpt>
      <trkpt lat="41.634664000" lon="2.540796500">
        <ele>324.10</ele>
        <time>2012-12-16T11:00:30Z</time>
      </trkpt>
      <trkpt lat="41.634537000" lon="2.540814500">
        <ele>325.10</ele>
        <time>2012-12-16T11:00:35Z</time>
      </trkpt>
      <trkpt lat="41.634421100" lon="2.540877900">
        <ele>327.00</ele>
        <time>2012-12-16T11:00:44Z</time>
      </trkpt>
      <trkpt lat="41.634388700" lon="2.540900000">
        <ele>327.00</ele>
        <time>2012-12-16T11:00:45Z</time>
      </trkpt>
      <trkpt lat="41.634269000" lon="2.540972700">
        <ele>328.40</ele>
        <time>2012-12-16T11:00:54Z</time>
      </trkpt>
      <trkpt lat="41.634136800" lon="2.541038300">
        <ele>330.40</ele>
        <time>2012-12-16T11:01:01Z</time>
      </trkpt>
      <trkpt lat="41.634030200" lon="2.540986900">
        <ele>330.80</ele>
        <time>2012-12-16T11:01:08Z</time>
      </trkpt>
      <trkpt lat="41.634021900" lon="2.540967900">
        <ele>330.40</ele>
        <time>2012-12-16T11:01:10Z</time>
      </trkpt>
      <trkpt lat="41.633967200" lon="2.540768600">
        <ele>329.40</ele>
        <time>2012-12-16T11:01:15Z</time>
      </trkpt>
      <trkpt lat="41.633861900" lon="2.540560700">
        <ele>328.00</ele>
        <time>2012-12-16T11:01:22Z</time>
      </trkpt>
      <trkpt lat="41.633831700" lon="2.540486600">
        <ele>327.50</ele>
        <time>2012-12-16T11:01:27Z</time>
      </trkpt>
      <trkpt lat="41.633810800" lon="2.540456100">
        <ele>327.50</ele>
        <time>2012-12-16T11:01:38Z</time>
      </trkpt>
      <trkpt lat="41.633807400" lon="2.540453100">
        <ele>327.50</ele>
        <time>2012-12-16T11:01:38Z</time>
      </trkpt>
      <trkpt lat="41.633718000" lon="2.540345700">
        <ele>325.50</ele>
        <time>2012-12-16T11:01:43Z</time>
      </trkpt>
      <trkpt lat="41.633640200" lon="2.540320700">
        <ele>326.50</ele>
        <time>2012-12-16T11:01:48Z</time>
      </trkpt>
      <trkpt lat="41.633572000" lon="2.540324000">
        <ele>328.00</ele>
        <time>2012-12-16T11:01:55Z</time>
      </trkpt>
      <trkpt lat="41.633559100" lon="2.540319800">
        <ele>328.00</ele>
        <time>2012-12-16T11:02:00Z</time>
      </trkpt>
      <trkpt lat="41.633507900" lon="2.540316100">
        <ele>328.40</ele>
        <time>2012-12-16T11:02:09Z</time>
      </trkpt>
      <trkpt lat="41.633355200" lon="2.540253900">
        <ele>329.90</ele>
        <time>2012-12-16T11:02:18Z</time>
      </trkpt>
      <trkpt lat="41.633257200" lon="2.540221900">
        <ele>330.80</ele>
        <time>2012-12-16T11:02:23Z</time>
      </trkpt>
      <trkpt lat="41.633152900" lon="2.540232400">
        <ele>332.30</ele>
        <time>2012-12-16T11:02:30Z</time>
      </trkpt>
      <trkpt lat="41.633047900" lon="2.540282000">
        <ele>332.30</ele>
        <time>2012-12-16T11:02:39Z</time>
      </trkpt>
      <trkpt lat="41.632882500" lon="2.540303400">
        <ele>329.90</ele>
        <time>2012-12-16T11:02:46Z</time>
      </trkpt>
      <trkpt lat="41.632792300" lon="2.540073800">
        <ele>326.50</ele>
        <time>2012-12-16T11:02:49Z</time>
      </trkpt>
      <trkpt lat="41.632729200" lon="2.539696700">
        <ele>322.70</ele>
        <time>2012-12-16T11:02:54Z</time>
      </trkpt>
      <trkpt lat="41.632698400" lon="2.539505000">
        <ele>319.30</ele>
        <time>2012-12-16T11:02:56Z</time>
      </trkpt>
      <trkpt lat="41.632700800" lon="2.539411300">
        <ele>318.80</ele>
        <time>2012-12-16T11:02:56Z</time>
      </trkpt>
      <trkpt lat="41.632605500" lon="2.539172100">
        <ele>315.50</ele>
        <time>2012-12-16T11:03:01Z</time>
      </trkpt>
      <trkpt lat="41.632450800" lon="2.539237800">
        <ele>314.00</ele>
        <time>2012-12-16T11:03:05Z</time>
      </trkpt>
      <trkpt lat="41.632400700" lon="2.539271500">
        <ele>314.00</ele>
        <time>2012-12-16T11:03:05Z</time>
      </trkpt>
      <trkpt lat="41.632174900" lon="2.539397400">
        <ele>314.00</ele>
        <time>2012-12-16T11:03:12Z</time>
      </trkpt>
      <trkpt lat="41.632148500" lon="2.539409200">
        <ele>314.50</ele>
        <time>2012-12-16T11:03:12Z</time>
      </trkpt>
      <trkpt lat="41.632061500" lon="2.539382100">
        <ele>315.00</ele>
        <time>2012-12-16T11:03:17Z</time>
      </trkpt>
      <trkpt lat="41.631987400" lon="2.539133200">
        <ele>315.90</ele>
        <time>2012-12-16T11:03:26Z</time>
      </trkpt>
      <trkpt lat="41.631960000" lon="2.539076100">
        <ele>316.40</ele>
        <time>2012-12-16T11:03:29Z</time>
      </trkpt>
      <trkpt lat="41.631877000" lon="2.539074700">
        <ele>316.90</ele>
        <time>2012-12-16T11:03:33Z</time>
      </trkpt>
      <trkpt lat="41.631762600" lon="2.539229200">
        <ele>318.30</ele>
        <time>2012-12-16T11:03:41Z</time>
      </trkpt>
      <trkpt lat="41.631603600" lon="2.539300200">
        <ele>320.30</ele>
        <time>2012-12-16T11:03:50Z</time>
      </trkpt>
      <trkpt lat="41.631453900" lon="2.539302700">
        <ele>321.70</ele>
        <time>2012-12-16T11:03:59Z</time>
      </trkpt>
      <trkpt lat="41.631306500" lon="2.539244400">
        <ele>323.60</ele>
        <time>2012-12-16T11:04:07Z</time>
      </trkpt>
      <trkpt lat="41.631209100" lon="2.539165200">
        <ele>324.60</ele>
        <time>2012-12-16T11:04:13Z</time>
      </trkpt>
      <trkpt lat="41.631120400" lon="2.539134400">
        <ele>326.00</ele>
        <time>2012-12-16T11:04:20Z</time>
      </trkpt>
      <trkpt lat="41.631017900" lon="2.539148600">
        <ele>327.00</ele>
        <time>2012-12-16T11:04:25Z</time>
      </trkpt>
      <trkpt lat="41.630961900" lon="2.539182200">
        <ele>328.00</ele>
        <time>2012-12-16T11:04:30Z</time>
      </trkpt>
      <trkpt lat="41.630837700" lon="2.539301900">
        <ele>330.40</ele>
        <time>2012-12-16T11:04:39Z</time>
      </trkpt>
      <trkpt lat="41.630743500" lon="2.539403900">
        <ele>331.30</ele>
        <time>2012-12-16T11:04:46Z</time>
      </trkpt>
      <trkpt lat="41.630710500" lon="2.539416000">
        <ele>331.30</ele>
        <time>2012-12-16T11:04:49Z</time>
      </trkpt>
      <trkpt lat="41.630570400" lon="2.539569800">
        <ele>331.80</ele>
        <time>2012-12-16T11:04:58Z</time>
      </trkpt>
      <trkpt lat="41.630475500" lon="2.539772000">
        <ele>332.30</ele>
        <time>2012-12-16T11:05:07Z</time>
      </trkpt>
      <trkpt lat="41.630394400" lon="2.539956400">
        <ele>332.80</ele>
        <time>2012-12-16T11:05:14Z</time>
      </trkpt>
      <trkpt lat="41.630282700" lon="2.540148700">
        <ele>333.20</ele>
        <time>2012-12-16T11:05:22Z</time>
      </trkpt>
      <trkpt lat="41.630142800" lon="2.540342300">
        <ele>333.70</ele>
        <time>2012-12-16T11:05:29Z</time>
      </trkpt>
      <trkpt lat="41.629935600" lon="2.540440600">
        <ele>333.20</ele>
        <time>2012-12-16T11:05:38Z</time>
      </trkpt>
      <trkpt lat="41.629794700" lon="2.540463100">
        <ele>330.40</ele>
        <time>2012-12-16T11:05:42Z</time>
      </trkpt>
      <trkpt lat="41.629572900" lon="2.540646700">
        <ele>325.50</ele>
        <time>2012-12-16T11:05:47Z</time>
      </trkpt>
      <trkpt lat="41.629407200" lon="2.540724900">
        <ele>321.20</ele>
        <time>2012-12-16T11:05:50Z</time>
      </trkpt>
      <trkpt lat="41.629316300" lon="2.540764300">
        <ele>318.80</ele>
        <time>2012-12-16T11:05:52Z</time>
      </trkpt>
      <trkpt lat="41.629084600" lon="2.540801600">
        <ele>315.00</ele>
        <time>2012-12-16T11:05:57Z</time>
      </trkpt>
      <trkpt lat="41.628953700" lon="2.540664100">
        <ele>311.60</ele>
        <time>2012-12-16T11:05:59Z</time>
      </trkpt>
      <trkpt lat="41.628910500" lon="2.540585900">
        <ele>310.60</ele>
        <time>2012-12-16T11:06:01Z</time>
      </trkpt>
      <trkpt lat="41.628769300" lon="2.540364200">
        <ele>304.90</ele>
        <time>2012-12-16T11:06:04Z</time>
      </trkpt>
      <trkpt lat="41.628735600" lon="2.540310900">
        <ele>303.40</ele>
        <time>2012-12-16T11:06:04Z</time>
      </trkpt>
      <trkpt lat="41.628564200" lon="2.540025000">
        <ele>301.50</ele>
        <time>2012-12-16T11:06:09Z</time>
      </trkpt>
      <trkpt lat="41.628526300" lon="2.539970100">
        <ele>300.50</ele>
        <time>2012-12-16T11:06:11Z</time>
      </trkpt>
      <trkpt lat="41.628263300" lon="2.539786800">
        <ele>298.10</ele>
        <time>2012-12-16T11:06:16Z</time>
      </trkpt>
      <trkpt lat="41.627965100" lon="2.539666600">
        <ele>292.90</ele>
        <time>2012-12-16T11:06:23Z</time>
      </trkpt>
      <trkpt lat="41.627739700" lon="2.539425700">
        <ele>290.00</ele>
        <time>2012-12-16T11:06:27Z</time>
      </trkpt>
      <trkpt lat="41.627406000" lon="2.539219700">
        <ele>286.10</ele>
        <time>2012-12-16T11:06:32Z</time>
      </trkpt>
      <trkpt lat="41.627257200" lon="2.539178500">
        <ele>284.20</ele>
        <time>2012-12-16T11:06:34Z</time>
      </trkpt>
      <trkpt lat="41.626947700" lon="2.539154500">
        <ele>280.80</ele>
        <time>2012-12-16T11:06:37Z</time>
      </trkpt>
      <trkpt lat="41.626810400" lon="2.539130800">
        <ele>279.40</ele>
        <time>2012-12-16T11:06:39Z</time>
      </trkpt>
      <trkpt lat="41.626688400" lon="2.539174200">
        <ele>278.00</ele>
        <time>2012-12-16T11:06:41Z</time>
      </trkpt>
      <trkpt lat="41.626572700" lon="2.539276200">
        <ele>277.00</ele>
        <time>2012-12-16T11:06:44Z</time>
      </trkpt>
      <trkpt lat="41.626393300" lon="2.539441300">
        <ele>274.60</ele>
        <time>2012-12-16T11:06:46Z</time>
      </trkpt>
      <trkpt lat="41.626047900" lon="2.539663000">
        <ele>269.30</ele>
        <time>2012-12-16T11:06:53Z</time>
      </trkpt>
      <trkpt lat="41.625848500" lon="2.539794400">
        <ele>265.50</ele>
        <time>2012-12-16T11:06:55Z</time>
      </trkpt>
      <trkpt lat="41.625626000" lon="2.539927500">
        <ele>263.10</ele>
        <time>2012-12-16T11:06:58Z</time>
      </trkpt>
      <trkpt lat="41.625282300" lon="2.540215800">
        <ele>258.70</ele>
        <time>2012-12-16T11:07:03Z</time>
      </trkpt>
      <trkpt lat="41.625218500" lon="2.540276000">
        <ele>258.20</ele>
        <time>2012-12-16T11:07:05Z</time>
      </trkpt>
      <trkpt lat="41.625075800" lon="2.540427200">
        <ele>256.30</ele>
        <time>2012-12-16T11:07:07Z</time>
      </trkpt>
      <trkpt lat="41.624968700" lon="2.540503300">
        <ele>253.90</ele>
        <time>2012-12-16T11:07:10Z</time>
      </trkpt>
      <trkpt lat="41.624645000" lon="2.540786600">
        <ele>249.10</ele>
        <time>2012-12-16T11:07:14Z</time>
      </trkpt>
      <trkpt lat="41.624468500" lon="2.540956300">
        <ele>247.70</ele>
        <time>2012-12-16T11:07:17Z</time>
      </trkpt>
      <trkpt lat="41.624293300" lon="2.541172000">
        <ele>245.80</ele>
        <time>2012-12-16T11:07:21Z</time>
      </trkpt>
      <trkpt lat="41.624007000" lon="2.541360000">
        <ele>242.40</ele>
        <time>2012-12-16T11:07:26Z</time>
      </trkpt>
      <trkpt lat="41.623848700" lon="2.541411100">
        <ele>238.50</ele>
        <time>2012-12-16T11:07:30Z</time>
      </trkpt>
      <trkpt lat="41.623751700" lon="2.541421400">
        <ele>236.60</ele>
        <time>2012-12-16T11:07:33Z</time>
      </trkpt>
      <trkpt lat="41.623513800" lon="2.541599800">
        <ele>235.20</ele>
        <time>2012-12-16T11:07:38Z</time>
      </trkpt>
      <trkpt lat="41.623481900" lon="2.541653700">
        <ele>234.70</ele>
        <time>2012-12-16T11:07:38Z</time>
      </trkpt>
      <trkpt lat="41.623304100" lon="2.541816100">
        <ele>229.40</ele>
        <time>2012-12-16T11:07:43Z</time>
      </trkpt>
      <trkpt lat="41.623141200" lon="2.541850200">
        <ele>227.50</ele>
        <time>2012-12-16T11:07:47Z</time>
      </trkpt>
      <trkpt lat="41.623081800" lon="2.541878300">
        <ele>227.00</ele>
        <time>2012-12-16T11:07:47Z</time>
      </trkpt>
      <trkpt lat="41.622804900" lon="2.541961900">
        <ele>222.70</ele>
        <time>2012-12-16T11:07:52Z</time>
      </trkpt>
      <trkpt lat="41.622662500" lon="2.542014300">
        <ele>220.30</ele>
        <time>2012-12-16T11:07:56Z</time>
      </trkpt>
      <trkpt lat="41.622492700" lon="2.542034400">
        <ele>219.30</ele>
        <time>2012-12-16T11:07:59Z</time>
      </trkpt>
      <trkpt lat="41.622226500" lon="2.542105000">
        <ele>215.00</ele>
        <time>2012-12-16T11:08:03Z</time>
      </trkpt>
      <trkpt lat="41.622160800" lon="2.542122600">
        <ele>215.00</ele>
        <time>2012-12-16T11:08:04Z</time>
      </trkpt>
      <trkpt lat="41.622040000" lon="2.542183300">
        <ele>213.10</ele>
        <time>2012-12-16T11:08:06Z</time>
      </trkpt>
      <trkpt lat="41.621819900" lon="2.542377700">
        <ele>210.70</ele>
        <time>2012-12-16T11:08:10Z</time>
      </trkpt>
      <trkpt lat="41.621626100" lon="2.542690100">
        <ele>207.80</ele>
        <time>2012-12-16T11:08:15Z</time>
      </trkpt>
      <trkpt lat="41.621571200" lon="2.542767700">
        <ele>207.30</ele>
        <time>2012-12-16T11:08:17Z</time>
      </trkpt>
      <trkpt lat="41.621508600" lon="2.542702800">
        <ele>205.40</ele>
        <time>2012-12-16T11:08:22Z</time>
      </trkpt>
      <trkpt lat="41.621548700" lon="2.542613800">
        <ele>203.90</ele>
        <time>2012-12-16T11:08:25Z</time>
      </trkpt>
      <trkpt lat="41.621564400" lon="2.542371200">
        <ele>203.00</ele>
        <time>2012-12-16T11:08:29Z</time>
      </trkpt>
      <trkpt lat="41.621490200" lon="2.542243100">
        <ele>201.10</ele>
        <time>2012-12-16T11:08:30Z</time>
      </trkpt>
      <trkpt lat="41.621407700" lon="2.542129200">
        <ele>199.60</ele>
        <time>2012-12-16T11:08:32Z</time>
      </trkpt>
      <trkpt lat="41.621099900" lon="2.541955600">
        <ele>197.70</ele>
        <time>2012-12-16T11:08:37Z</time>
      </trkpt>
      <trkpt lat="41.621016000" lon="2.541943200">
        <ele>197.20</ele>
        <time>2012-12-16T11:08:39Z</time>
      </trkpt>
      <trkpt lat="41.620785500" lon="2.541928500">
        <ele>194.30</ele>
        <time>2012-12-16T11:08:41Z</time>
      </trkpt>
      <trkpt lat="41.620505100" lon="2.542058800">
        <ele>188.60</ele>
        <time>2012-12-16T11:08:46Z</time>
      </trkpt>
      <trkpt lat="41.620393300" lon="2.542210400">
        <ele>188.10</ele>
        <time>2012-12-16T11:08:48Z</time>
      </trkpt>
      <trkpt lat="41.620163800" lon="2.542557100">
        <ele>189.50</ele>
        <time>2012-12-16T11:08:53Z</time>
      </trkpt>
      <trkpt lat="41.620028300" lon="2.542757600">
        <ele>191.90</ele>
        <time>2012-12-16T11:09:00Z</time>
      </trkpt>
      <trkpt lat="41.619939300" lon="2.542936200">
        <ele>193.80</ele>
        <time>2012-12-16T11:09:05Z</time>
      </trkpt>
      <trkpt lat="41.619879100" lon="2.542966200">
        <ele>194.80</ele>
        <time>2012-12-16T11:09:09Z</time>
      </trkpt>
      <trkpt lat="41.619837900" lon="2.542948100">
        <ele>195.80</ele>
        <time>2012-12-16T11:09:11Z</time>
      </trkpt>
      <trkpt lat="41.619695500" lon="2.542805400">
        <ele>197.70</ele>
        <time>2012-12-16T11:09:19Z</time>
      </trkpt>
      <trkpt lat="41.619562300" lon="2.542733400">
        <ele>200.10</ele>
        <time>2012-12-16T11:09:26Z</time>
      </trkpt>
      <trkpt lat="41.619474200" lon="2.542719900">
        <ele>201.50</ele>
        <time>2012-12-16T11:09:31Z</time>
      </trkpt>
      <trkpt lat="41.619433500" lon="2.542718800">
        <ele>201.10</ele>
        <time>2012-12-16T11:09:38Z</time>
      </trkpt>
      <trkpt lat="41.619428600" lon="2.542720900">
        <ele>201.10</ele>
        <time>2012-12-16T11:09:52Z</time>
      </trkpt>
      <trkpt lat="41.619431000" lon="2.542701400">
        <ele>201.10</ele>
        <time>2012-12-16T11:10:17Z</time>
      </trkpt>
      <trkpt lat="41.619426300" lon="2.542696300">
        <ele>201.10</ele>
        <time>2012-12-16T11:10:27Z</time>
      </trkpt>
      <trkpt lat="41.619346900" lon="2.542698100">
        <ele>200.60</ele>
        <time>2012-12-16T11:10:34Z</time>
      </trkpt>
      <trkpt lat="41.619214300" lon="2.542714700">
        <ele>200.10</ele>
        <time>2012-12-16T11:10:38Z</time>
      </trkpt>
      <trkpt lat="41.618944000" lon="2.542649300">
        <ele>198.60</ele>
        <time>2012-12-16T11:10:43Z</time>
      </trkpt>
      <trkpt lat="41.618886200" lon="2.542606300">
        <ele>198.20</ele>
        <time>2012-12-16T11:10:45Z</time>
      </trkpt>
      <trkpt lat="41.618643000" lon="2.542372900">
        <ele>196.20</ele>
        <time>2012-12-16T11:10:48Z</time>
      </trkpt>
      <trkpt lat="41.618308400" lon="2.541844900">
        <ele>192.90</ele>
        <time>2012-12-16T11:10:55Z</time>
      </trkpt>
      <trkpt lat="41.618259500" lon="2.541734100">
        <ele>192.40</ele>
        <time>2012-12-16T11:10:55Z</time>
      </trkpt>
      <trkpt lat="41.618056900" lon="2.541208100">
        <ele>189.00</ele>
        <time>2012-12-16T11:11:00Z</time>
      </trkpt>
      <trkpt lat="41.618033800" lon="2.540812200">
        <ele>186.10</ele>
        <time>2012-12-16T11:11:04Z</time>
      </trkpt>
      <trkpt lat="41.618152900" lon="2.540473700">
        <ele>183.80</ele>
        <time>2012-12-16T11:11:09Z</time>
      </trkpt>
      <trkpt lat="41.618158700" lon="2.540391700">
        <ele>182.80</ele>
        <time>2012-12-16T11:11:09Z</time>
      </trkpt>
      <trkpt lat="41.618160500" lon="2.540088300">
        <ele>180.90</ele>
        <time>2012-12-16T11:11:14Z</time>
      </trkpt>
      <trkpt lat="41.617988100" lon="2.540097600">
        <ele>180.40</ele>
        <time>2012-12-16T11:11:19Z</time>
      </trkpt>
      <trkpt lat="41.617909700" lon="2.540225700">
        <ele>178.90</ele>
        <time>2012-12-16T11:11:21Z</time>
      </trkpt>
      <trkpt lat="41.617790700" lon="2.540490700">
        <ele>178.00</ele>
        <time>2012-12-16T11:11:25Z</time>
      </trkpt>
      <trkpt lat="41.617607900" lon="2.540910500">
        <ele>174.10</ele>
        <time>2012-12-16T11:11:28Z</time>
      </trkpt>
      <trkpt lat="41.617503500" lon="2.541150400">
        <ele>173.20</ele>
        <time>2012-12-16T11:11:30Z</time>
      </trkpt>
      <trkpt lat="41.617380300" lon="2.541396300">
        <ele>171.20</ele>
        <time>2012-12-16T11:11:33Z</time>
      </trkpt>
      <trkpt lat="41.617156800" lon="2.541677100">
        <ele>168.90</ele>
        <time>2012-12-16T11:11:35Z</time>
      </trkpt>
      <trkpt lat="41.616798100" lon="2.542018900">
        <ele>167.40</ele>
        <time>2012-12-16T11:11:40Z</time>
      </trkpt>
      <trkpt lat="41.616352800" lon="2.542029400">
        <ele>166.40</ele>
        <time>2012-12-16T11:11:46Z</time>
      </trkpt>
      <trkpt lat="41.616267400" lon="2.541971600">
        <ele>166.00</ele>
        <time>2012-12-16T11:11:47Z</time>
      </trkpt>
      <trkpt lat="41.615739400" lon="2.541588000">
        <ele>161.60</ele>
        <time>2012-12-16T11:11:53Z</time>
      </trkpt>
      <trkpt lat="41.615552200" lon="2.541455800">
        <ele>160.20</ele>
        <time>2012-12-16T11:11:54Z</time>
      </trkpt>
      <trkpt lat="41.615016400" lon="2.541278300">
        <ele>155.90</ele>
        <time>2012-12-16T11:12:00Z</time>
      </trkpt>
      <trkpt lat="41.614902900" lon="2.541249300">
        <ele>155.90</ele>
        <time>2012-12-16T11:12:01Z</time>
      </trkpt>
      <trkpt lat="41.614210200" lon="2.541068900">
        <ele>152.50</ele>
        <time>2012-12-16T11:12:06Z</time>
      </trkpt>
      <trkpt lat="41.613486000" lon="2.540889100">
        <ele>148.70</ele>
        <time>2012-12-16T11:12:12Z</time>
      </trkpt>
      <trkpt lat="41.612987100" lon="2.540851900">
        <ele>145.30</ele>
        <time>2012-12-16T11:12:17Z</time>
      </trkpt>
      <trkpt lat="41.612361000" lon="2.540828000">
        <ele>141.90</ele>
        <time>2012-12-16T11:12:22Z</time>
      </trkpt>
      <trkpt lat="41.611657600" lon="2.540829200">
        <ele>138.10</ele>
        <time>2012-12-16T11:12:27Z</time>
      </trkpt>
      <trkpt lat="41.611134300" lon="2.541012000">
        <ele>135.20</ele>
        <time>2012-12-16T11:12:33Z</time>
      </trkpt>
      <trkpt lat="41.610855800" lon="2.541120400">
        <ele>133.80</ele>
        <time>2012-12-16T11:12:36Z</time>
      </trkpt>
      <trkpt lat="41.610495200" lon="2.541270700">
        <ele>130.90</ele>
        <time>2012-12-16T11:12:41Z</time>
      </trkpt>
      <trkpt lat="41.610222900" lon="2.541389000">
        <ele>129.40</ele>
        <time>2012-12-16T11:12:45Z</time>
      </trkpt>
      <trkpt lat="41.609822600" lon="2.541385800">
        <ele>127.00</ele>
        <time>2012-12-16T11:12:50Z</time>
      </trkpt>
      <trkpt lat="41.609010500" lon="2.541488100">
        <ele>123.70</ele>
        <time>2012-12-16T11:12:59Z</time>
      </trkpt>
      <trkpt lat="41.608836700" lon="2.541499100">
        <ele>123.20</ele>
        <time>2012-12-16T11:13:00Z</time>
      </trkpt>
      <trkpt lat="41.608510100" lon="2.541364000">
        <ele>121.70</ele>
        <time>2012-12-16T11:13:04Z</time>
      </trkpt>
      <trkpt lat="41.608058600" lon="2.541059500">
        <ele>119.80</ele>
        <time>2012-12-16T11:13:11Z</time>
      </trkpt>
      <trkpt lat="41.607978400" lon="2.541028100">
        <ele>119.80</ele>
        <time>2012-12-16T11:13:11Z</time>
      </trkpt>
      <trkpt lat="41.607403600" lon="2.541009800">
        <ele>118.90</ele>
        <time>2012-12-16T11:13:18Z</time>
      </trkpt>
      <trkpt lat="41.606987200" lon="2.540920300">
        <ele>117.40</ele>
        <time>2012-12-16T11:13:23Z</time>
      </trkpt>
      <trkpt lat="41.606373500" lon="2.540668500">
        <ele>115.00</ele>
        <time>2012-12-16T11:13:32Z</time>
      </trkpt>
      <trkpt lat="41.606034600" lon="2.540528300">
        <ele>113.60</ele>
        <time>2012-12-16T11:13:37Z</time>
      </trkpt>
      <trkpt lat="41.605921800" lon="2.540462100">
        <ele>112.10</ele>
        <time>2012-12-16T11:13:42Z</time>
      </trkpt>
      <trkpt lat="41.605912000" lon="2.540463800">
        <ele>112.60</ele>
        <time>2012-12-16T11:13:49Z</time>
      </trkpt>
      <trkpt lat="41.605905800" lon="2.540450400">
        <ele>112.60</ele>
        <time>2012-12-16T11:14:03Z</time>
      </trkpt>
      <trkpt lat="41.605901200" lon="2.540455400">
        <ele>112.60</ele>
        <time>2012-12-16T11:14:14Z</time>
      </trkpt>
      <trkpt lat="41.605888600" lon="2.540460400">
        <ele>112.60</ele>
        <time>2012-12-16T11:14:40Z</time>
      </trkpt>
      <trkpt lat="41.605887500" lon="2.540467000">
        <ele>112.60</ele>
        <time>2012-12-16T11:14:57Z</time>
      </trkpt>
      <trkpt lat="41.605884400" lon="2.540461300">
        <ele>112.60</ele>
        <time>2012-12-16T11:15:13Z</time>
      </trkpt>
      <trkpt lat="41.605885000" lon="2.540456400">
        <ele>112.60</ele>
        <time>2012-12-16T11:15:27Z</time>
      </trkpt>
      <trkpt lat="41.605891100" lon="2.540466000">
        <ele>112.60</ele>
        <time>2012-12-16T11:15:44Z</time>
      </trkpt>
      <trkpt lat="41.605892300" lon="2.540446200">
        <ele>112.60</ele>
        <time>2012-12-16T11:16:12Z</time>
      </trkpt>
      <trkpt lat="41.605890000" lon="2.540447600">
        <ele>112.10</ele>
        <time>2012-12-16T11:16:31Z</time>
      </trkpt>
      <trkpt lat="41.605887500" lon="2.540457700">
        <ele>112.60</ele>
        <time>2012-12-16T11:16:45Z</time>
      </trkpt>
      <trkpt lat="41.605885900" lon="2.540454800">
        <ele>112.60</ele>
        <time>2012-12-16T11:17:04Z</time>
      </trkpt>
      <trkpt lat="41.605871800" lon="2.540448800">
        <ele>112.60</ele>
        <time>2012-12-16T11:17:15Z</time>
      </trkpt>
      <trkpt lat="41.605867500" lon="2.540456100">
        <ele>112.10</ele>
        <time>2012-12-16T11:17:18Z</time>
      </trkpt>
      <trkpt lat="41.605875600" lon="2.540528300">
        <ele>112.60</ele>
        <time>2012-12-16T11:17:24Z</time>
      </trkpt>
      <trkpt lat="41.606017600" lon="2.540595700">
        <ele>113.10</ele>
        <time>2012-12-16T11:17:32Z</time>
      </trkpt>
      <trkpt lat="41.606211700" lon="2.540653800">
        <ele>113.60</ele>
        <time>2012-12-16T11:17:39Z</time>
      </trkpt>
      <trkpt lat="41.606391000" lon="2.540720500">
        <ele>114.50</ele>
        <time>2012-12-16T11:17:44Z</time>
      </trkpt>
      <trkpt lat="41.606555700" lon="2.540898500">
        <ele>115.50</ele>
        <time>2012-12-16T11:17:51Z</time>
      </trkpt>
      <trkpt lat="41.606643800" lon="2.541199500">
        <ele>116.90</ele>
        <time>2012-12-16T11:18:00Z</time>
      </trkpt>
      <trkpt lat="41.606721300" lon="2.541480800">
        <ele>118.90</ele>
        <time>2012-12-16T11:18:07Z</time>
      </trkpt>
      <trkpt lat="41.606789700" lon="2.541696200">
        <ele>120.30</ele>
        <time>2012-12-16T11:18:14Z</time>
      </trkpt>
      <trkpt lat="41.606890600" lon="2.541944000">
        <ele>121.70</ele>
        <time>2012-12-16T11:18:23Z</time>
      </trkpt>
      <trkpt lat="41.606996000" lon="2.542157000">
        <ele>123.70</ele>
        <time>2012-12-16T11:18:33Z</time>
      </trkpt>
      <trkpt lat="41.607073400" lon="2.542313600">
        <ele>124.20</ele>
        <time>2012-12-16T11:18:42Z</time>
      </trkpt>
      <trkpt lat="41.607093400" lon="2.542327400">
        <ele>124.60</ele>
        <time>2012-12-16T11:18:49Z</time>
      </trkpt>
      <trkpt lat="41.607110200" lon="2.542342700">
        <ele>125.10</ele>
        <time>2012-12-16T11:18:58Z</time>
      </trkpt>
    </trkseg>
  </trk>
</gpx>
